Detalle de ayer:

29/7/21
Time         Wind Dir  Wind Gust   Humidity       Temp   Tot Rain Wind Chill Heat Index  Dew Point   Barom SL Temp Out H Temp Out L  DailyRain   HourRain   24HrRain   RainRate   Wind Run   Deg Heat   Deg Cool  MonthRain
                          km/hr          %         C         mm         C         C         C         mb         C         C         mm         mm         mm      mm/hr         km         C         C         mm
0:00              254        0.0         52       25.8      226.0       25.8       26.3       15.2     1010.8       25.8       25.8        0.0        0.0        0.0       0.00      233.9       0.00       7.61        0.0
0:02              259        0.0         52       25.8      226.0       25.8       26.3       15.2     1010.8       25.8       25.8        0.0        0.0        0.0       0.00        0.4       0.00       0.04        0.0
0:04              275        0.0         52       25.8      226.0       25.8       26.3       15.2     1010.7       25.8       25.8        0.0        0.0        0.0       0.00        1.0       0.00       0.04        0.0
0:06              251        0.0         52       25.8      226.0       25.8       26.3       15.2     1010.9       25.8       25.8        0.0        0.0        0.0       0.00        1.7       0.00       0.04        0.0
0:08              252        0.0         52       25.8      226.0       25.8       26.4       15.2     1010.8       25.8       25.8        0.0        0.0        0.0       0.00        2.1       0.00       0.04        0.0
0:10              252        0.0         52       25.8      226.0       25.8       26.4       15.2     1010.8       25.8       25.8        0.0        0.0        0.0       0.00        2.4       0.00       0.04        0.0
0:12              277        0.0         52       25.8      226.0       25.8       26.4       15.2     1010.7       25.8       25.8        0.0        0.0        0.0       0.00        3.0       0.00       0.04        0.0
0:14              273        0.0         51       25.8      226.0       25.8       26.3       14.9     1010.8       25.8       25.8        0.0        0.0        0.0       0.00        3.6       0.00       0.04        0.0
0:16              279        0.0         52       25.9      226.0       25.9       26.4       15.3     1010.8       25.9       25.8        0.0        0.0        0.0       0.00        4.3       0.00       0.08        0.0
0:18              272        0.0         52       25.9      226.0       25.9       26.4       15.3     1010.8       25.9       25.8        0.0        0.0        0.0       0.00        4.8       0.00       0.08        0.0
0:20              273        0.0         52       25.9      226.0       25.9       26.4       15.3     1010.8       25.9       25.8        0.0        0.0        0.0       0.00        5.2       0.00       0.08        0.0
0:22              274        0.0         52       25.9      226.0       25.9       26.4       15.3     1010.7       25.9       25.8        0.0        0.0        0.0       0.00        5.7       0.00       0.08        0.0
0:24              275        0.0         52       25.9      226.0       25.9       26.5       15.3     1010.7       25.9       25.8        0.0        0.0        0.0       0.00        6.3       0.00       0.08        0.0
0:26              278        0.0         52       25.9      226.0       25.9       26.4       15.3     1010.8       25.9       25.8        0.0        0.0        0.0       0.00        6.7       0.00       0.08        0.0
0:28              275        0.0         52       25.9      226.0       25.9       26.5       15.3     1010.7       25.9       25.8        0.0        0.0        0.0       0.00        7.1       0.00       0.08        0.0
0:30              283        0.0         53       25.9      226.0       25.9       26.6       15.6     1010.7       25.9       25.8        0.0        0.0        0.0       0.00        7.5       0.00       0.08        0.0
0:32              272        0.0         53       25.9      226.0       25.9       26.5       15.6     1010.7       25.9       25.8        0.0        0.0        0.0       0.00        8.0       0.00       0.12        0.0
0:34              268        0.0         53       25.9      226.0       25.9       26.5       15.6     1010.7       25.9       25.8        0.0        0.0        0.0       0.00        8.4       0.00       0.12        0.0
0:36              267        0.0         53       25.9      226.0       25.9       26.5       15.6     1010.7       25.9       25.8        0.0        0.0        0.0       0.00        8.8       0.00       0.12        0.0
0:38              265        0.0         53       25.8      226.0       25.8       26.4       15.5     1010.7       25.9       25.8        0.0        0.0        0.0       0.00        9.2       0.00       0.12        0.0
0:40              265        0.0         53       25.8      226.0       25.8       26.4       15.5     1010.7       25.9       25.8        0.0        0.0        0.0       0.00        9.5       0.00       0.12        0.0
0:42              270        0.0         53       25.8      226.0       25.8       26.4       15.5     1010.7       25.9       25.8        0.0        0.0        0.0       0.00        9.8       0.00       0.12        0.0
0:44              277        0.0         53       25.8      226.0       25.8       26.4       15.5     1010.6       25.9       25.8        0.0        0.0        0.0       0.00       10.1       0.00       0.12        0.0
0:46              277        0.0         53       25.8      226.0       25.8       26.4       15.5     1010.7       25.9       25.8        0.0        0.0        0.0       0.00       10.5       0.00       0.16        0.0
0:48              280        0.0         54       25.7      226.0       25.7       26.4       15.7     1010.6       25.9       25.7        0.0        0.0        0.0       0.00       10.8       0.00       0.16        0.0
0:50              280        0.0         54       25.7      226.0       25.7       26.4       15.7     1010.7       25.9       25.7        0.0        0.0        0.0       0.00       11.0       0.00       0.16        0.0
0:52              280        0.0         54       25.7      226.0       25.7       26.4       15.7     1010.5       25.9       25.7        0.0        0.0        0.0       0.00       11.2       0.00       0.16        0.0
0:54              281        0.0         54       25.7      226.0       25.7       26.3       15.7     1010.7       25.9       25.7        0.0        0.0        0.0       0.00       11.5       0.00       0.16        0.0
0:56              281        0.0         55       25.7      226.0       25.7       26.4       16.0     1010.6       25.9       25.7        0.0        0.0        0.0       0.00       11.8       0.00       0.16        0.0
0:58              281        0.0         55       25.7      226.0       25.7       26.4       16.0     1010.6       25.9       25.6        0.0        0.0        0.0       0.00       12.0       0.00       0.16        0.0
1:00              281        0.0         55       25.6      226.0       25.6       26.3       15.9     1010.6       25.9       25.6        0.0        0.0        0.0       0.00       12.3       0.00       0.16        0.0
1:02              281        0.0         55       25.6      226.0       25.6       26.3       15.9     1010.5       25.9       25.6        0.0        0.0        0.0       0.00       12.6       0.00       0.20        0.0
1:04              281        0.0         55       25.6      226.0       25.6       26.3       15.9     1010.6       25.9       25.6        0.0        0.0        0.0       0.00       12.8       0.00       0.20        0.0
1:06              281        0.0         55       25.5      226.0       25.5       26.2       15.8     1010.5       25.9       25.5        0.0        0.0        0.0       0.00       13.0       0.00       0.20        0.0
1:08              281        0.0         55       25.5      226.0       25.5       26.2       15.8     1010.6       25.9       25.5        0.0        0.0        0.0       0.00       13.3       0.00       0.20        0.0
1:10              282        0.0         55       25.4      226.0       25.4       26.2       15.8     1010.6       25.9       25.4        0.0        0.0        0.0       0.00       13.6       0.00       0.20        0.0
1:12              290        0.0         55       25.4      226.0       25.4       26.2       15.8     1010.5       25.9       25.4        0.0        0.0        0.0       0.00       14.0       0.00       0.20        0.0
1:14              286        0.0         55       25.4      226.0       25.4       26.1       15.7     1010.5       25.9       25.4        0.0        0.0        0.0       0.00       14.4       0.00       0.20        0.0
1:16              286        0.0         55       25.4      226.0       25.4       26.1       15.7     1010.5       25.9       25.4        0.0        0.0        0.0       0.00       14.6       0.00       0.23        0.0
1:18              286        0.0         55       25.4      226.0       25.4       26.1       15.7     1010.5       25.9       25.4        0.0        0.0        0.0       0.00       14.9       0.00       0.23        0.0
1:20              287        0.0         55       25.4      226.0       25.4       26.1       15.7     1010.4       25.9       25.4        0.0        0.0        0.0       0.00       15.1       0.00       0.23        0.0
1:22              287        0.0         55       25.4      226.0       25.4       26.1       15.7     1010.4       25.9       25.4        0.0        0.0        0.0       0.00       15.4       0.00       0.23        0.0
1:24              287        0.0         55       25.4      226.0       25.4       26.1       15.7     1010.4       25.9       25.4        0.0        0.0        0.0       0.00       15.6       0.00       0.23        0.0
1:26              287        0.0         56       25.4      226.0       25.4       26.2       16.0     1010.5       25.9       25.4        0.0        0.0        0.0       0.00       15.9       0.00       0.23        0.0
1:28              287        0.0         56       25.4      226.0       25.4       26.2       16.0     1010.5       25.9       25.4        0.0        0.0        0.0       0.00       16.1       0.00       0.23        0.0
1:29              287        0.0         56       25.4      226.0       25.4       26.2       16.0     1010.5       25.9       25.4        0.0        0.0        0.0       0.00       16.4       0.00       0.23        0.0
1:32              287        0.0         56       25.4      226.0       25.4       26.2       16.0     1010.5       25.9       25.4        0.0        0.0        0.0       0.00       16.6       0.00       0.27        0.0
1:34              286        0.0         56       25.4      226.0       25.4       26.2       16.0     1010.5       25.9       25.4        0.0        0.0        0.0       0.00       16.9       0.00       0.27        0.0
1:36              277        0.0         56       25.4      226.0       25.4       26.2       16.0     1010.4       25.9       25.4        0.0        0.0        0.0       0.00       17.2       0.00       0.27        0.0
1:38              275        0.0         56       25.4      226.0       25.4       26.2       16.0     1010.5       25.9       25.4        0.0        0.0        0.0       0.00       17.6       0.00       0.27        0.0
1:40              276        0.0         56       25.4      226.0       25.4       26.2       16.0     1010.4       25.9       25.4        0.0        0.0        0.0       0.00       17.8       0.00       0.27        0.0
1:42              275        0.0         56       25.4      226.0       25.4       26.2       16.0     1010.5       25.9       25.4        0.0        0.0        0.0       0.00       18.0       0.00       0.27        0.0
1:44              275        0.0         56       25.5      226.0       25.5       26.3       16.1     1010.5       25.9       25.4        0.0        0.0        0.0       0.00       18.1       0.00       0.27        0.0
1:46              277        0.0         55       25.5      226.0       25.5       26.2       15.8     1010.5       25.9       25.4        0.0        0.0        0.0       0.00       18.4       0.00       0.30        0.0
1:48              277        0.0         55       25.5      226.0       25.5       26.2       15.8     1010.6       25.9       25.4        0.0        0.0        0.0       0.00       18.6       0.00       0.30        0.0
1:50              278        0.0         55       25.5      226.0       25.5       26.2       15.8     1010.6       25.9       25.4        0.0        0.0        0.0       0.00       18.9       0.00       0.30        0.0
1:52              279        0.0         55       25.5      226.0       25.5       26.2       15.8     1010.5       25.9       25.4        0.0        0.0        0.0       0.00       19.2       0.00       0.30        0.0
1:54              280        0.0         55       25.4      226.0       25.4       26.2       15.8     1010.5       25.9       25.4        0.0        0.0        0.0       0.00       19.5       0.00       0.30        0.0
1:56              280        0.0         55       25.4      226.0       25.4       26.2       15.8     1010.5       25.9       25.4        0.0        0.0        0.0       0.00       19.8       0.00       0.30        0.0
1:58              280        0.0         55       25.4      226.0       25.4       26.2       15.8     1010.5       25.9       25.4        0.0        0.0        0.0       0.00       20.1       0.00       0.30        0.0
2:00              280        0.0         55       25.4      226.0       25.4       26.1       15.7     1010.5       25.9       25.4        0.0        0.0        0.0       0.00       20.3       0.00       0.30        0.0
2:02              280        0.0         55       25.4      226.0       25.4       26.1       15.7     1010.5       25.9       25.4        0.0        0.0        0.0       0.00       20.5       0.00       0.34        0.0
2:04              280        0.0         55       25.4      226.0       25.4       26.1       15.7     1010.4       25.9       25.4        0.0        0.0        0.0       0.00       20.8       0.00       0.34        0.0
2:06              279        0.0         55       25.3      226.0       25.3       26.0       15.7     1010.4       25.9       25.3        0.0        0.0        0.0       0.00       21.1       0.00       0.34        0.0
2:08              279        0.0         55       25.3      226.0       25.3       26.0       15.7     1010.5       25.9       25.3        0.0        0.0        0.0       0.00       21.3       0.00       0.34        0.0
2:10              279        0.0         55       25.3      226.0       25.3       26.0       15.7     1010.4       25.9       25.3        0.0        0.0        0.0       0.00       21.6       0.00       0.34        0.0
2:12              279        0.0         55       25.3      226.0       25.3       26.0       15.7     1010.4       25.9       25.3        0.0        0.0        0.0       0.00       21.8       0.00       0.34        0.0
2:14              279        0.0         56       25.3      226.0       25.3       26.1       15.9     1010.5       25.9       25.3        0.0        0.0        0.0       0.00       22.0       0.00       0.34        0.0
2:16              279        0.0         56       25.3      226.0       25.3       26.1       15.9     1010.4       25.9       25.3        0.0        0.0        0.0       0.00       22.2       0.00       0.37        0.0
2:18              279        0.0         56       25.3      226.0       25.3       26.1       15.9     1010.4       25.9       25.3        0.0        0.0        0.0       0.00       22.6       0.00       0.37        0.0
2:20              279        0.0         56       25.2      226.0       25.2       26.0       15.8     1010.4       25.9       25.2        0.0        0.0        0.0       0.00       22.9       0.00       0.37        0.0
2:22              279        0.0         56       25.2      226.0       25.2       26.0       15.8     1010.4       25.9       25.2        0.0        0.0        0.0       0.00       23.1       0.00       0.37        0.0
2:24              279        0.0         56       25.2      226.0       25.2       26.0       15.8     1010.4       25.9       25.2        0.0        0.0        0.0       0.00       23.4       0.00       0.37        0.0
2:26              279        0.0         56       25.2      226.0       25.2       25.9       15.8     1010.4       25.9       25.2        0.0        0.0        0.0       0.00       23.7       0.00       0.37        0.0
2:28              279        0.0         56       25.2      226.0       25.2       25.9       15.8     1010.4       25.9       25.1        0.0        0.0        0.0       0.00       23.9       0.00       0.37        0.0
2:30              279        0.0         56       25.1      226.0       25.1       25.9       15.7     1010.4       25.9       25.1        0.0        0.0        0.0       0.00       24.2       0.00       0.37        0.0
2:32              279        0.0         56       25.1      226.0       25.1       25.9       15.7     1010.4       25.9       25.1        0.0        0.0        0.0       0.00       24.5       0.00       0.41        0.0
2:34              279        0.0         56       25.1      226.0       25.1       25.9       15.7     1010.4       25.9       25.1        0.0        0.0        0.0       0.00       24.8       0.00       0.41        0.0
2:36              279        0.0         56       25.1      226.0       25.1       25.9       15.7     1010.4       25.9       25.1        0.0        0.0        0.0       0.00       25.0       0.00       0.41        0.0
2:38              279        0.0         56       25.1      226.0       25.1       25.8       15.7     1010.4       25.9       25.1        0.0        0.0        0.0       0.00       25.2       0.00       0.41        0.0
2:40              279        0.0         56       25.1      226.0       25.1       25.8       15.7     1010.4       25.9       25.1        0.0        0.0        0.0       0.00       25.4       0.00       0.41        0.0
2:42              279        0.0         56       25.1      226.0       25.1       25.8       15.7     1010.4       25.9       25.1        0.0        0.0        0.0       0.00       25.7       0.00       0.41        0.0
2:44              279        0.0         56       25.1      226.0       25.1       25.8       15.7     1010.4       25.9       25.1        0.0        0.0        0.0       0.00       25.9       0.00       0.41        0.0
2:46              279        0.0         56       25.1      226.0       25.1       25.8       15.7     1010.4       25.9       25.1        0.0        0.0        0.0       0.00       26.1       0.00       0.44        0.0
2:48              279        0.0         56       25.1      226.0       25.1       25.8       15.7     1010.4       25.9       25.1        0.0        0.0        0.0       0.00       26.3       0.00       0.44        0.0
2:50              279        0.0         56       25.0      226.0       25.0       25.8       15.6     1010.4       25.9       25.0        0.0        0.0        0.0       0.00       26.5       0.00       0.44        0.0
2:52              279        0.0         56       25.0      226.0       25.0       25.8       15.6     1010.4       25.9       25.0        0.0        0.0        0.0       0.00       26.8       0.00       0.44        0.0
2:54              279        0.0         56       25.0      226.0       25.0       25.8       15.6     1010.4       25.9       25.0        0.0        0.0        0.0       0.00       27.0       0.00       0.44        0.0
2:56              279        0.0         57       25.0      226.0       25.0       25.8       15.9     1010.4       25.9       25.0        0.0        0.0        0.0       0.00       27.3       0.00       0.44        0.0
2:58              279        0.0         57       25.0      226.0       25.0       25.8       15.9     1010.4       25.9       25.0        0.0        0.0        0.0       0.00       27.5       0.00       0.44        0.0
3:00              279        0.0         57       25.1      226.0       25.1       25.9       16.0     1010.4       25.9       25.0        0.0        0.0        0.0       0.00       27.7       0.00       0.44        0.0
3:02              279        0.0         57       25.1      226.0       25.1       25.9       16.0     1010.3       25.9       25.0        0.0        0.0        0.0       0.00       27.8       0.00       0.47        0.0
3:04              279        0.0         56       25.1      226.0       25.1       25.8       15.7     1010.4       25.9       25.0        0.0        0.0        0.0       0.00       27.9       0.00       0.47        0.0
3:06              279        0.0         56       25.1      226.0       25.1       25.8       15.7     1010.3       25.9       25.0        0.0        0.0        0.0       0.00       28.0       0.00       0.47        0.0
3:08              279        0.0         56       25.0      226.0       25.0       25.8       15.6     1010.3       25.9       25.0        0.0        0.0        0.0       0.00       28.0       0.00       0.47        0.0
3:10              279        0.0         56       25.1      226.0       25.1       25.8       15.7     1010.4       25.9       25.0        0.0        0.0        0.0       0.00       28.0       0.00       0.47        0.0
3:12              279        0.0         56       25.0      226.0       25.0       25.8       15.6     1010.3       25.9       25.0        0.0        0.0        0.0       0.00       28.0       0.00       0.47        0.0
3:14              279        0.0         56       25.0      226.0       25.0       25.8       15.6     1010.4       25.9       25.0        0.0        0.0        0.0       0.00       28.0       0.00       0.47        0.0
3:16              279        0.0         57       25.0      226.0       25.0       25.8       15.9     1010.4       25.9       25.0        0.0        0.0        0.0       0.00       28.0       0.00       0.50        0.0
3:18              279        0.0         57       25.0      226.0       25.0       25.8       15.9     1010.4       25.9       25.0        0.0        0.0        0.0       0.00       28.0       0.00       0.50        0.0
3:20              279        0.0         57       24.9      226.0       24.9       25.8       15.8     1010.4       25.9       24.9        0.0        0.0        0.0       0.00       28.0       0.00       0.50        0.0
3:22              279        0.0         57       24.9      226.0       24.9       25.8       15.8     1010.4       25.9       24.9        0.0        0.0        0.0       0.00       28.0       0.00       0.50        0.0
3:24              279        0.0         57       24.9      226.0       24.9       25.8       15.8     1010.4       25.9       24.9        0.0        0.0        0.0       0.00       28.0       0.00       0.50        0.0
3:26              279        0.0         57       24.9      226.0       24.9       25.7       15.8     1010.4       25.9       24.9        0.0        0.0        0.0       0.00       28.0       0.00       0.50        0.0
3:28              279        0.0         57       24.9      226.0       24.9       25.7       15.8     1010.4       25.9       24.9        0.0        0.0        0.0       0.00       28.0       0.00       0.50        0.0
3:30              279        0.0         58       24.9      226.0       24.9       25.8       16.1     1010.4       25.9       24.9        0.0        0.0        0.0       0.00       28.0       0.00       0.50        0.0
3:32              279        0.0         58       24.9      226.0       24.9       25.8       16.1     1010.5       25.9       24.9        0.0        0.0        0.0       0.00       28.1       0.00       0.53        0.0
3:34              279        0.0         58       24.9      226.0       24.9       25.8       16.1     1010.4       25.9       24.8        0.0        0.0        0.0       0.00       28.1       0.00       0.53        0.0
3:36              279        0.0         58       24.8      226.0       24.8       25.7       16.0     1010.4       25.9       24.8        0.0        0.0        0.0       0.00       28.1       0.00       0.53        0.0
3:38              279        0.0         58       24.8      226.0       24.8       25.7       16.0     1010.4       25.9       24.8        0.0        0.0        0.0       0.00       28.1       0.00       0.53        0.0
3:40              279        0.0         58       24.8      226.0       24.8       25.7       16.0     1010.4       25.9       24.8        0.0        0.0        0.0       0.00       28.1       0.00       0.53        0.0
3:42              279        0.0         59       24.8      226.0       24.8       25.8       16.3     1010.3       25.9       24.8        0.0        0.0        0.0       0.00       28.1       0.00       0.53        0.0
3:44              279        0.0         59       24.8      226.0       24.8       25.7       16.2     1010.4       25.9       24.8        0.0        0.0        0.0       0.00       28.2       0.00       0.53        0.0
3:46              279        0.0         59       24.8      226.0       24.8       25.7       16.2     1010.4       25.9       24.8        0.0        0.0        0.0       0.00       28.2       0.00       0.56        0.0
3:48              279        0.0         59       24.7      226.0       24.7       25.7       16.2     1010.3       25.9       24.7        0.0        0.0        0.0       0.00       28.2       0.00       0.56        0.0
3:50              279        0.0         59       24.7      226.0       24.7       25.7       16.2     1010.3       25.9       24.7        0.0        0.0        0.0       0.00       28.2       0.00       0.56        0.0
3:52              279        0.0         59       24.7      226.0       24.7       25.6       16.1     1010.4       25.9       24.7        0.0        0.0        0.0       0.00       28.2       0.00       0.56        0.0
3:54              279        0.0         59       24.7      226.0       24.7       25.6       16.1     1010.4       25.9       24.7        0.0        0.0        0.0       0.00       28.2       0.00       0.56        0.0
3:56              279        0.0         60       24.7      226.0       24.7       25.7       16.4     1010.4       25.9       24.7        0.0        0.0        0.0       0.00       28.3       0.00       0.56        0.0
3:58              279        0.0         60       24.6      226.0       24.6       25.6       16.3     1010.3       25.9       24.6        0.0        0.0        0.0       0.00       28.3       0.00       0.56        0.0
4:00              279        0.0         60       24.6      226.0       24.6       25.6       16.3     1010.3       25.9       24.6        0.0        0.0        0.0       0.00       28.3       0.00       0.56        0.0
4:02              279        0.0         60       24.6      226.0       24.6       25.6       16.3     1010.3       25.9       24.6        0.0        0.0        0.0       0.00       28.3       0.00       0.59        0.0
4:04              279        0.0         60       24.6      226.0       24.6       25.6       16.3     1010.3       25.9       24.6        0.0        0.0        0.0       0.00       28.4       0.00       0.59        0.0
4:06              279        0.0         60       24.6      226.0       24.6       25.6       16.3     1010.3       25.9       24.6        0.0        0.0        0.0       0.00       28.5       0.00       0.59        0.0
4:08              279        0.0         59       24.6      226.0       24.6       25.6       16.1     1010.3       25.9       24.6        0.0        0.0        0.0       0.00       28.7       0.00       0.59        0.0
4:10              279        0.0         59       24.6      226.0       24.6       25.6       16.1     1010.3       25.9       24.6        0.0        0.0        0.0       0.00       28.9       0.00       0.59        0.0
4:12              279        0.0         59       24.7      226.0       24.7       25.6       16.1     1010.2       25.9       24.6        0.0        0.0        0.0       0.00       29.0       0.00       0.59        0.0
4:13              279        0.0         59       24.7      226.0       24.7       25.6       16.1     1010.3       25.9       24.6        0.0        0.0        0.0       0.00       29.2       0.00       0.59        0.0
4:16              279        0.0         59       24.7      226.0       24.7       25.7       16.2     1010.3       25.9       24.6        0.0        0.0        0.0       0.00       29.4       0.00       0.62        0.0
4:18              279        0.0         59       24.7      226.0       24.7       25.7       16.2     1010.3       25.9       24.6        0.0        0.0        0.0       0.00       29.6       0.00       0.62        0.0
4:20              279        0.0         59       24.7      226.0       24.7       25.7       16.2     1010.3       25.9       24.6        0.0        0.0        0.0       0.00       29.9       0.00       0.62        0.0
4:22              279        0.0         59       24.8      226.0       24.8       25.7       16.2     1010.3       25.9       24.6        0.0        0.0        0.0       0.00       30.1       0.00       0.62        0.0
4:24              279        0.0         59       24.8      226.0       24.8       25.7       16.2     1010.3       25.9       24.6        0.0        0.0        0.0       0.00       30.4       0.00       0.62        0.0
4:26              285        0.0         59       24.8      226.0       24.8       25.7       16.2     1010.3       25.9       24.6        0.0        0.0        0.0       0.00       30.7       0.00       0.62        0.0
4:28              285        0.0         59       24.8      226.0       24.8       25.7       16.2     1010.2       25.9       24.6        0.0        0.0        0.0       0.00       30.9       0.00       0.62        0.0
4:30              285        0.0         59       24.8      226.0       24.8       25.7       16.2     1010.3       25.9       24.6        0.0        0.0        0.0       0.00       31.2       0.00       0.62        0.0
4:32              285        0.0         59       24.8      226.0       24.8       25.7       16.2     1010.2       25.9       24.6        0.0        0.0        0.0       0.00       31.5       0.00       0.64        0.0
4:34              285        0.0         59       24.8      226.0       24.8       25.7       16.2     1010.2       25.9       24.6        0.0        0.0        0.0       0.00       31.9       0.00       0.64        0.0
4:36              287        0.0         59       24.8      226.0       24.8       25.7       16.2     1010.2       25.9       24.6        0.0        0.0        0.0       0.00       32.2       0.00       0.64        0.0
4:38              287        0.0         59       24.8      226.0       24.8       25.7       16.2     1010.3       25.9       24.6        0.0        0.0        0.0       0.00       32.5       0.00       0.64        0.0
4:40              287        0.0         59       24.8      226.0       24.8       25.7       16.2     1010.2       25.9       24.6        0.0        0.0        0.0       0.00       32.8       0.00       0.64        0.0
4:42              287        0.0         59       24.8      226.0       24.8       25.7       16.2     1010.3       25.9       24.6        0.0        0.0        0.0       0.00       33.1       0.00       0.64        0.0
4:44              287        0.0         59       24.8      226.0       24.8       25.7       16.2     1010.3       25.9       24.6        0.0        0.0        0.0       0.00       33.4       0.00       0.64        0.0
4:46              287        0.0         59       24.8      226.0       24.8       25.7       16.2     1010.3       25.9       24.6        0.0        0.0        0.0       0.00       33.7       0.00       0.67        0.0
4:48              287        0.0         59       24.7      226.0       24.7       25.7       16.2     1010.3       25.9       24.6        0.0        0.0        0.0       0.00       33.9       0.00       0.67        0.0
4:50              287        0.0         59       24.7      226.0       24.7       25.7       16.2     1010.4       25.9       24.6        0.0        0.0        0.0       0.00       34.2       0.00       0.67        0.0
4:52              287        0.0         59       24.7      226.0       24.7       25.7       16.2     1010.4       25.9       24.6        0.0        0.0        0.0       0.00       34.5       0.00       0.67        0.0
4:54              287        0.0         59       24.7      226.0       24.7       25.6       16.1     1010.5       25.9       24.6        0.0        0.0        0.0       0.00       34.7       0.00       0.67        0.0
4:56              287        0.0         59       24.7      226.0       24.7       25.6       16.1     1010.4       25.9       24.6        0.0        0.0        0.0       0.00       35.0       0.00       0.67        0.0
4:58              287        0.0         59       24.7      226.0       24.7       25.6       16.1     1010.5       25.9       24.6        0.0        0.0        0.0       0.00       35.2       0.00       0.67        0.0
5:00              287        0.0         59       24.7      226.0       24.7       25.6       16.1     1010.5       25.9       24.6        0.0        0.0        0.0       0.00       35.4       0.00       0.67        0.0
5:02              287        0.0         59       24.7      226.0       24.7       25.6       16.1     1010.6       25.9       24.6        0.0        0.0        0.0       0.00       35.5       0.00       0.70        0.0
5:04              287        0.0         59       24.6      226.0       24.6       25.6       16.1     1010.6       25.9       24.6        0.0        0.0        0.0       0.00       35.6       0.00       0.70        0.0
5:06              287        0.0         59       24.6      226.0       24.6       25.6       16.1     1010.7       25.9       24.6        0.0        0.0        0.0       0.00       35.8       0.00       0.70        0.0
5:08              287        0.0         59       24.6      226.0       24.6       25.6       16.1     1010.7       25.9       24.6        0.0        0.0        0.0       0.00       35.8       0.00       0.70        0.0
5:10              287        0.0         60       24.6      226.0       24.6       25.6       16.3     1010.8       25.9       24.6        0.0        0.0        0.0       0.00       36.0       0.00       0.70        0.0
5:12              287        0.0         60       24.6      226.0       24.6       25.6       16.3     1010.7       25.9       24.6        0.0        0.0        0.0       0.00       36.0       0.00       0.70        0.0
5:14              287        0.0         60       24.6      226.0       24.6       25.6       16.3     1010.8       25.9       24.6        0.0        0.0        0.0       0.00       36.1       0.00       0.70        0.0
5:16              287        0.0         60       24.6      226.0       24.6       25.6       16.3     1010.9       25.9       24.6        0.0        0.0        0.0       0.00       36.1       0.00       0.73        0.0
5:18              287        0.0         60       24.5      226.0       24.5       25.5       16.2     1010.9       25.9       24.5        0.0        0.0        0.0       0.00       36.1       0.00       0.73        0.0
5:20              287        0.0         60       24.5      226.0       24.5       25.5       16.2     1010.9       25.9       24.5        0.0        0.0        0.0       0.00       36.2       0.00       0.73        0.0
5:22              287        0.0         60       24.5      226.0       24.5       25.5       16.2     1010.9       25.9       24.5        0.0        0.0        0.0       0.00       36.3       0.00       0.73        0.0
5:24              287        0.0         60       24.4      226.0       24.4       25.4       16.2     1010.9       25.9       24.4        0.0        0.0        0.0       0.00       36.3       0.00       0.73        0.0
5:26              287        0.0         60       24.4      226.0       24.4       25.4       16.2     1010.8       25.9       24.4        0.0        0.0        0.0       0.00       36.3       0.00       0.73        0.0
5:28              287        0.0         61       24.4      226.0       24.4       25.5       16.4     1010.9       25.9       24.4        0.0        0.0        0.0       0.00       36.3       0.00       0.73        0.0
5:30              287        0.0         60       24.4      226.0       24.4       25.4       16.1     1010.9       25.9       24.4        0.0        0.0        0.0       0.00       36.3       0.00       0.73        0.0
5:32              287        0.0         60       24.4      226.0       24.4       25.4       16.1     1010.9       25.9       24.4        0.0        0.0        0.0       0.00       36.4       0.00       0.75        0.0
5:34              288        0.0         60       24.4      226.0       24.4       25.4       16.1     1010.9       25.9       24.4        0.0        0.0        0.0       0.00       36.4       0.00       0.75        0.0
5:36              287        0.0         61       24.3      226.0       24.3       25.4       16.3     1010.9       25.9       24.3        0.0        0.0        0.0       0.00       36.5       0.00       0.75        0.0
5:38              287        0.0         61       24.3      226.0       24.3       25.4       16.3     1010.9       25.9       24.3        0.0        0.0        0.0       0.00       36.5       0.00       0.75        0.0
5:40              287        0.0         61       24.3      226.0       24.3       25.4       16.3     1010.9       25.9       24.3        0.0        0.0        0.0       0.00       36.5       0.00       0.75        0.0
5:42              287        0.0         61       24.3      226.0       24.3       25.3       16.3     1010.9       25.9       24.3        0.0        0.0        0.0       0.00       36.5       0.00       0.75        0.0
5:44              287        0.0         61       24.3      226.0       24.3       25.3       16.3     1010.9       25.9       24.3        0.0        0.0        0.0       0.00       36.5       0.00       0.75        0.0
5:46              287        0.0         61       24.3      226.0       24.3       25.3       16.3     1010.9       25.9       24.3        0.0        0.0        0.0       0.00       36.6       0.00       0.78        0.0
5:48              287        0.0         61       24.3      226.0       24.3       25.3       16.3     1010.9       25.9       24.2        0.0        0.0        0.0       0.00       36.6       0.00       0.78        0.0
5:50              287        0.0         61       24.2      226.0       24.2       25.3       16.2     1010.9       25.9       24.2        0.0        0.0        0.0       0.00       36.7       0.00       0.78        0.0
5:52              287        0.0         61       24.2      226.0       24.2       25.3       16.2     1010.9       25.9       24.2        0.0        0.0        0.0       0.00       36.8       0.00       0.78        0.0
5:54              287        0.0         61       24.2      226.0       24.2       25.3       16.2     1010.9       25.9       24.2        0.0        0.0        0.0       0.00       36.8       0.00       0.78        0.0
5:56              287        0.0         61       24.2      226.0       24.2       25.3       16.2     1010.9       25.9       24.2        0.0        0.0        0.0       0.00       36.8       0.00       0.78        0.0
5:58              287        0.0         62       24.2      226.0       24.2       25.3       16.5     1010.9       25.9       24.2        0.0        0.0        0.0       0.00       36.8       0.00       0.78        0.0
6:00              287        0.0         62       24.2      226.0       24.2       25.3       16.5     1010.9       25.9       24.2        0.0        0.0        0.0       0.00       36.8       0.00       0.78        0.0
6:02              287        0.0         62       24.2      226.0       24.2       25.3       16.5     1011.0       25.9       24.2        0.0        0.0        0.0       0.00       36.9       0.00       0.80        0.0
6:04              287        0.0         62       24.2      226.0       24.2       25.3       16.5     1010.9       25.9       24.2        0.0        0.0        0.0       0.00       36.9       0.00       0.80        0.0
6:06              287        0.0         62       24.2      226.0       24.2       25.3       16.5     1010.9       25.9       24.2        0.0        0.0        0.0       0.00       36.9       0.00       0.80        0.0
6:08              287        0.0         62       24.2      226.0       24.2       25.3       16.5     1010.9       25.9       24.2        0.0        0.0        0.0       0.00       37.0       0.00       0.80        0.0
6:10              287        0.0         62       24.2      226.0       24.2       25.3       16.5     1010.9       25.9       24.2        0.0        0.0        0.0       0.00       37.0       0.00       0.80        0.0
6:12              287        0.0         62       24.2      226.0       24.2       25.3       16.5     1011.0       25.9       24.2        0.0        0.0        0.0       0.00       37.2       0.00       0.80        0.0
6:14              287        0.0         62       24.2      226.0       24.2       25.3       16.5     1011.0       25.9       24.2        0.0        0.0        0.0       0.00       37.3       0.00       0.80        0.0
6:16              287        0.0         62       24.2      226.0       24.2       25.3       16.5     1011.0       25.9       24.2        0.0        0.0        0.0       0.00       37.3       0.00       0.82        0.0
6:18              287        0.0         62       24.2      226.0       24.2       25.3       16.5     1010.9       25.9       24.2        0.0        0.0        0.0       0.00       37.4       0.00       0.82        0.0
6:20              287        0.0         62       24.2      226.0       24.2       25.3       16.5     1011.0       25.9       24.2        0.0        0.0        0.0       0.00       37.6       0.00       0.82        0.0
6:22              287        0.0         62       24.2      226.0       24.2       25.3       16.5     1011.0       25.9       24.2        0.0        0.0        0.0       0.00       37.7       0.00       0.82        0.0
6:24              287        0.0         63       24.2      226.0       24.2       25.4       16.7     1011.0       25.9       24.2        0.0        0.0        0.0       0.00       37.7       0.00       0.82        0.0
6:26              287        0.0         63       24.2      226.0       24.2       25.4       16.7     1010.9       25.9       24.2        0.0        0.0        0.0       0.00       37.8       0.00       0.82        0.0
6:28              287        0.0         63       24.2      226.0       24.2       25.4       16.7     1011.0       25.9       24.2        0.0        0.0        0.0       0.00       37.9       0.00       0.82        0.0
6:30              287        0.0         63       24.3      226.0       24.3       25.5       16.8     1011.0       25.9       24.2        0.0        0.0        0.0       0.00       38.0       0.00       0.82        0.0
6:32              287        0.0         63       24.3      226.0       24.3       25.5       16.8     1011.0       25.9       24.2        0.0        0.0        0.0       0.00       38.1       0.00       0.85        0.0
6:34              287        0.0         63       24.3      226.0       24.3       25.5       16.8     1011.0       25.9       24.2        0.0        0.0        0.0       0.00       38.2       0.00       0.85        0.0
6:36              287        0.0         63       24.3      226.0       24.3       25.5       16.8     1011.0       25.9       24.2        0.0        0.0        0.0       0.00       38.4       0.00       0.85        0.0
6:38              287        0.0         63       24.3      226.0       24.3       25.5       16.8     1011.0       25.9       24.2        0.0        0.0        0.0       0.00       38.5       0.00       0.85        0.0
6:39              287        0.0         63       24.3      226.0       24.3       25.5       16.8     1011.1       25.9       24.2        0.0        0.0        0.0       0.00       38.6       0.00       0.85        0.0
6:42              287        0.0         64       24.3      226.0       24.3       25.6       17.1     1011.1       25.9       24.2        0.0        0.0        0.0       0.00       39.0       0.00       0.85        0.0
6:44              287        0.0         63       24.3      226.0       24.3       25.5       16.8     1011.1       25.9       24.2        0.0        0.0        0.0       0.00       39.2       0.00       0.85        0.0
6:46              287        0.0         63       24.3      226.0       24.3       25.5       16.8     1011.2       25.9       24.2        0.0        0.0        0.0       0.00       39.3       0.00       0.87        0.0
6:48              287        0.0         64       24.3      226.0       24.3       25.6       17.1     1011.0       25.9       24.2        0.0        0.0        0.0       0.00       39.5       0.00       0.87        0.0
6:50              287        0.0         64       24.4      226.0       24.4       25.6       17.1     1011.1       25.9       24.2        0.0        0.0        0.0       0.00       39.6       0.00       0.87        0.0
6:52              287        0.0         64       24.4      226.0       24.4       25.6       17.1     1011.2       25.9       24.2        0.0        0.0        0.0       0.00       39.7       0.00       0.87        0.0
6:54              287        0.0         64       24.4      226.0       24.4       25.7       17.2     1011.3       25.9       24.2        0.0        0.0        0.0       0.00       40.1       0.00       0.87        0.0
6:56              287        0.0         65       24.4      226.0       24.4       25.8       17.4     1011.1       25.9       24.2        0.0        0.0        0.0       0.00       40.4       0.00       0.87        0.0
6:58              287        0.0         65       24.4      226.0       24.4       25.8       17.4     1011.2       25.9       24.2        0.0        0.0        0.0       0.00       40.7       0.00       0.87        0.0
7:00              287        0.0         65       24.4      226.0       24.4       25.8       17.4     1011.3       25.9       24.2        0.0        0.0        0.0       0.00       41.0       0.00       0.87        0.0
7:02              287        0.0         65       24.4      226.0       24.4       25.8       17.4     1011.3       25.9       24.2        0.0        0.0        0.0       0.00       41.3       0.00       0.90        0.0
7:04              287        0.0         65       24.4      226.0       24.4       25.8       17.4     1011.3       25.9       24.2        0.0        0.0        0.0       0.00       41.4       0.00       0.90        0.0
7:06              287        0.0         65       24.5      226.0       24.5       25.8       17.5     1011.2       25.9       24.2        0.0        0.0        0.0       0.00       41.6       0.00       0.90        0.0
7:08              287        0.0         65       24.5      226.0       24.5       25.8       17.5     1011.3       25.9       24.2        0.0        0.0        0.0       0.00       41.7       0.00       0.90        0.0
7:10              287        0.0         64       24.6      226.0       24.6       25.8       17.3     1011.3       25.9       24.2        0.0        0.0        0.0       0.00       41.9       0.00       0.90        0.0
7:12              287        0.0         64       24.6      226.0       24.6       25.8       17.3     1011.4       25.9       24.2        0.0        0.0        0.0       0.00       42.0       0.00       0.90        0.0
7:14              287        0.0         64       24.6      226.0       24.6       25.9       17.4     1011.4       25.9       24.2        0.0        0.0        0.0       0.00       42.2       0.00       0.90        0.0
7:16              287        0.0         65       24.6      226.0       24.6       25.9       17.6     1011.5       25.9       24.2        0.0        0.0        0.0       0.00       42.5       0.00       0.92        0.0
7:18              287        0.0         64       24.6      226.0       24.6       25.9       17.4     1011.4       25.9       24.2        0.0        0.0        0.0       0.00       42.7       0.00       0.92        0.0
7:20              287        0.0         65       24.7      226.0       24.7       26.0       17.7     1011.4       25.9       24.2        0.0        0.0        0.0       0.00       42.7       0.00       0.92        0.0
7:22              287        0.0         64       24.7      226.0       24.7       26.0       17.5     1011.5       25.9       24.2        0.0        0.0        0.0       0.00       42.8       0.00       0.92        0.0
7:24              287        0.0         64       24.7      226.0       24.7       26.0       17.5     1011.5       25.9       24.2        0.0        0.0        0.0       0.00       42.8       0.00       0.92        0.0
7:26              287        0.0         64       24.8      226.0       24.8       26.1       17.6     1011.5       25.9       24.2        0.0        0.0        0.0       0.00       42.8       0.00       0.92        0.0
7:28              287        0.0         64       24.9      226.0       24.9       26.1       17.6     1011.5       25.9       24.2        0.0        0.0        0.0       0.00       42.9       0.00       0.92        0.0
7:30              287        0.0         64       25.1      226.0       25.1       26.3       17.8     1011.6       25.9       24.2        0.0        0.0        0.0       0.00       43.0       0.00       0.92        0.0
7:32              287        0.0         64       25.1      226.0       25.1       26.4       17.8     1011.6       25.9       24.2        0.0        0.0        0.0       0.00       43.2       0.00       0.96        0.0
7:34              287        0.0         63       25.2      226.0       25.2       26.4       17.6     1011.7       25.9       24.2        0.0        0.0        0.0       0.00       43.5       0.00       0.96        0.0
7:36              287        0.0         63       25.2      226.0       25.2       26.4       17.6     1011.7       25.9       24.2        0.0        0.0        0.0       0.00       43.6       0.00       0.96        0.0
7:38              287        0.0         63       25.2      226.0       25.2       26.4       17.6     1011.7       25.9       24.2        0.0        0.0        0.0       0.00       43.9       0.00       0.96        0.0
7:40              287        0.0         63       25.2      226.0       25.2       26.4       17.7     1011.8       25.9       24.2        0.0        0.0        0.0       0.00       44.1       0.00       0.96        0.0
7:42              287        0.0         63       25.2      226.0       25.2       26.4       17.7     1011.8       25.9       24.2        0.0        0.0        0.0       0.00       44.3       0.00       0.96        0.0
7:44              287        0.0         63       25.2      226.0       25.2       26.4       17.7     1011.8       25.9       24.2        0.0        0.0        0.0       0.00       44.5       0.00       0.96        0.0
7:46              288        0.0         63       25.2      226.0       25.2       26.4       17.7     1011.8       25.9       24.2        0.0        0.0        0.0       0.00       44.7       0.00       0.99        0.0
7:47              287        0.0         63       25.3      226.0       25.3       26.5       17.7     1011.8       25.9       24.2        0.0        0.0        0.0       0.00       44.7       0.00       0.99        0.0
7:50              287        0.0         63       25.3      226.0       25.3       26.5       17.8     1011.8       25.9       24.2        0.0        0.0        0.0       0.00       44.9       0.00       0.99        0.0
7:52              287        0.0         63       25.3      226.0       25.3       26.5       17.8     1011.8       25.9       24.2        0.0        0.0        0.0       0.00       45.2       0.00       0.99        0.0
7:54              287        0.0         63       25.4      226.0       25.4       26.6       17.8     1011.8       25.9       24.2        0.0        0.0        0.0       0.00       45.2       0.00       0.99        0.0
7:56              287        0.0         63       25.4      226.0       25.4       26.6       17.9     1011.8       25.9       24.2        0.0        0.0        0.0       0.00       45.4       0.00       0.99        0.0
7:58              287        0.0         63       25.5      226.0       25.5       26.7       17.9     1011.8       25.9       24.2        0.0        0.0        0.0       0.00       45.4       0.00       0.99        0.0
8:00              287        0.0         63       25.6      226.0       25.6       26.7       18.0     1011.8       25.9       24.2        0.0        0.0        0.0       0.00       45.5       0.00       0.99        0.0
8:02              287        0.0         63       25.6      226.0       25.6       26.8       18.1     1011.8       25.9       24.2        0.0        0.0        0.0       0.00       45.5       0.00       1.03        0.0
8:04              287        0.0         63       25.7      226.0       25.7       26.9       18.1     1011.8       25.9       24.2        0.0        0.0        0.0       0.00       45.7       0.00       1.03        0.0
8:06              287        0.0         63       25.7      226.0       25.7       26.9       18.2     1011.8       25.9       24.2        0.0        0.0        0.0       0.00       45.9       0.00       1.03        0.0
8:08              287        0.0         63       25.8      226.0       25.8       27.0       18.3     1011.8       25.9       24.2        0.0        0.0        0.0       0.00       46.0       0.00       1.03        0.0
8:10              287        0.0         62       25.9      226.0       25.9       27.0       18.1     1011.8       25.9       24.2        0.0        0.0        0.0       0.00       46.0       0.00       1.03        0.0
8:11              287        0.0         62       25.9      226.0       25.9       27.1       18.1     1011.8       25.9       24.2        0.0        0.0        0.0       0.00       46.0       0.00       1.03        0.0
8:14              287        0.0         63       26.1      226.0       26.1       27.3       18.5     1011.8       26.1       24.2        0.0        0.0        0.0       0.00       46.0       0.00       1.03        0.0
8:16              287        0.0         62       26.2      226.0       26.2       27.3       18.4     1011.8       26.2       24.2        0.0        0.0        0.0       0.00       46.1       0.00       1.07        0.0
8:18              287        0.0         62       26.3      226.0       26.3       27.4       18.4     1011.8       26.3       24.2        0.0        0.0        0.0       0.00       46.2       0.00       1.07        0.0
8:20              287        0.0         62       26.4      226.0       26.4       27.5       18.5     1011.8       26.4       24.2        0.0        0.0        0.0       0.00       46.2       0.00       1.07        0.0
8:22              287        0.0         62       26.5      226.0       26.5       27.6       18.6     1011.8       26.5       24.2        0.0        0.0        0.0       0.00       46.3       0.00       1.07        0.0
8:24              287        0.0         61       26.6      226.0       26.6       27.6       18.4     1011.8       26.6       24.2        0.0        0.0        0.0       0.00       46.4       0.00       1.07        0.0
8:26              287        0.0         61       26.6      226.0       26.6       27.7       18.5     1011.8       26.6       24.2        0.0        0.0        0.0       0.00       46.6       0.00       1.07        0.0
8:28              287        0.0         60       26.7      226.0       26.7       27.7       18.3     1011.8       26.7       24.2        0.0        0.0        0.0       0.00       46.8       0.00       1.07        0.0
8:30              287        0.0         60       26.7      226.0       26.7       27.7       18.3     1011.8       26.7       24.2        0.0        0.0        0.0       0.00       47.1       0.00       1.07        0.0
8:32              287        0.0         60       26.7      226.0       26.7       27.7       18.3     1011.8       26.7       24.2        0.0        0.0        0.0       0.00       47.2       0.00       1.12        0.0
8:34              287        0.0         60       26.7      226.0       26.7       27.7       18.3     1011.8       26.7       24.2        0.0        0.0        0.0       0.00       47.5       0.00       1.12        0.0
8:36              287        0.0         60       26.8      226.0       26.8       27.8       18.4     1011.9       26.8       24.2        0.0        0.0        0.0       0.00       47.6       0.00       1.12        0.0
8:38              287        0.0         59       26.8      226.0       26.8       27.8       18.2     1011.8       26.8       24.2        0.0        0.0        0.0       0.00       47.8       0.00       1.12        0.0
8:40              287        0.0         59       26.9      226.0       26.9       27.9       18.2     1011.8       26.9       24.2        0.0        0.0        0.0       0.00       47.9       0.00       1.12        0.0
8:42              287        0.0         59       26.9      226.0       26.9       27.9       18.3     1011.8       26.9       24.2        0.0        0.0        0.0       0.00       48.0       0.00       1.12        0.0
8:44              287        0.0         58       27.0      226.0       27.0       27.9       18.0     1011.8       27.0       24.2        0.0        0.0        0.0       0.00       48.2       0.00       1.12        0.0
8:46              287        0.0         58       27.1      226.0       27.1       28.1       18.1     1011.8       27.1       24.2        0.0        0.0        0.0       0.00       48.2       0.00       1.17        0.0
8:48              287        0.0         58       27.2      226.0       27.2       28.2       18.2     1011.9       27.2       24.2        0.0        0.0        0.0       0.00       48.3       0.00       1.17        0.0
8:50              287        0.0         58       27.3      226.0       27.3       28.3       18.4     1011.8       27.3       24.2        0.0        0.0        0.0       0.00       48.7       0.00       1.17        0.0
8:52              287        0.0         58       27.4      226.0       27.4       28.4       18.4     1011.8       27.4       24.2        0.0        0.0        0.0       0.00       48.8       0.00       1.17        0.0
8:54              287        0.0         58       27.4      226.0       27.4       28.5       18.5     1011.9       27.4       24.2        0.0        0.0        0.0       0.00       48.8       0.00       1.17        0.0
8:56              287        0.0         58       27.5      226.0       27.5       28.6       18.5     1011.8       27.5       24.2        0.0        0.0        0.0       0.00       48.9       0.00       1.17        0.0
8:58              287        0.0         57       27.6      226.0       27.6       28.5       18.3     1011.8       27.6       24.2        0.0        0.0        0.0       0.00       49.0       0.00       1.17        0.0
9:00              287        0.0         58       27.6      226.0       27.6       28.7       18.6     1011.8       27.6       24.2        0.0        0.0        0.0       0.00       49.1       0.00       1.17        0.0
9:02              287        0.0         57       27.7      226.0       27.7       28.7       18.4     1011.8       27.7       24.2        0.0        0.0        0.0       0.00       49.2       0.00       1.23        0.0
9:04              287        0.0         57       27.7      226.0       27.7       28.7       18.4     1011.8       27.7       24.2        0.0        0.0        0.0       0.00       49.5       0.00       1.23        0.0
9:06              287        0.0         57       27.7      226.0       27.7       28.7       18.4     1011.8       27.7       24.2        0.0        0.0        0.0       0.00       49.6       0.00       1.23        0.0
9:08              287        0.0         57       27.6      226.0       27.6       28.6       18.3     1011.8       27.7       24.2        0.0        0.0        0.0       0.00       49.7       0.00       1.23        0.0
9:10              287        0.0         56       27.7      226.0       27.7       28.6       18.1     1011.8       27.7       24.2        0.0        0.0        0.0       0.00       49.7       0.00       1.23        0.0
9:12              287        0.0         56       27.7      226.0       27.7       28.7       18.2     1011.9       27.7       24.2        0.0        0.0        0.0       0.00       49.7       0.00       1.23        0.0
9:14              287        0.0         56       27.8      226.0       27.8       28.8       18.3     1011.8       27.8       24.2        0.0        0.0        0.0       0.00       49.9       0.00       1.23        0.0
9:16              287        0.0         56       27.9      226.0       27.9       28.9       18.3     1011.8       27.9       24.2        0.0        0.0        0.0       0.00       50.1       0.00       1.29        0.0
9:18              287        0.0         56       28.0      226.0       28.0       29.0       18.4     1011.8       28.0       24.2        0.0        0.0        0.0       0.00       50.3       0.00       1.29        0.0
9:20              287        0.0         55       28.1      226.0       28.1       29.0       18.2     1011.9       28.1       24.2        0.0        0.0        0.0       0.00       50.6       0.00       1.29        0.0
9:22              287        0.0         55       28.1      226.0       28.1       29.0       18.2     1011.9       28.1       24.2        0.0        0.0        0.0       0.00       50.8       0.00       1.29        0.0
9:24              287        0.0         55       28.2      226.0       28.2       29.1       18.3     1011.9       28.2       24.2        0.0        0.0        0.0       0.00       50.9       0.00       1.29        0.0
9:26              287        0.0         54       28.3      226.0       28.3       29.2       18.1     1011.9       28.3       24.2        0.0        0.0        0.0       0.00       51.0       0.00       1.29        0.0
9:28              287        0.0         53       28.4      226.0       28.4       29.2       17.9     1011.9       28.4       24.2        0.0        0.0        0.0       0.00       51.1       0.00       1.29        0.0
9:30              287        0.0         53       28.4      226.0       28.4       29.2       17.9     1011.9       28.4       24.2        0.0        0.0        0.0       0.00       51.2       0.00       1.29        0.0
9:32              287        0.0         53       28.5      226.0       28.5       29.4       18.0     1011.9       28.5       24.2        0.0        0.0        0.0       0.00       51.3       0.00       1.36        0.0
9:34              287        0.0         53       28.6      226.0       28.6       29.4       18.1     1011.9       28.6       24.2        0.0        0.0        0.0       0.00       51.3       0.00       1.36        0.0
9:36              287        0.0         53       28.7      226.0       28.7       29.6       18.2     1011.9       28.7       24.2        0.0        0.0        0.0       0.00       51.3       0.00       1.36        0.0
9:38              287        0.0         53       28.8      226.0       28.8       29.7       18.3     1011.9       28.8       24.2        0.0        0.0        0.0       0.00       51.3       0.00       1.36        0.0
9:40              287        0.0         53       28.9      226.0       28.9       29.9       18.4     1011.9       28.9       24.2        0.0        0.0        0.0       0.00       51.5       0.00       1.36        0.0
9:42              287        0.0         53       29.1      226.0       29.1       30.1       18.5     1011.9       29.1       24.2        0.0        0.0        0.0       0.00       51.6       0.00       1.36        0.0
9:44              287        0.0         52       29.2      226.0       29.2       30.2       18.4     1011.9       29.2       24.2        0.0        0.0        0.0       0.00       51.7       0.00       1.36        0.0
9:46              287        0.0         52       29.4      226.0       29.4       30.5       18.5     1011.9       29.4       24.2        0.0        0.0        0.0       0.00       52.0       0.00       1.43        0.0
9:48              287        0.0         51       29.5      226.0       29.5       30.5       18.3     1011.9       29.5       24.2        0.0        0.0        0.0       0.00       52.2       0.00       1.43        0.0
9:50              287        0.0         51       29.6      226.0       29.6       30.6       18.4     1011.8       29.6       24.2        0.0        0.0        0.0       0.00       52.4       0.00       1.43        0.0
9:52              287        0.0         51       29.6      226.0       29.6       30.6       18.4     1011.9       29.6       24.2        0.0        0.0        0.0       0.00       52.4       0.00       1.43        0.0
9:54              287        0.0         51       29.7      226.0       29.7       30.8       18.5     1011.9       29.7       24.2        0.0        0.0        0.0       0.00       52.4       0.00       1.43        0.0
9:56              287        0.0         51       29.8      226.0       29.8       30.9       18.6     1011.9       29.8       24.2        0.0        0.0        0.0       0.00       52.5       0.00       1.43        0.0
9:58              287        0.0         51       29.8      226.0       29.8       30.9       18.6     1011.9       29.8       24.2        0.0        0.0        0.0       0.00       52.5       0.00       1.43        0.0
10:00             287        0.0         50       29.8      226.0       29.8       30.8       18.3     1011.9       29.8       24.2        0.0        0.0        0.0       0.00       52.6       0.00       1.43        0.0
10:01             287        0.0         50       29.9      226.0       29.9       31.0       18.4     1011.9       29.9       24.2        0.0        0.0        0.0       0.00       52.8       0.00       1.51        0.0
10:04             277        0.0         49       30.1      226.0       30.1       31.0       18.2     1011.9       30.1       24.2        0.0        0.0        0.0       0.00       53.1       0.00       1.51        0.0
10:06             272        0.0         48       30.2      226.0       30.2       31.0       18.0     1011.9       30.2       24.2        0.0        0.0        0.0       0.00       53.4       0.00       1.51        0.0
10:07             269        0.0         48       30.3      226.0       30.3       31.2       18.1     1011.9       30.3       24.2        0.0        0.0        0.0       0.00       53.6       0.00       1.51        0.0
10:10             269        0.0         47       30.4      226.0       30.4       31.2       17.9     1011.9       30.4       24.2        0.0        0.0        0.0       0.00       53.8       0.00       1.51        0.0
10:12             269        0.0         47       30.5      226.0       30.5       31.3       17.9     1011.9       30.5       24.2        0.0        0.0        0.0       0.00       54.0       0.00       1.51        0.0
10:14             269        0.0         46       30.6      226.0       30.6       31.2       17.6     1011.9       30.6       24.2        0.0        0.0        0.0       0.00       54.2       0.00       1.51        0.0
10:15             269        0.0         46       30.7      226.0       30.7       31.4       17.7     1011.9       30.7       24.2        0.0        0.0        0.0       0.00       54.3       0.00       1.60        0.0
10:18             269        0.0         46       30.8      226.0       30.8       31.5       17.8     1011.9       30.8       24.2        0.0        0.0        0.0       0.00       54.5       0.00       1.60        0.0
10:20             269        0.0         46       30.8      226.0       30.8       31.6       17.9     1011.9       30.8       24.2        0.0        0.0        0.0       0.00       54.7       0.00       1.60        0.0
10:22             268        0.0         46       30.9      226.0       30.9       31.7       17.9     1011.9       30.9       24.2        0.0        0.0        0.0       0.00       55.2       0.00       1.60        0.0
10:24             267        0.0         46       30.9      226.0       30.9       31.8       18.0     1011.9       30.9       24.2        0.0        0.0        0.0       0.00       55.3       0.00       1.60        0.0
10:26             267        0.0         46       31.1      226.0       31.1       32.0       18.1     1011.9       31.1       24.2        0.0        0.0        0.0       0.00       55.3       0.00       1.60        0.0
10:28             267        0.0         46       31.1      226.0       31.1       32.0       18.1     1011.9       31.1       24.2        0.0        0.0        0.0       0.00       55.5       0.00       1.60        0.0
10:30             265        0.0         44       31.1      226.0       31.1       31.7       17.4     1011.9       31.1       24.2        0.0        0.0        0.0       0.00       55.9       0.00       1.60        0.0
10:32             262        0.0         44       31.2      226.0       31.2       31.8       17.5     1011.9       31.2       24.2        0.0        0.0        0.0       0.00       56.2       0.00       1.70        0.0
10:34             262        0.0         44       31.2      226.0       31.2       31.8       17.5     1011.8       31.2       24.2        0.0        0.0        0.0       0.00       56.3       0.00       1.70        0.0
10:36             253        0.0         44       31.2      226.0       31.2       31.9       17.5     1011.9       31.2       24.2        0.0        0.0        0.0       0.00       56.6       0.00       1.70        0.0
10:38             245        0.0         44       31.2      226.0       31.2       31.9       17.5     1012.0       31.2       24.2        0.0        0.0        0.0       0.00       57.0       0.00       1.70        0.0
10:40             245        0.0         44       31.2      226.0       31.2       31.9       17.5     1011.9       31.2       24.2        0.0        0.0        0.0       0.00       57.2       0.00       1.70        0.0
10:42             245        0.0         44       31.2      226.0       31.2       31.9       17.5     1011.8       31.2       24.2        0.0        0.0        0.0       0.00       57.4       0.00       1.70        0.0
10:44             219        0.0         44       31.3      226.0       31.3       31.9       17.6     1011.9       31.3       24.2        0.0        0.0        0.0       0.00       57.8       0.00       1.70        0.0
10:46             196        0.0         44       31.3      226.0       31.3       32.0       17.6     1011.8       31.3       24.2        0.0        0.0        0.0       0.00       58.2       0.00       1.80        0.0
10:48             196        0.0         45       31.4      226.0       31.4       32.3       18.0     1011.9       31.4       24.2        0.0        0.0        0.0       0.00       58.4       0.00       1.80        0.0
10:50             203        0.0         44       31.4      226.0       31.4       32.2       17.7     1011.8       31.4       24.2        0.0        0.0        0.0       0.00       58.8       0.00       1.80        0.0
10:52             190        0.0         43       31.4      226.0       31.4       32.0       17.4     1011.9       31.4       24.2        0.0        0.0        0.0       0.00       59.4       0.00       1.80        0.0
10:54             200        0.0         43       31.5      226.0       31.5       32.1       17.4     1011.9       31.5       24.2        0.0        0.0        0.0       0.00       60.1       0.00       1.80        0.0
10:56             201        0.0         44       31.5      226.0       31.5       32.3       17.8     1011.9       31.5       24.2        0.0        0.0        0.0       0.00       60.7       0.00       1.80        0.0
10:58             195        0.0         43       31.5      226.0       31.5       32.1       17.4     1011.9       31.5       24.2        0.0        0.0        0.0       0.00       61.0       0.00       1.80        0.0
11:00             165        0.0         43       31.6      226.0       31.6       32.2       17.5     1011.9       31.6       24.2        0.0        0.0        0.0       0.00       61.7       0.00       1.80        0.0
11:02             164        0.0         43       31.6      226.0       31.6       32.2       17.5     1011.8       31.6       24.2        0.0        0.0        0.0       0.00       62.0       0.00       1.90        0.0
11:04             169        0.0         42       31.7      226.0       31.7       32.2       17.2     1012.0       31.7       24.2        0.0        0.0        0.0       0.00       62.4       0.00       1.90        0.0
11:06             181        0.0         42       31.7      226.0       31.7       32.2       17.2     1011.9       31.7       24.2        0.0        0.0        0.0       0.00       63.0       0.00       1.90        0.0
11:08             161        0.0         42       31.8      226.0       31.8       32.3       17.3     1011.9       31.8       24.2        0.0        0.0        0.0       0.00       63.4       0.00       1.90        0.0
11:10             177        0.0         42       31.8      226.0       31.8       32.4       17.3     1011.8       31.8       24.2        0.0        0.0        0.0       0.00       64.1       0.00       1.90        0.0
11:12             194        0.0         42       31.9      226.0       31.9       32.6       17.4     1011.9       31.9       24.2        0.0        0.0        0.0       0.00       64.9       0.00       1.90        0.0
11:14             213        0.0         42       31.9      226.0       31.9       32.6       17.4     1011.9       31.9       24.2        0.0        0.0        0.0       0.00       65.8       0.00       1.90        0.0
11:16             213        0.0         41       31.9      226.0       31.9       32.4       17.1     1011.8       31.9       24.2        0.0        0.0        0.0       0.00       66.0       0.00       2.00        0.0
11:18             213        0.0         41       31.9      226.0       31.9       32.3       17.0     1011.8       31.9       24.2        0.0        0.0        0.0       0.00       66.2       0.00       2.00        0.0
11:20             204        0.0         42       31.8      226.0       31.8       32.4       17.3     1011.8       31.9       24.2        0.0        0.0        0.0       0.00       66.9       0.00       2.00        0.0
11:22             195        0.0         42       31.8      226.0       31.8       32.3       17.3     1011.8       31.9       24.2        0.0        0.0        0.0       0.00       67.7       0.00       2.00        0.0
11:24             211        0.0         42       31.8      226.0       31.8       32.3       17.3     1011.9       31.9       24.2        0.0        0.0        0.0       0.00       68.4       0.00       2.00        0.0
11:26             202        0.0         42       31.8      226.0       31.8       32.3       17.3     1011.9       31.9       24.2        0.0        0.0        0.0       0.00       69.1       0.00       2.00        0.0
11:28             205        0.0         43       31.7      226.0       31.7       32.4       17.6     1011.9       31.9       24.2        0.0        0.0        0.0       0.00       69.9       0.00       2.00        0.0
11:30             205        0.0         43       31.7      226.0       31.7       32.3       17.6     1011.9       31.9       24.2        0.0        0.0        0.0       0.00       70.3       0.00       2.00        0.0
11:32             207        0.0         43       31.7      226.0       31.7       32.3       17.6     1011.8       31.9       24.2        0.0        0.0        0.0       0.00       70.8       0.00       2.10        0.0
11:34             215        0.0         44       31.7      226.0       31.7       32.5       17.9     1011.7       31.9       24.2        0.0        0.0        0.0       0.00       71.2       0.00       2.10        0.0
11:36             209        0.0         44       31.7      226.0       31.7       32.5       17.9     1011.7       31.9       24.2        0.0        0.0        0.0       0.00       71.5       0.00       2.10        0.0
11:38             177        0.0         45       31.7      226.0       31.7       32.8       18.3     1011.6       31.9       24.2        0.0        0.0        0.0       0.00       72.2       0.00       2.10        0.0
11:40             211        0.0         45       31.8      226.0       31.8       33.0       18.4     1011.9       31.9       24.2        0.0        0.0        0.0       0.00       73.1       0.00       2.10        0.0
11:41             187        0.0         46       31.9      226.0       31.9       33.3       18.8     1011.8       31.9       24.2        0.0        0.0        0.0       0.00       73.6       0.00       2.10        0.0
11:44             196        0.0         46       31.9      226.0       31.9       33.4       18.9     1011.9       31.9       24.2        0.0        0.0        0.0       0.00       74.6       0.00       2.10        0.0
11:46             208        0.0         46       32.0      226.0       32.0       33.5       18.9     1011.9       32.0       24.2        0.0        0.0        0.0       0.00       75.4       0.00       2.20        0.0
11:48             226        0.0         46       31.9      226.0       31.9       33.4       18.9     1011.8       32.0       24.2        0.0        0.0        0.0       0.00       76.3       0.00       2.20        0.0
11:50             209        0.0         46       31.9      226.0       31.9       33.3       18.8     1011.9       32.0       24.2        0.0        0.0        0.0       0.00       77.0       0.00       2.20        0.0
11:52             183        0.0         47       31.9      226.0       31.9       33.5       19.2     1011.8       32.0       24.2        0.0        0.0        0.0       0.00       77.6       0.00       2.20        0.0
11:54             195        0.0         47       31.9      226.0       31.9       33.5       19.2     1011.7       32.0       24.2        0.0        0.0        0.0       0.00       78.2       0.00       2.20        0.0
11:56             202        0.0         47       31.9      226.0       31.9       33.6       19.2     1011.8       32.0       24.2        0.0        0.0        0.0       0.00       79.2       0.00       2.20        0.0
11:58             197        0.0         46       31.9      226.0       31.9       33.4       18.9     1011.8       32.0       24.2        0.0        0.0        0.0       0.00       80.6       0.00       2.20        0.0
12:00             198        0.0         46       32.0      226.0       32.0       33.5       18.9     1011.8       32.0       24.2        0.0        0.0        0.0       0.00       81.6       0.00       2.20        0.0
12:02             175        0.0         47       32.0      226.0       32.0       33.7       19.3     1011.7       32.0       24.2        0.0        0.0        0.0       0.00       82.5       0.00       2.31        0.0
12:04             173        0.0         46       32.1      226.0       32.1       33.6       19.0     1011.6       32.1       24.2        0.0        0.0        0.0       0.00       84.0       0.00       2.31        0.0
12:06             164        0.0         47       32.2      226.0       32.2       34.0       19.4     1011.7       32.2       24.2        0.0        0.0        0.0       0.00       84.7       0.00       2.31        0.0
12:08             187        0.0         47       32.2      226.0       32.2       34.1       19.5     1011.7       32.2       24.2        0.0        0.0        0.0       0.00       85.4       0.00       2.31        0.0
12:10             192        0.0         47       32.3      226.0       32.3       34.2       19.6     1011.6       32.3       24.2        0.0        0.0        0.0       0.00       86.1       0.00       2.31        0.0
12:12             208        0.0         46       32.4      226.0       32.4       34.2       19.3     1011.6       32.4       24.2        0.0        0.0        0.0       0.00       86.6       0.00       2.31        0.0
12:14             188        0.0         46       32.6      226.0       32.6       34.4       19.4     1011.6       32.6       24.2        0.0        0.0        0.0       0.00       87.4       0.00       2.31        0.0
12:16             205        0.0         46       32.6      226.0       32.6       34.5       19.5     1011.6       32.6       24.2        0.0        0.0        0.0       0.00       88.0       0.00       2.42        0.0
12:17             174        0.0         46       32.6      226.0       32.6       34.5       19.5     1011.5       32.6       24.2        0.0        0.0        0.0       0.00       88.8       0.00       2.42        0.0
12:20             202        0.0         45       32.7      226.0       32.7       34.4       19.2     1011.6       32.7       24.2        0.0        0.0        0.0       0.00       90.1       0.00       2.42        0.0
12:22             213        0.0         45       32.6      226.0       32.6       34.3       19.1     1011.5       32.7       24.2        0.0        0.0        0.0       0.00       91.0       0.00       2.42        0.0
12:24             177        0.0         46       32.6      226.0       32.6       34.5       19.5     1011.6       32.7       24.2        0.0        0.0        0.0       0.00       91.7       0.00       2.42        0.0
12:26             214        0.0         46       32.6      226.0       32.6       34.5       19.5     1011.6       32.7       24.2        0.0        0.0        0.0       0.00       92.7       0.00       2.42        0.0
12:28             198        0.0         46       32.7      226.0       32.7       34.6       19.5     1011.6       32.7       24.2        0.0        0.0        0.0       0.00       94.2       0.00       2.42        0.0
12:30             195        0.0         45       32.6      226.0       32.6       34.3       19.1     1011.5       32.7       24.2        0.0        0.0        0.0       0.00       94.9       0.00       2.42        0.0
12:32             200        0.0         45       32.6      226.0       32.6       34.3       19.1     1011.5       32.7       24.2        0.0        0.0        0.0       0.00       95.5       0.00       2.53        0.0
12:34             254        0.0         46       32.6      226.0       32.6       34.5       19.5     1011.5       32.7       24.2        0.0        0.0        0.0       0.00       96.0       0.00       2.53        0.0
12:36             178        0.0         46       32.6      226.0       32.6       34.4       19.4     1011.4       32.7       24.2        0.0        0.0        0.0       0.00       96.6       0.00       2.53        0.0
12:38             189        0.0         46       32.6      226.0       32.6       34.4       19.4     1011.4       32.7       24.2        0.0        0.0        0.0       0.00       97.3       0.00       2.53        0.0
12:40             194        0.0         45       32.7      226.0       32.7       34.4       19.2     1011.4       32.7       24.2        0.0        0.0        0.0       0.00       98.2       0.00       2.53        0.0
12:42             194        0.0         45       32.8      226.0       32.8       34.6       19.3     1011.3       32.8       24.2        0.0        0.0        0.0       0.00       98.4       0.00       2.53        0.0
12:44             184        0.0         44       32.8      226.0       32.8       34.4       19.0     1011.3       32.8       24.2        0.0        0.0        0.0       0.00       98.8       0.00       2.53        0.0
12:46             184        0.0         44       32.9      226.0       32.9       34.5       19.0     1011.2       32.9       24.2        0.0        0.0        0.0       0.00       99.7       0.00       2.64        0.0
12:48             213        0.0         44       32.9      226.0       32.9       34.6       19.1     1011.3       32.9       24.2        0.0        0.0        0.0       0.00      100.7       0.00       2.64        0.0
12:50             205        0.0         44       33.0      226.0       33.0       34.7       19.1     1011.2       33.0       24.2        0.0        0.0        0.0       0.00      101.3       0.00       2.64        0.0
12:52             205        0.0         44       33.0      226.0       33.0       34.7       19.1     1011.2       33.0       24.2        0.0        0.0        0.0       0.00      101.5       0.00       2.64        0.0
12:54             205        0.0         45       33.0      226.0       33.0       34.9       19.5     1011.2       33.0       24.2        0.0        0.0        0.0       0.00      101.5       0.00       2.64        0.0
12:56             207        0.0         44       33.1      226.0       33.1       34.9       19.2     1011.2       33.1       24.2        0.0        0.0        0.0       0.00      101.8       0.00       2.64        0.0
12:58             187        0.0         44       33.2      226.0       33.2       35.0       19.3     1011.2       33.2       24.2        0.0        0.0        0.0       0.00      102.4       0.00       2.64        0.0
13:00             212        0.0         44       33.3      226.0       33.3       35.2       19.4     1011.2       33.3       24.2        0.0        0.0        0.0       0.00      103.1       0.00       2.64        0.0
13:02             209        0.0         43       33.3      226.0       33.3       35.0       19.1     1011.2       33.3       24.2        0.0        0.0        0.0       0.00      103.5       0.00       2.76        0.0
13:04             209        0.0         43       33.4      226.0       33.4       35.1       19.1     1011.2       33.4       24.2        0.0        0.0        0.0       0.00      103.7       0.00       2.76        0.0
13:06             209        0.0         43       33.5      226.0       33.5       35.3       19.2     1011.2       33.5       24.2        0.0        0.0        0.0       0.00      103.9       0.00       2.76        0.0
13:08             191        0.0         44       33.6      226.0       33.6       35.8       19.7     1011.2       33.6       24.2        0.0        0.0        0.0       0.00      104.4       0.00       2.76        0.0
13:10             180        0.0         43       33.8      226.0       33.8       35.8       19.5     1011.1       33.8       24.2        0.0        0.0        0.0       0.00      104.6       0.00       2.76        0.0
13:12             181        0.0         43       33.9      226.0       33.9       36.0       19.6     1011.1       33.9       24.2        0.0        0.0        0.0       0.00      105.0       0.00       2.76        0.0
13:14             184        0.0         42       34.1      226.0       34.1       36.1       19.3     1011.1       34.1       24.2        0.0        0.0        0.0       0.00      105.5       0.00       2.76        0.0
13:16             184        0.0         42       34.2      226.0       34.2       36.4       19.5     1011.1       34.2       24.2        0.0        0.0        0.0       0.00      105.7       0.00       2.89        0.0
13:18             184        0.0         42       34.3      226.0       34.3       36.6       19.6     1011.0       34.3       24.2        0.0        0.0        0.0       0.00      105.9       0.00       2.89        0.0
13:20             194        0.0         41       34.4      226.0       34.4       36.5       19.3     1011.0       34.4       24.2        0.0        0.0        0.0       0.00      106.3       0.00       2.89        0.0
13:22             196        0.0         41       34.5      226.0       34.5       36.6       19.3     1011.0       34.5       24.2        0.0        0.0        0.0       0.00      106.7       0.00       2.89        0.0
13:23             244        0.0         40       34.6      226.0       34.6       36.4       19.0     1011.0       34.6       24.2        0.0        0.0        0.0       0.00      107.2       0.00       2.89        0.0
13:26             202        0.0         40       34.6      226.0       34.6       36.4       19.0     1011.0       34.6       24.2        0.0        0.0        0.0       0.00      108.1       0.00       2.89        0.0
13:28             194        0.0         40       34.6      226.0       34.6       36.5       19.0     1010.9       34.6       24.2        0.0        0.0        0.0       0.00      108.8       0.00       2.89        0.0
13:30             209        0.0         40       34.6      226.0       34.6       36.5       19.0     1011.1       34.6       24.2        0.0        0.0        0.0       0.00      109.3       0.00       2.89        0.0
13:32             217        0.0         39       34.6      226.0       34.6       36.2       18.6     1011.0       34.7       24.2        0.0        0.0        0.0       0.00      109.6       0.00       3.02        0.0
13:34             219        0.0         40       34.6      226.0       34.6       36.4       19.0     1011.0       34.7       24.2        0.0        0.0        0.0       0.00      109.8       0.00       3.02        0.0
13:36             221        0.0         39       34.4      226.0       34.4       35.9       18.5     1011.0       34.7       24.2        0.0        0.0        0.0       0.00      110.0       0.00       3.02        0.0
13:38             221        0.0         40       34.4      226.0       34.4       36.1       18.9     1010.9       34.7       24.2        0.0        0.0        0.0       0.00      110.3       0.00       3.02        0.0
13:40             234        0.0         40       34.3      226.0       34.3       36.0       18.8     1010.8       34.7       24.2        0.0        0.0        0.0       0.00      110.8       0.00       3.02        0.0
13:42             266        0.0         40       34.2      226.0       34.2       35.8       18.7     1010.8       34.7       24.2        0.0        0.0        0.0       0.00      111.5       0.00       3.02        0.0
13:44             263        0.0         41       34.1      226.0       34.1       35.9       19.0     1010.8       34.7       24.2        0.0        0.0        0.0       0.00      111.8       0.00       3.02        0.0
13:46             244        0.0         41       34.1      226.0       34.1       35.9       19.0     1010.8       34.7       24.2        0.0        0.0        0.0       0.00      112.2       0.00       3.14        0.0
13:48             240        0.0         41       34.2      226.0       34.2       36.0       19.0     1010.7       34.7       24.2        0.0        0.0        0.0       0.00      112.5       0.00       3.14        0.0
13:49             250        0.0         41       34.2      226.0       34.2       36.1       19.1     1010.8       34.7       24.2        0.0        0.0        0.0       0.00      113.2       0.00       3.14        0.0
13:52             244        0.0         41       34.2      226.0       34.2       36.1       19.1     1010.7       34.7       24.2        0.0        0.0        0.0       0.00      113.5       0.00       3.14        0.0
13:54             242        0.0         41       34.3      226.0       34.3       36.2       19.1     1010.7       34.7       24.2        0.0        0.0        0.0       0.00      113.8       0.00       3.14        0.0
13:56             245        0.0         41       34.3      226.0       34.3       36.3       19.2     1010.8       34.7       24.2        0.0        0.0        0.0       0.00      114.4       0.00       3.14        0.0
13:58             244        0.0         41       34.3      226.0       34.3       36.3       19.2     1010.7       34.7       24.2        0.0        0.0        0.0       0.00      114.6       0.00       3.14        0.0
14:00             238        0.0         41       34.4      226.0       34.4       36.5       19.3     1010.7       34.7       24.2        0.0        0.0        0.0       0.00      114.9       0.00       3.14        0.0
14:02             227        0.0         41       34.6      226.0       34.6       36.8       19.4     1010.7       34.7       24.2        0.0        0.0        0.0       0.00      115.2       0.00       3.27        0.0
14:04             236        0.0         41       34.7      226.0       34.7       37.0       19.5     1010.7       34.7       24.2        0.0        0.0        0.0       0.00      115.8       0.00       3.27        0.0
14:06             242        0.0         41       34.7      226.0       34.7       37.0       19.5     1010.6       34.7       24.2        0.0        0.0        0.0       0.00      116.1       0.00       3.27        0.0
14:08             243        0.0         41       34.6      226.0       34.6       36.8       19.4     1010.5       34.7       24.2        0.0        0.0        0.0       0.00      116.4       0.00       3.27        0.0
14:10             302        0.0         41       34.6      226.0       34.6       36.8       19.4     1010.5       34.7       24.2        0.0        0.0        0.0       0.00      116.9       0.00       3.27        0.0
14:12             231        0.0         41       34.7      226.0       34.7       37.0       19.5     1010.5       34.7       24.2        0.0        0.0        0.0       0.00      117.4       0.00       3.27        0.0
14:14             259        0.0         41       34.8      226.0       34.8       37.1       19.6     1010.4       34.8       24.2        0.0        0.0        0.0       0.00      118.2       0.00       3.27        0.0
14:16             221        0.0         41       34.8      226.0       34.8       37.1       19.6     1010.3       34.8       24.2        0.0        0.0        0.0       0.00      118.9       0.00       3.41        0.0
14:18             202        0.0         41       34.9      226.0       34.9       37.3       19.7     1010.3       34.9       24.2        0.0        0.0        0.0       0.00      120.1       0.00       3.41        0.0
14:20             163        0.0         41       35.1      226.0       35.1       37.6       19.8     1010.3       35.1       24.2        0.0        0.0        0.0       0.00      120.7       0.00       3.41        0.0
14:22             194        0.0         41       35.2      226.0       35.2       37.9       20.0     1010.2       35.2       24.2        0.0        0.0        0.0       0.00      121.3       0.00       3.41        0.0
14:24             232        0.0         41       35.4      226.0       35.4       38.3       20.1     1010.2       35.4       24.2        0.0        0.0        0.0       0.00      121.7       0.00       3.41        0.0
14:26             241        0.0         39       35.4      226.0       35.4       37.7       19.4     1010.1       35.4       24.2        0.0        0.0        0.0       0.00      122.0       0.00       3.41        0.0
14:28             241        0.0         39       35.4      226.0       35.4       37.7       19.4     1010.1       35.5       24.2        0.0        0.0        0.0       0.00      122.3       0.00       3.41        0.0
14:30             264        0.0         39       35.4      226.0       35.4       37.6       19.3     1010.1       35.5       24.2        0.0        0.0        0.0       0.00      123.2       0.00       3.41        0.0
14:32             259        0.0         40       35.3      226.0       35.3       37.8       19.7     1010.2       35.5       24.2        0.0        0.0        0.0       0.00      123.7       0.00       3.54        0.0
14:34             258        0.0         40       35.3      226.0       35.3       37.8       19.7     1010.1       35.5       24.2        0.0        0.0        0.0       0.00      124.1       0.00       3.54        0.0
14:36             289        0.0         39       35.3      226.0       35.3       37.4       19.2     1009.9       35.5       24.2        0.0        0.0        0.0       0.00      124.7       0.00       3.54        0.0
14:38             262        0.0         39       35.3      226.0       35.3       37.4       19.2     1010.0       35.5       24.2        0.0        0.0        0.0       0.00      125.1       0.00       3.54        0.0
14:40             273        0.0         38       35.3      226.0       35.3       37.2       18.9     1009.9       35.5       24.2        0.0        0.0        0.0       0.00      125.7       0.00       3.54        0.0
14:42             265        0.0         39       35.3      226.0       35.3       37.5       19.3     1009.9       35.5       24.2        0.0        0.0        0.0       0.00      126.0       0.00       3.54        0.0
14:44             266        0.0         38       35.4      226.0       35.4       37.3       18.9     1009.9       35.5       24.2        0.0        0.0        0.0       0.00      126.4       0.00       3.54        0.0
14:46             202        0.0         38       35.4      226.0       35.4       37.4       19.0     1009.9       35.5       24.2        0.0        0.0        0.0       0.00      126.8       0.00       3.68        0.0
14:48             188        0.0         38       35.6      226.0       35.6       37.7       19.1     1009.9       35.6       24.2        0.0        0.0        0.0       0.00      127.5       0.00       3.68        0.0
14:50             201        0.0         37       35.7      226.0       35.7       37.6       18.8     1009.9       35.7       24.2        0.0        0.0        0.0       0.00      128.1       0.00       3.68        0.0
14:52             196        0.0         38       35.8      226.0       35.8       38.2       19.3     1009.8       35.8       24.2        0.0        0.0        0.0       0.00      128.5       0.00       3.68        0.0
14:54             222        0.0         37       35.9      226.0       35.9       37.9       18.9     1009.8       35.9       24.2        0.0        0.0        0.0       0.00      128.9       0.00       3.68        0.0
14:56             222        0.0         37       35.9      226.0       35.9       37.9       18.9     1009.7       35.9       24.2        0.0        0.0        0.0       0.00      129.1       0.00       3.68        0.0
14:58             252        0.0         37       35.8      226.0       35.8       37.8       18.9     1009.7       35.9       24.2        0.0        0.0        0.0       0.00      129.8       0.00       3.68        0.0
15:00             252        0.0         38       35.8      226.0       35.8       38.0       19.3     1009.7       35.9       24.2        0.0        0.0        0.0       0.00      130.0       0.00       3.68        0.0
15:02             207        0.0         38       35.7      226.0       35.7       37.9       19.2     1009.7       35.9       24.2        0.0        0.0        0.0       0.00      130.5       0.00       3.83        0.0
15:04             194        0.0         39       35.8      226.0       35.8       38.5       19.7     1009.7       35.9       24.2        0.0        0.0        0.0       0.00      131.1       0.00       3.83        0.0
15:06             180        0.0         39       35.9      226.0       35.9       38.6       19.8     1009.6       35.9       24.2        0.0        0.0        0.0       0.00      131.7       0.00       3.83        0.0
15:08             180        0.0         40       36.1      226.0       36.1       39.3       20.3     1009.5       36.1       24.2        0.0        0.0        0.0       0.00      132.0       0.00       3.83        0.0
15:10             184        0.0         41       36.2      226.0       36.2       40.0       20.9     1009.5       36.2       24.2        0.0        0.0        0.0       0.00      132.3       0.00       3.83        0.0
15:12             185        0.0         41       36.4      226.0       36.4       40.4       21.1     1009.5       36.4       24.2        0.0        0.0        0.0       0.00      132.8       0.00       3.83        0.0
15:14             186        0.0         38       36.6      226.0       36.6       39.7       20.0     1009.4       36.6       24.2        0.0        0.0        0.0       0.00      133.0       0.00       3.83        0.0
15:16             234        0.0         38       36.8      226.0       36.8       40.0       20.1     1009.5       36.8       24.2        0.0        0.0        0.0       0.00      133.4       0.00       3.98        0.0
15:18             261        0.0         37       36.8      226.0       36.8       39.6       19.7     1009.4       36.8       24.2        0.0        0.0        0.0       0.00      133.7       0.00       3.98        0.0
15:20             227        0.0         38       36.7      226.0       36.7       39.9       20.1     1009.4       36.8       24.2        0.0        0.0        0.0       0.00      134.4       0.00       3.98        0.0
15:22             221        0.0         38       36.7      226.0       36.7       39.8       20.0     1009.4       36.8       24.2        0.0        0.0        0.0       0.00      135.3       0.00       3.98        0.0
15:24             213        0.0         38       36.6      226.0       36.6       39.7       20.0     1009.4       36.8       24.2        0.0        0.0        0.0       0.00      136.0       0.00       3.98        0.0
15:26             221        0.0         39       36.5      226.0       36.5       39.8       20.3     1009.4       36.8       24.2        0.0        0.0        0.0       0.00      136.4       0.00       3.98        0.0
15:28             206        0.0         39       36.4      226.0       36.4       39.7       20.3     1009.5       36.8       24.2        0.0        0.0        0.0       0.00      137.0       0.00       3.98        0.0
15:30             208        0.0         39       36.3      226.0       36.3       39.5       20.2     1009.5       36.8       24.2        0.0        0.0        0.0       0.00      137.4       0.00       3.98        0.0
15:32             201        0.0         39       36.4      226.0       36.4       39.6       20.2     1009.4       36.8       24.2        0.0        0.0        0.0       0.00      138.0       0.00       4.13        0.0
15:34             177        0.0         40       36.4      226.0       36.4       40.0       20.7     1009.4       36.8       24.2        0.0        0.0        0.0       0.00      138.3       0.00       4.13        0.0
15:36             190        0.0         40       36.6      226.0       36.6       40.4       20.8     1009.4       36.8       24.2        0.0        0.0        0.0       0.00      139.2       0.00       4.13        0.0
15:37             196        0.0         39       36.7      226.0       36.7       40.2       20.5     1009.4       36.8       24.2        0.0        0.0        0.0       0.00      140.5       0.00       4.13        0.0
15:40             202        0.0         39       36.8      226.0       36.8       40.5       20.6     1009.4       36.8       24.2        0.0        0.0        0.0       0.00      141.5       0.00       4.13        0.0
15:42             188        0.0         38       36.9      226.0       36.9       40.2       20.2     1009.4       36.9       24.2        0.0        0.0        0.0       0.00      142.3       0.00       4.13        0.0
15:44             254        0.0         39       36.9      226.0       36.9       40.6       20.7     1009.4       36.9       24.2        0.0        0.0        0.0       0.00      142.9       0.00       4.13        0.0
15:46             187        0.0         39       36.8      226.0       36.8       40.5       20.6     1009.4       36.9       24.2        0.0        0.0        0.0       0.00      143.4       0.00       4.28        0.0
15:48             184        0.0         39       36.8      226.0       36.8       40.5       20.6     1009.4       36.9       24.2        0.0        0.0        0.0       0.00      144.6       0.00       4.28        0.0
15:50             199        0.0         39       36.8      226.0       36.8       40.5       20.6     1009.4       36.9       24.2        0.0        0.0        0.0       0.00      145.5       0.00       4.28        0.0
15:52             221        0.0         40       36.8      226.0       36.8       40.9       21.0     1009.4       36.9       24.2        0.0        0.0        0.0       0.00      146.3       0.00       4.28        0.0
15:54             208        0.0         40       36.7      226.0       36.7       40.6       20.9     1009.4       36.9       24.2        0.0        0.0        0.0       0.00      146.8       0.00       4.28        0.0
15:56             188        0.0         40       36.7      226.0       36.7       40.5       20.9     1009.4       36.9       24.2        0.0        0.0        0.0       0.00      148.1       0.00       4.28        0.0
15:58             215        0.0         40       36.6      226.0       36.6       40.4       20.8     1009.3       36.9       24.2        0.0        0.0        0.0       0.00      149.4       0.00       4.28        0.0
16:00             221        0.0         40       36.5      226.0       36.5       40.2       20.7     1009.4       36.9       24.2        0.0        0.0        0.0       0.00      150.4       0.00       4.28        0.0
16:02             259        0.0         40       36.3      226.0       36.3       39.8       20.6     1009.4       36.9       24.2        0.0        0.0        0.0       0.00      151.7       0.00       4.44        0.0
16:04             244        0.0         41       36.1      226.0       36.1       39.6       20.7     1009.4       36.9       24.2        0.0        0.0        0.0       0.00      152.7       0.00       4.44        0.0
16:06             225        0.0         42       35.8      226.0       35.8       39.5       20.9     1009.4       36.9       24.2        0.0        0.0        0.0       0.00      153.4       0.00       4.44        0.0
16:08             245        0.0         42       35.8      226.0       35.8       39.5       20.9     1009.4       36.9       24.2        0.0        0.0        0.0       0.00      154.4       0.00       4.44        0.0
16:10             360        0.0         43       35.7      226.0       35.7       39.5       21.2     1009.4       36.9       24.2        0.0        0.0        0.0       0.00      155.5       0.00       4.44        0.0
16:12             200        0.0         43       35.6      226.0       35.6       39.4       21.1     1009.4       36.9       24.2        0.0        0.0        0.0       0.00      156.8       0.00       4.44        0.0
16:14             215        0.0         43       35.6      226.0       35.6       39.4       21.1     1009.4       36.9       24.2        0.0        0.0        0.0       0.00      157.9       0.00       4.44        0.0
16:16             214        0.0         43       35.6      226.0       35.6       39.3       21.1     1009.4       36.9       24.2        0.0        0.0        0.0       0.00      159.5       0.00       4.58        0.0
16:18             180        0.0         43       35.4      226.0       35.4       39.1       21.0     1009.4       36.9       24.2        0.0        0.0        0.0       0.00      161.0       0.00       4.58        0.0
16:20             225        0.0         43       35.3      226.0       35.3       38.8       20.9     1009.4       36.9       24.2        0.0        0.0        0.0       0.00      162.6       0.00       4.58        0.0
16:22             221        0.0         44       35.3      226.0       35.3       39.1       21.2     1009.4       36.9       24.2        0.0        0.0        0.0       0.00      163.8       0.00       4.58        0.0
16:23             195        0.0         44       35.2      226.0       35.2       38.8       21.1     1009.4       36.9       24.2        0.0        0.0        0.0       0.00      164.7       0.00       4.58        0.0
16:26             204        0.0         43       35.2      226.0       35.2       38.5       20.7     1009.4       36.9       24.2        0.0        0.0        0.0       0.00      166.6       0.00       4.58        0.0
16:28             205        0.0         44       35.2      226.0       35.2       38.8       21.1     1009.4       36.9       24.2        0.0        0.0        0.0       0.00      167.6       0.00       4.58        0.0
16:30             236        0.0         44       35.2      226.0       35.2       38.8       21.1     1009.4       36.9       24.2        0.0        0.0        0.0       0.00      168.5       0.00       4.58        0.0
16:32             217        0.0         44       35.2      226.0       35.2       38.8       21.1     1009.4       36.9       24.2        0.0        0.0        0.0       0.00      169.7       0.00       4.71        0.0
16:34             195        0.0         43       35.2      226.0       35.2       38.5       20.7     1009.4       36.9       24.2        0.0        0.0        0.0       0.00      170.6       0.00       4.71        0.0
16:36             207        0.0         43       35.2      226.0       35.2       38.5       20.7     1009.4       36.9       24.2        0.0        0.0        0.0       0.00      171.9       0.00       4.71        0.0
16:38             186        0.0         43       35.2      226.0       35.2       38.5       20.7     1009.4       36.9       24.2        0.0        0.0        0.0       0.00      173.1       0.00       4.71        0.0
16:40             265        0.0         43       35.2      226.0       35.2       38.5       20.7     1009.3       36.9       24.2        0.0        0.0        0.0       0.00      174.1       0.00       4.71        0.0
16:42             223        0.0         43       35.1      226.0       35.1       38.4       20.7     1009.4       36.9       24.2        0.0        0.0        0.0       0.00      174.9       0.00       4.71        0.0
16:44             183        0.0         43       35.1      226.0       35.1       38.4       20.7     1009.4       36.9       24.2        0.0        0.0        0.0       0.00      175.9       0.00       4.71        0.0
16:46             254        0.0         43       35.2      226.0       35.2       38.6       20.8     1009.4       36.9       24.2        0.0        0.0        0.0       0.00      177.1       0.00       4.85        0.0
16:48             206        0.0         43       35.2      226.0       35.2       38.5       20.7     1009.5       36.9       24.2        0.0        0.0        0.0       0.00      178.3       0.00       4.85        0.0
16:50             184        0.0         42       35.2      226.0       35.2       38.2       20.3     1009.4       36.9       24.2        0.0        0.0        0.0       0.00      179.4       0.00       4.85        0.0
16:52             211        0.0         42       35.1      226.0       35.1       38.1       20.3     1009.4       36.9       24.2        0.0        0.0        0.0       0.00      180.8       0.00       4.85        0.0
16:54             222        0.0         43       35.1      226.0       35.1       38.4       20.7     1009.4       36.9       24.2        0.0        0.0        0.0       0.00      182.0       0.00       4.85        0.0
16:56             225        0.0         42       35.1      226.0       35.1       38.1       20.3     1009.4       36.9       24.2        0.0        0.0        0.0       0.00      183.3       0.00       4.85        0.0
16:58             207        0.0         42       35.1      226.0       35.1       38.1       20.3     1009.5       36.9       24.2        0.0        0.0        0.0       0.00      184.7       0.00       4.85        0.0
17:00             202        0.0         42       35.1      226.0       35.1       37.9       20.2     1009.4       36.9       24.2        0.0        0.0        0.0       0.00      185.8       0.00       4.85        0.0
17:02             209        0.0         42       35.1      226.0       35.1       37.9       20.2     1009.5       36.9       24.2        0.0        0.0        0.0       0.00      186.9       0.00       4.99        0.0
17:04             212        0.0         42       35.1      226.0       35.1       37.9       20.2     1009.4       36.9       24.2        0.0        0.0        0.0       0.00      188.0       0.00       4.99        0.0
17:06             202        0.0         42       35.1      226.0       35.1       37.9       20.2     1009.4       36.9       24.2        0.0        0.0        0.0       0.00      189.3       0.00       4.99        0.0
17:08             233        0.0         42       35.1      226.0       35.1       37.9       20.2     1009.4       36.9       24.2        0.0        0.0        0.0       0.00      190.2       0.00       4.99        0.0
17:10             222        0.0         41       34.9      226.0       34.9       37.4       19.7     1009.4       36.9       24.2        0.0        0.0        0.0       0.00      191.1       0.00       4.99        0.0
17:12             209        0.0         42       34.9      226.0       34.9       37.6       20.1     1009.4       36.9       24.2        0.0        0.0        0.0       0.00      192.6       0.00       4.99        0.0
17:14             211        0.0         42       34.9      226.0       34.9       37.6       20.1     1009.4       36.9       24.2        0.0        0.0        0.0       0.00      193.6       0.00       4.99        0.0
17:16             207        0.0         42       34.9      226.0       34.9       37.6       20.1     1009.4       36.9       24.2        0.0        0.0        0.0       0.00      194.2       0.00       5.12        0.0
17:18             211        0.0         42       34.9      226.0       34.9       37.6       20.1     1009.4       36.9       24.2        0.0        0.0        0.0       0.00      194.9       0.00       5.12        0.0
17:20             190        0.0         41       34.9      226.0       34.9       37.3       19.7     1009.3       36.9       24.2        0.0        0.0        0.0       0.00      196.2       0.00       5.12        0.0
17:22             205        0.0         41       34.9      226.0       34.9       37.4       19.7     1009.4       36.9       24.2        0.0        0.0        0.0       0.00      197.7       0.00       5.12        0.0
17:24             208        0.0         41       34.9      226.0       34.9       37.4       19.7     1009.3       36.9       24.2        0.0        0.0        0.0       0.00      198.8       0.00       5.12        0.0
17:26             205        0.0         41       35.0      226.0       35.0       37.5       19.8     1009.4       36.9       24.2        0.0        0.0        0.0       0.00      200.3       0.00       5.12        0.0
17:28             238        0.0         41       34.9      226.0       34.9       37.4       19.7     1009.4       36.9       24.2        0.0        0.0        0.0       0.00      200.9       0.00       5.12        0.0
17:30             237        0.0         42       34.9      226.0       34.9       37.6       20.1     1009.4       36.9       24.2        0.0        0.0        0.0       0.00      201.6       0.00       5.12        0.0
17:32             240        0.0         41       34.7      226.0       34.7       37.0       19.5     1009.5       36.9       24.2        0.0        0.0        0.0       0.00      202.4       0.00       5.26        0.0
17:34             244        0.0         42       34.6      226.0       34.6       37.1       19.8     1009.4       36.9       24.2        0.0        0.0        0.0       0.00      203.3       0.00       5.26        0.0
17:36             213        0.0         42       34.6      226.0       34.6       37.0       19.8     1009.4       36.9       24.2        0.0        0.0        0.0       0.00      204.1       0.00       5.26        0.0
17:38             220        0.0         42       34.5      226.0       34.5       36.9       19.7     1009.5       36.9       24.2        0.0        0.0        0.0       0.00      205.1       0.00       5.26        0.0
17:40             232        0.0         43       34.4      226.0       34.4       37.1       20.1     1009.4       36.9       24.2        0.0        0.0        0.0       0.00      205.8       0.00       5.26        0.0
17:42             252        0.0         43       34.4      226.0       34.4       37.0       20.0     1009.5       36.9       24.2        0.0        0.0        0.0       0.00      206.7       0.00       5.26        0.0
17:44             278        0.0         43       34.3      226.0       34.3       36.9       20.0     1009.5       36.9       24.2        0.0        0.0        0.0       0.00      207.6       0.00       5.26        0.0
17:46             247        0.0         43       34.2      226.0       34.2       36.6       19.9     1009.5       36.9       24.2        0.0        0.0        0.0       0.00      208.4       0.00       5.38        0.0
17:48             231        0.0         43       34.2      226.0       34.2       36.5       19.8     1009.5       36.9       24.2        0.0        0.0        0.0       0.00      209.1       0.00       5.38        0.0
17:50             214        0.0         43       34.2      226.0       34.2       36.5       19.8     1009.5       36.9       24.2        0.0        0.0        0.0       0.00      210.2       0.00       5.38        0.0
17:52             243        0.0         44       34.1      226.0       34.1       36.7       20.1     1009.4       36.9       24.2        0.0        0.0        0.0       0.00      211.3       0.00       5.38        0.0
17:54             221        0.0         44       34.1      226.0       34.1       36.6       20.1     1009.4       36.9       24.2        0.0        0.0        0.0       0.00      212.2       0.00       5.38        0.0
17:56             230        0.0         45       34.0      226.0       34.0       36.8       20.4     1009.5       36.9       24.2        0.0        0.0        0.0       0.00      213.1       0.00       5.38        0.0
17:57             250        0.0         45       33.9      226.0       33.9       36.7       20.3     1009.5       36.9       24.2        0.0        0.0        0.0       0.00      214.0       0.00       5.38        0.0
18:00             265        0.0         45       33.8      226.0       33.8       36.5       20.2     1009.5       36.9       24.2        0.0        0.0        0.0       0.00      214.9       0.00       5.38        0.0
18:01             261        0.0         45       33.7      226.0       33.7       36.2       20.1     1009.5       36.9       24.2        0.0        0.0        0.0       0.00      216.1       0.00       5.51        0.0
18:04             268        0.0         45       33.6      226.0       33.6       36.0       20.0     1009.5       36.9       24.2        0.0        0.0        0.0       0.00      217.1       0.00       5.51        0.0
18:06             257        0.0         46       33.5      226.0       33.5       36.1       20.3     1009.5       36.9       24.2        0.0        0.0        0.0       0.00      217.6       0.00       5.51        0.0
18:08             259        0.0         45       33.4      226.0       33.4       35.7       19.8     1009.5       36.9       24.2        0.0        0.0        0.0       0.00      218.7       0.00       5.51        0.0
18:10             217        0.0         45       33.4      226.0       33.4       35.7       19.8     1009.5       36.9       24.2        0.0        0.0        0.0       0.00      219.4       0.00       5.51        0.0
18:12             197        0.0         44       33.4      226.0       33.4       35.4       19.5     1009.5       36.9       24.2        0.0        0.0        0.0       0.00      220.4       0.00       5.51        0.0
18:14             246        0.0         43       33.3      226.0       33.3       35.0       19.1     1009.5       36.9       24.2        0.0        0.0        0.0       0.00      221.7       0.00       5.51        0.0
18:16             259        0.0         44       33.3      226.0       33.3       35.2       19.4     1009.5       36.9       24.2        0.0        0.0        0.0       0.00      222.4       0.00       5.62        0.0
18:18             242        0.0         44       33.2      226.0       33.2       35.1       19.3     1009.5       36.9       24.2        0.0        0.0        0.0       0.00      223.0       0.00       5.62        0.0
18:20             250        0.0         44       33.2      226.0       33.2       35.1       19.3     1009.5       36.9       24.2        0.0        0.0        0.0       0.00      223.6       0.00       5.62        0.0
18:22             225        0.0         44       33.2      226.0       33.2       35.1       19.3     1009.5       36.9       24.2        0.0        0.0        0.0       0.00      224.4       0.00       5.62        0.0
18:23             253        0.0         45       33.2      226.0       33.2       35.2       19.6     1009.5       36.9       24.2        0.0        0.0        0.0       0.00      225.4       0.00       5.62        0.0
18:25             265        0.0         45       33.1      226.0       33.1       35.1       19.6     1009.5       36.9       24.2        0.0        0.0        0.0       0.00      226.2       0.00       5.62        0.0
18:28             225        0.0         46       33.1      226.0       33.1       35.3       19.9     1009.5       36.9       24.2        0.0        0.0        0.0       0.00      226.9       0.00       5.62        0.0
18:30             242        0.0         46       33.1      226.0       33.1       35.3       19.9     1009.5       36.9       24.2        0.0        0.0        0.0       0.00      227.6       0.00       5.62        0.0
18:32             240        0.0         46       33.1      226.0       33.1       35.3       19.9     1009.5       36.9       24.2        0.0        0.0        0.0       0.00      228.1       0.00       5.74        0.0
18:34             235        0.0         45       33.1      226.0       33.1       35.0       19.5     1009.5       36.9       24.2        0.0        0.0        0.0       0.00      228.8       0.00       5.74        0.0
18:36             238        0.0         45       33.1      226.0       33.1       35.0       19.5     1009.5       36.9       24.2        0.0        0.0        0.0       0.00      229.5       0.00       5.74        0.0
18:37             236        0.0         45       33.0      226.0       33.0       34.9       19.5     1009.6       36.9       24.2        0.0        0.0        0.0       0.00      230.3       0.00       5.74        0.0
18:40             225        0.0         46       32.9      226.0       32.9       35.1       19.8     1009.6       36.9       24.2        0.0        0.0        0.0       0.00      231.3       0.00       5.74        0.0
18:42             258        0.0         46       32.9      226.0       32.9       35.0       19.7     1009.6       36.9       24.2        0.0        0.0        0.0       0.00      232.1       0.00       5.74        0.0
18:44             232        0.0         46       32.8      226.0       32.8       34.8       19.6     1009.6       36.9       24.2        0.0        0.0        0.0       0.00      232.9       0.00       5.74        0.0
18:46             258        0.0         47       32.8      226.0       32.8       35.0       20.0     1009.6       36.9       24.2        0.0        0.0        0.0       0.00      233.7       0.00       5.85        0.0
18:48             232        0.0         47       32.7      226.0       32.7       34.8       19.9     1009.7       36.9       24.2        0.0        0.0        0.0       0.00      234.7       0.00       5.85        0.0
18:50             247        0.0         48       32.6      226.0       32.6       34.9       20.1     1009.7       36.9       24.2        0.0        0.0        0.0       0.00      235.7       0.00       5.85        0.0
18:52             250        0.0         48       32.4      226.0       32.4       34.7       20.0     1009.7       36.9       24.2        0.0        0.0        0.0       0.00      236.9       0.00       5.85        0.0
18:54             257        0.0         49       32.3      226.0       32.3       34.7       20.3     1009.7       36.9       24.2        0.0        0.0        0.0       0.00      237.7       0.00       5.85        0.0
18:56             258        0.0         49       32.3      226.0       32.3       34.6       20.2     1009.7       36.9       24.2        0.0        0.0        0.0       0.00      238.5       0.00       5.85        0.0
18:58             246        0.0         49       32.2      226.0       32.2       34.4       20.1     1009.8       36.9       24.2        0.0        0.0        0.0       0.00      239.3       0.00       5.85        0.0
19:00             249        0.0         50       32.1      226.0       32.1       34.6       20.4     1009.7       36.9       24.2        0.0        0.0        0.0       0.00      240.1       0.00       5.85        0.0
19:02             242        0.0         50       32.1      226.0       32.1       34.5       20.3     1009.8       36.9       24.2        0.0        0.0        0.0       0.00      241.1       0.00       5.96        0.0
19:04             260        0.0         50       31.9      226.0       31.9       34.3       20.2     1009.8       36.9       24.2        0.0        0.0        0.0       0.00      241.8       0.00       5.96        0.0
19:06             246        0.0         51       31.9      226.0       31.9       34.4       20.5     1009.8       36.9       24.2        0.0        0.0        0.0       0.00      242.6       0.00       5.96        0.0
19:07             252        0.0         51       31.8      226.0       31.8       34.2       20.4     1009.8       36.9       24.2        0.0        0.0        0.0       0.00      243.7       0.00       5.96        0.0
19:10             219        0.0         51       31.7      226.0       31.7       34.0       20.3     1009.9       36.9       24.2        0.0        0.0        0.0       0.00      244.3       0.00       5.96        0.0
19:12             232        0.0         52       31.6      226.0       31.6       34.1       20.6     1009.9       36.9       24.2        0.0        0.0        0.0       0.00      245.2       0.00       5.96        0.0
19:13             256        0.0         52       31.4      226.0       31.4       33.8       20.4     1009.9       36.9       24.2        0.0        0.0        0.0       0.00      246.2       0.00       5.96        0.0
19:16             269        0.0         53       31.3      226.0       31.3       33.8       20.6     1009.9       36.9       24.2        0.0        0.0        0.0       0.00      246.9       0.00       6.05        0.0
19:18             247        0.0         53       31.3      226.0       31.3       33.7       20.6     1009.9       36.9       24.2        0.0        0.0        0.0       0.00      247.6       0.00       6.05        0.0
19:20             212        0.0         53       31.2      226.0       31.2       33.6       20.5     1009.9       36.9       24.2        0.0        0.0        0.0       0.00      248.4       0.00       6.05        0.0
19:22             233        0.0         54       31.1      226.0       31.1       33.6       20.7     1009.9       36.9       24.2        0.0        0.0        0.0       0.00      249.3       0.00       6.05        0.0
19:24             259        0.0         54       31.1      226.0       31.1       33.5       20.7     1010.0       36.9       24.2        0.0        0.0        0.0       0.00      250.2       0.00       6.05        0.0
19:26             247        0.0         54       30.9      226.0       30.9       33.3       20.6     1009.9       36.9       24.2        0.0        0.0        0.0       0.00      251.1       0.00       6.05        0.0
19:28             246        0.0         54       30.8      226.0       30.8       33.1       20.5     1009.9       36.9       24.2        0.0        0.0        0.0       0.00      252.0       0.00       6.05        0.0
19:30             250        0.0         55       30.8      226.0       30.8       33.3       20.7     1010.0       36.9       24.2        0.0        0.0        0.0       0.00      252.7       0.00       6.05        0.0
19:32             261        0.0         55       30.7      226.0       30.7       33.2       20.7     1010.1       36.9       24.2        0.0        0.0        0.0       0.00      253.4       0.00       6.15        0.0
19:34             250        0.0         55       30.6      226.0       30.6       33.0       20.5     1010.1       36.9       24.2        0.0        0.0        0.0       0.00      254.0       0.00       6.15        0.0
19:36             246        0.0         55       30.6      226.0       30.6       32.9       20.5     1010.1       36.9       24.2        0.0        0.0        0.0       0.00      254.6       0.00       6.15        0.0
19:38             238        0.0         55       30.5      226.0       30.5       32.8       20.4     1010.0       36.9       24.2        0.0        0.0        0.0       0.00      255.4       0.00       6.15        0.0
19:40             254        0.0         56       30.4      226.0       30.4       32.9       20.7     1010.2       36.9       24.2        0.0        0.0        0.0       0.00      256.2       0.00       6.15        0.0
19:42             246        0.0         56       30.4      226.0       30.4       32.8       20.6     1010.2       36.9       24.2        0.0        0.0        0.0       0.00      257.0       0.00       6.15        0.0
19:43             250        0.0         56       30.3      226.0       30.3       32.6       20.5     1010.3       36.9       24.2        0.0        0.0        0.0       0.00      257.8       0.00       6.15        0.0
19:46             232        0.0         56       30.2      226.0       30.2       32.4       20.4     1010.3       36.9       24.2        0.0        0.0        0.0       0.00      258.8       0.00       6.23        0.0
19:48             244        0.0         57       30.1      226.0       30.1       32.4       20.7     1010.3       36.9       24.2        0.0        0.0        0.0       0.00      259.7       0.00       6.23        0.0
19:50             250        0.0         57       30.1      226.0       30.1       32.4       20.6     1010.3       36.9       24.2        0.0        0.0        0.0       0.00      260.7       0.00       6.23        0.0
19:52             247        0.0         57       30.0      226.0       30.0       32.3       20.6     1010.3       36.9       24.2        0.0        0.0        0.0       0.00      261.6       0.00       6.23        0.0
19:54             242        0.0         57       29.9      226.0       29.9       32.2       20.5     1010.3       36.9       24.2        0.0        0.0        0.0       0.00      262.2       0.00       6.23        0.0
19:56             256        0.0         57       29.8      226.0       29.8       32.0       20.4     1010.4       36.9       24.2        0.0        0.0        0.0       0.00      262.8       0.00       6.23        0.0
19:58             250        0.0         58       29.8      226.0       29.8       32.0       20.6     1010.4       36.9       24.2        0.0        0.0        0.0       0.00      263.6       0.00       6.23        0.0
20:00             248        0.0         58       29.7      226.0       29.7       31.9       20.6     1010.4       36.9       24.2        0.0        0.0        0.0       0.00      264.2       0.00       6.23        0.0
20:02             246        0.0         58       29.7      226.0       29.7       31.8       20.5     1010.4       36.9       24.2        0.0        0.0        0.0       0.00      265.0       0.00       6.31        0.0
20:04             253        0.0         58       29.6      226.0       29.6       31.8       20.5     1010.5       36.9       24.2        0.0        0.0        0.0       0.00      265.5       0.00       6.31        0.0
20:06             252        0.0         59       29.6      226.0       29.6       31.8       20.7     1010.5       36.9       24.2        0.0        0.0        0.0       0.00      266.3       0.00       6.31        0.0
20:08             242        0.0         59       29.5      226.0       29.5       31.7       20.7     1010.5       36.9       24.2        0.0        0.0        0.0       0.00      267.3       0.00       6.31        0.0
20:09             254        0.0         59       29.4      226.0       29.4       31.5       20.5     1010.6       36.9       24.2        0.0        0.0        0.0       0.00      268.2       0.00       6.31        0.0
20:12             256        0.0         59       29.3      226.0       29.3       31.4       20.5     1010.6       36.9       24.2        0.0        0.0        0.0       0.00      268.8       0.00       6.31        0.0
20:14             263        0.0         60       29.3      226.0       29.3       31.5       20.7     1010.6       36.9       24.2        0.0        0.0        0.0       0.00      269.5       0.00       6.31        0.0
20:16             246        0.0         60       29.2      226.0       29.2       31.4       20.7     1010.6       36.9       24.2        0.0        0.0        0.0       0.00      270.3       0.00       6.39        0.0
20:18             254        0.0         60       29.1      226.0       29.1       31.2       20.6     1010.6       36.9       24.2        0.0        0.0        0.0       0.00      271.3       0.00       6.39        0.0
20:20             245        0.0         60       29.1      226.0       29.1       31.1       20.5     1010.7       36.9       24.2        0.0        0.0        0.0       0.00      272.3       0.00       6.39        0.0
20:22             241        0.0         61       28.9      226.0       28.9       31.1       20.7     1010.8       36.9       24.2        0.0        0.0        0.0       0.00      272.8       0.00       6.39        0.0
20:24             252        0.0         61       28.9      226.0       28.9       31.0       20.6     1010.8       36.9       24.2        0.0        0.0        0.0       0.00      273.7       0.00       6.39        0.0
20:26             238        0.0         61       28.8      226.0       28.8       30.9       20.6     1010.9       36.9       24.2        0.0        0.0        0.0       0.00      274.6       0.00       6.39        0.0
20:28             254        0.0         62       28.8      226.0       28.8       31.0       20.8     1010.9       36.9       24.2        0.0        0.0        0.0       0.00      275.2       0.00       6.39        0.0
20:30             254        0.0         62       28.7      226.0       28.7       30.9       20.7     1010.9       36.9       24.2        0.0        0.0        0.0       0.00      275.5       0.00       6.39        0.0
20:32             256        0.0         62       28.7      226.0       28.7       30.8       20.7     1011.0       36.9       24.2        0.0        0.0        0.0       0.00      276.1       0.00       6.46        0.0
20:34             249        0.0         62       28.6      226.0       28.6       30.7       20.6     1010.9       36.9       24.2        0.0        0.0        0.0       0.00      276.6       0.00       6.46        0.0
20:36             246        0.0         63       28.5      226.0       28.5       30.6       20.8     1011.0       36.9       24.2        0.0        0.0        0.0       0.00      277.7       0.00       6.46        0.0
20:38             273        0.0         63       28.4      226.0       28.4       30.4       20.7     1011.0       36.9       24.2        0.0        0.0        0.0       0.00      278.6       0.00       6.46        0.0
20:40             271        0.0         64       28.3      226.0       28.3       30.4       20.8     1011.1       36.9       24.2        0.0        0.0        0.0       0.00      279.7       0.00       6.46        0.0
20:42             265        0.0         64       28.2      226.0       28.2       30.2       20.7     1011.0       36.9       24.2        0.0        0.0        0.0       0.00      280.4       0.00       6.46        0.0
20:44             265        0.0         64       28.1      226.0       28.1       30.1       20.7     1011.1       36.9       24.2        0.0        0.0        0.0       0.00      281.0       0.00       6.46        0.0
20:46             257        0.0         65       28.1      226.0       28.1       30.1       20.9     1011.2       36.9       24.2        0.0        0.0        0.0       0.00      282.0       0.00       6.52        0.0
20:48             244        0.0         65       27.9      226.0       27.9       29.9       20.8     1011.2       36.9       24.2        0.0        0.0        0.0       0.00      283.3       0.00       6.52        0.0
20:49             261        0.0         65       27.8      226.0       27.8       29.8       20.7     1011.2       36.9       24.2        0.0        0.0        0.0       0.00      284.6       0.00       6.52        0.0
20:52             257        0.0         66       27.7      226.0       27.7       29.7       20.8     1011.2       36.9       24.2        0.0        0.0        0.0       0.00      285.3       0.00       6.52        0.0
20:54             250        0.0         66       27.6      226.0       27.6       29.5       20.7     1011.2       36.9       24.2        0.0        0.0        0.0       0.00      286.3       0.00       6.52        0.0
20:56             259        0.0         66       27.5      226.0       27.5       29.3       20.6     1011.1       36.9       24.2        0.0        0.0        0.0       0.00      287.5       0.00       6.52        0.0
20:58             252        0.0         67       27.4      226.0       27.4       29.2       20.7     1011.2       36.9       24.2        0.0        0.0        0.0       0.00      288.3       0.00       6.52        0.0
21:00             258        0.0         67       27.3      226.0       27.3       29.1       20.7     1011.2       36.9       24.2        0.0        0.0        0.0       0.00      289.4       0.00       6.52        0.0
21:02             250        0.0         68       27.3      226.0       27.3       29.1       20.9     1011.2       36.9       24.2        0.0        0.0        0.0       0.00      289.9       0.00       6.58        0.0
21:04             248        0.0         68       27.2      226.0       27.2       29.0       20.8     1011.2       36.9       24.2        0.0        0.0        0.0       0.00      291.1       0.00       6.58        0.0
21:06             266        0.0         68       27.1      226.0       27.1       28.8       20.6     1011.2       36.9       24.2        0.0        0.0        0.0       0.00      292.3       0.00       6.58        0.0
21:07             248        0.0         69       27.0      226.0       27.0       28.8       20.8     1011.2       36.9       24.2        0.0        0.0        0.0       0.00      293.3       0.00       6.58        0.0
21:10             256        0.0         69       26.9      226.0       26.9       28.7       20.8     1011.3       36.9       24.2        0.0        0.0        0.0       0.00      293.9       0.00       6.58        0.0
21:12             258        0.0         69       26.9      226.0       26.9       28.6       20.7     1011.3       36.9       24.2        0.0        0.0        0.0       0.00      294.7       0.00       6.58        0.0
21:14             252        0.0         69       26.8      226.0       26.8       28.5       20.7     1011.4       36.9       24.2        0.0        0.0        0.0       0.00      295.4       0.00       6.58        0.0
21:16             256        0.0         70       26.8      226.0       26.8       28.5       20.9     1011.4       36.9       24.2        0.0        0.0        0.0       0.00      296.1       0.00       6.63        0.0
21:17             234        0.0         70       26.7      226.0       26.7       28.4       20.8     1011.5       36.9       24.2        0.0        0.0        0.0       0.00      297.0       0.00       6.63        0.0
21:19             246        0.0         70       26.7      226.0       26.7       28.3       20.7     1011.5       36.9       24.2        0.0        0.0        0.0       0.00      297.6       0.00       6.63        0.0
21:22             257        0.0         70       26.6      226.0       26.6       28.3       20.7     1011.5       36.9       24.2        0.0        0.0        0.0       0.00      298.5       0.00       6.63        0.0
21:24             259        0.0         71       26.5      226.0       26.5       28.2       20.8     1011.5       36.9       24.2        0.0        0.0        0.0       0.00      299.4       0.00       6.63        0.0
21:26             257        0.0         71       26.4      226.0       26.4       28.2       20.8     1011.4       36.9       24.2        0.0        0.0        0.0       0.00      300.2       0.00       6.63        0.0
21:28             238        0.0         72       26.3      226.0       26.3       28.1       20.9     1011.5       36.9       24.2        0.0        0.0        0.0       0.00      301.3       0.00       6.63        0.0
21:30             249        0.0         72       26.3      226.0       26.3       28.1       20.8     1011.5       36.9       24.2        0.0        0.0        0.0       0.00      302.3       0.00       6.63        0.0
21:32             217        0.0         72       26.2      226.0       26.2       28.0       20.8     1011.6       36.9       24.2        0.0        0.0        0.0       0.00      303.0       0.00       6.67        0.0
21:34             250        0.0         72       26.1      226.0       26.1       27.9       20.7     1011.6       36.9       24.2        0.0        0.0        0.0       0.00      303.7       0.00       6.67        0.0
21:36             247        0.0         73       26.1      226.0       26.1       28.0       20.9     1011.6       36.9       24.2        0.0        0.0        0.0       0.00      304.5       0.00       6.67        0.0
21:38             254        0.0         73       26.1      226.0       26.1       27.9       20.8     1011.6       36.9       24.2        0.0        0.0        0.0       0.00      305.0       0.00       6.67        0.0
21:40             259        0.0         73       26.0      226.0       26.0       27.8       20.8     1011.6       36.9       24.2        0.0        0.0        0.0       0.00      305.9       0.00       6.67        0.0
21:42             252        0.0         73       25.9      226.0       25.9       27.7       20.7     1011.6       36.9       24.2        0.0        0.0        0.0       0.00      306.9       0.00       6.67        0.0
21:44             230        0.0         74       25.9      226.0       25.9       27.8       20.9     1011.7       36.9       24.2        0.0        0.0        0.0       0.00      307.5       0.00       6.67        0.0
21:46             259        0.0         74       25.8      226.0       25.8       27.7       20.8     1011.8       36.9       24.2        0.0        0.0        0.0       0.00      308.1       0.00       6.71        0.0
21:48             260        0.0         74       25.7      226.0       25.7       27.6       20.7     1011.8       36.9       24.2        0.0        0.0        0.0       0.00      308.5       0.00       6.71        0.0
21:50             257        0.0         74       25.7      226.0       25.7       27.6       20.7     1011.9       36.9       24.2        0.0        0.0        0.0       0.00      308.9       0.00       6.71        0.0
21:52             242        0.0         74       25.7      226.0       25.7       27.6       20.7     1011.9       36.9       24.2        0.0        0.0        0.0       0.00      309.6       0.00       6.71        0.0
21:54             242        0.0         75       25.7      226.0       25.7       27.7       20.9     1012.0       36.9       24.2        0.0        0.0        0.0       0.00      309.8       0.00       6.71        0.0
21:56             242        0.0         75       25.6      226.0       25.6       27.6       20.9     1011.9       36.9       24.2        0.0        0.0        0.0       0.00      310.1       0.00       6.71        0.0
21:58             207        0.0         75       25.6      226.0       25.6       27.6       20.9     1012.0       36.9       24.2        0.0        0.0        0.0       0.00      310.5       0.00       6.71        0.0
22:00             230        0.0         75       25.6      226.0       25.6       27.5       20.8     1012.0       36.9       24.2        0.0        0.0        0.0       0.00      311.2       0.00       6.71        0.0
22:02             244        0.0         75       25.6      226.0       25.6       27.5       20.8     1012.0       36.9       24.2        0.0        0.0        0.0       0.00      311.5       0.00       6.75        0.0
22:03             229        0.0         75       25.5      226.0       25.5       27.5       20.7     1012.0       36.9       24.2        0.0        0.0        0.0       0.00      312.1       0.00       6.75        0.0
22:06             246        0.0         75       25.5      226.0       25.5       27.5       20.7     1012.0       36.9       24.2        0.0        0.0        0.0       0.00      312.4       0.00       6.75        0.0
22:08             239        0.0         75       25.4      226.0       25.4       27.4       20.7     1012.0       36.9       24.2        0.0        0.0        0.0       0.00      313.0       0.00       6.75        0.0
22:10             238        0.0         75       25.4      226.0       25.4       27.4       20.7     1012.0       36.9       24.2        0.0        0.0        0.0       0.00      313.4       0.00       6.75        0.0
22:12             237        0.0         75       25.4      226.0       25.4       27.4       20.6     1012.0       36.9       24.2        0.0        0.0        0.0       0.00      313.7       0.00       6.75        0.0
22:14             234        0.0         76       25.4      226.0       25.4       27.4       20.9     1012.0       36.9       24.2        0.0        0.0        0.0       0.00      314.1       0.00       6.75        0.0
22:16             226        0.0         76       25.3      226.0       25.3       27.4       20.8     1012.0       36.9       24.2        0.0        0.0        0.0       0.00      314.6       0.00       6.78        0.0
22:18             216        0.0         76       25.3      226.0       25.3       27.3       20.7     1012.0       36.9       24.2        0.0        0.0        0.0       0.00      315.1       0.00       6.78        0.0
22:20             216        0.0         76       25.2      226.0       25.2       27.3       20.7     1012.0       36.9       24.2        0.0        0.0        0.0       0.00      315.5       0.00       6.78        0.0
22:22             216        0.0         77       25.2      226.0       25.2       27.3       20.9     1012.0       36.9       24.2        0.0        0.0        0.0       0.00      315.8       0.00       6.78        0.0
22:24             219        0.0         77       25.2      226.0       25.2       27.3       20.9     1012.0       36.9       24.2        0.0        0.0        0.0       0.00      316.1       0.00       6.78        0.0
22:26             225        0.0         77       25.1      226.0       25.1       27.2       20.8     1012.0       36.9       24.2        0.0        0.0        0.0       0.00      316.5       0.00       6.78        0.0
22:28             225        0.0         77       25.1      226.0       25.1       27.2       20.7     1012.0       36.9       24.2        0.0        0.0        0.0       0.00      316.9       0.00       6.78        0.0
22:30             220        0.0         77       25.1      226.0       25.1       27.2       20.7     1012.0       36.9       24.2        0.0        0.0        0.0       0.00      317.4       0.00       6.78        0.0
22:32             227        0.0         77       25.0      226.0       25.0       27.1       20.7     1012.0       36.9       24.2        0.0        0.0        0.0       0.00      317.9       0.00       6.81        0.0
22:34             227        0.0         78       24.9      226.0       24.9       27.1       20.8     1012.0       36.9       24.2        0.0        0.0        0.0       0.00      318.4       0.00       6.81        0.0
22:35             228        0.0         78       24.8      226.0       24.8       27.0       20.7     1012.0       36.9       24.2        0.0        0.0        0.0       0.00      318.7       0.00       6.81        0.0
22:38             232        0.0         78       24.8      226.0       24.8       27.0       20.7     1012.0       36.9       24.2        0.0        0.0        0.0       0.00      319.1       0.00       6.81        0.0
22:40             223        0.0         78       24.8      226.0       24.8       27.0       20.7     1012.1       36.9       24.2        0.0        0.0        0.0       0.00      319.7       0.00       6.81        0.0
22:42             219        0.0         79       24.7      226.0       24.7       27.0       20.8     1012.0       36.9       24.2        0.0        0.0        0.0       0.00      320.3       0.00       6.81        0.0
22:44             219        0.0         79       24.7      226.0       24.7       26.9       20.8     1012.1       36.9       24.2        0.0        0.0        0.0       0.00      320.8       0.00       6.81        0.0
22:46             227        0.0         79       24.7      226.0       24.7       26.9       20.8     1012.0       36.9       24.2        0.0        0.0        0.0       0.00      321.3       0.00       6.84        0.0
22:48             231        0.0         79       24.6      226.0       24.6       26.9       20.7     1012.1       36.9       24.2        0.0        0.0        0.0       0.00      322.1       0.00       6.84        0.0
22:50             226        0.0         79       24.6      226.0       24.6       26.9       20.7     1012.2       36.9       24.2        0.0        0.0        0.0       0.00      322.5       0.00       6.84        0.0
22:52             219        0.0         79       24.6      226.0       24.6       26.8       20.7     1012.1       36.9       24.2        0.0        0.0        0.0       0.00      322.9       0.00       6.84        0.0
22:53             229        0.0         80       24.5      226.0       24.5       26.8       20.8     1012.2       36.9       24.2        0.0        0.0        0.0       0.00      323.3       0.00       6.84        0.0
22:56             221        0.0         80       24.5      226.0       24.5       26.8       20.8     1012.2       36.9       24.2        0.0        0.0        0.0       0.00      323.8       0.00       6.84        0.0
22:58             224        0.0         80       24.4      226.0       24.4       26.8       20.8     1012.1       36.9       24.2        0.0        0.0        0.0       0.00      324.3       0.00       6.84        0.0
23:00             223        0.0         80       24.4      226.0       24.4       26.8       20.8     1012.2       36.9       24.2        0.0        0.0        0.0       0.00      324.7       0.00       6.84        0.0
23:02             225        0.0         80       24.4      226.0       24.4       26.7       20.7     1012.1       36.9       24.2        0.0        0.0        0.0       0.00      325.0       0.00       6.87        0.0
23:03             212        0.0         80       24.4      226.0       24.4       26.7       20.7     1012.2       36.9       24.2        0.0        0.0        0.0       0.00      325.6       0.00       6.87        0.0
23:06             210        0.0         80       24.4      226.0       24.4       26.7       20.7     1012.1       36.9       24.2        0.0        0.0        0.0       0.00      326.0       0.00       6.87        0.0
23:08             211        0.0         80       24.3      226.0       24.3       26.7       20.7     1012.2       36.9       24.2        0.0        0.0        0.0       0.00      326.4       0.00       6.87        0.0
23:10             212        0.0         80       24.3      226.0       24.3       26.7       20.7     1012.2       36.9       24.2        0.0        0.0        0.0       0.00      326.7       0.00       6.87        0.0
23:12             218        0.0         81       24.3      226.0       24.3       26.8       20.9     1012.2       36.9       24.2        0.0        0.0        0.0       0.00      327.1       0.00       6.87        0.0
23:14             220        0.0         81       24.3      226.0       24.3       26.7       20.8     1012.3       36.9       24.2        0.0        0.0        0.0       0.00      327.4       0.00       6.87        0.0
23:16             221        0.0         81       24.2      226.0       24.2       26.6       20.8     1012.2       36.9       24.2        0.0        0.0        0.0       0.00      327.7       0.00       6.89        0.0
23:18             221        0.0         81       24.2      226.0       24.2       26.6       20.8     1012.3       36.9       24.2        0.0        0.0        0.0       0.00      328.1       0.00       6.89        0.0
23:20             221        0.0         81       24.2      226.0       24.2       26.6       20.7     1012.2       36.9       24.2        0.0        0.0        0.0       0.00      328.4       0.00       6.89        0.0
23:22             221        0.0         81       24.2      226.0       24.2       26.6       20.7     1012.3       36.9       24.2        0.0        0.0        0.0       0.00      328.6       0.00       6.89        0.0
23:24             221        0.0         81       24.2      226.0       24.2       26.6       20.7     1012.3       36.9       24.2        0.0        0.0        0.0       0.00      329.0       0.00       6.89        0.0
23:26             218        0.0         81       24.1      226.0       24.1       26.5       20.6     1012.4       36.9       24.1        0.0        0.0        0.0       0.00      329.2       0.00       6.89        0.0
23:28             223        0.0         81       24.1      226.0       24.1       26.5       20.6     1012.4       36.9       24.1        0.0        0.0        0.0       0.00      329.7       0.00       6.89        0.0
23:30             223        0.0         81       24.1      226.0       24.1       26.5       20.6     1012.3       36.9       24.1        0.0        0.0        0.0       0.00      330.0       0.00       6.89        0.0
23:32             223        0.0         81       24.1      226.0       24.1       26.5       20.6     1012.3       36.9       24.1        0.0        0.0        0.0       0.00      330.3       0.00       6.91        0.0
23:34             223        0.0         81       24.0      226.0       24.0       26.4       20.5     1012.3       36.9       24.0        0.0        0.0        0.0       0.00      330.6       0.00       6.91        0.0
23:36             223        0.0         82       24.0      226.0       24.0       26.5       20.7     1012.3       36.9       24.0        0.0        0.0        0.0       0.00      331.0       0.00       6.91        0.0
23:37             223        0.0         82       24.0      226.0       24.0       26.5       20.7     1012.3       36.9       24.0        0.0        0.0        0.0       0.00      331.2       0.00       6.91        0.0
23:40             224        0.0         82       23.9      226.0       23.9       26.4       20.7     1012.2       36.9       23.9        0.0        0.0        0.0       0.00      331.4       0.00       6.91        0.0
23:42             227        0.0         82       23.9      226.0       23.9       26.4       20.7     1012.1       36.9       23.9        0.0        0.0        0.0       0.00      331.7       0.00       6.91        0.0
23:44             239        0.0         82       23.9      226.0       23.9       26.4       20.6     1012.2       36.9       23.9        0.0        0.0        0.0       0.00      332.3       0.00       6.91        0.0
23:46             241        0.0         82       23.9      226.0       23.9       26.4       20.6     1012.2       36.9       23.9        0.0        0.0        0.0       0.00      332.6       0.00       6.93        0.0
23:48             242        0.0         82       23.8      226.0       23.8       26.3       20.6     1012.1       36.9       23.8        0.0        0.0        0.0       0.00      332.9       0.00       6.93        0.0
23:50             244        0.0         82       23.8      226.0       23.8       26.3       20.6     1012.1       36.9       23.8        0.0        0.0        0.0       0.00      333.3       0.00       6.93        0.0
23:52             244        0.0         83       23.8      226.0       23.8       26.4       20.8     1012.1       36.9       23.8        0.0        0.0        0.0       0.00      333.8       0.00       6.93        0.0
23:54             248        0.0         83       23.8      226.0       23.8       26.4       20.8     1012.1       36.9       23.8        0.0        0.0        0.0       0.00      334.3       0.00       6.93        0.0
23:56             248        0.0         83       23.8      226.0       23.8       26.4       20.7     1012.0       36.9       23.8        0.0        0.0        0.0       0.00      334.6       0.00       6.93        0.0
23:58             246        0.0         83       23.7      226.0       23.7       26.3       20.7     1012.0       36.9       23.7        0.0        0.0        0.0       0.00      335.0       0.00       6.93        0.0


Detalle de hace 2 das:

28/7/21
Time         Wind Dir  Wind Gust   Humidity       Temp   Tot Rain Wind Chill Heat Index  Dew Point   Barom SL Temp Out H Temp Out L  DailyRain   HourRain   24HrRain   RainRate   Wind Run   Deg Heat   Deg Cool  MonthRain
                          km/hr          %         C         mm         C         C         C         mb         C         C         mm         mm         mm      mm/hr         km         C         C         mm
0:00              217        0.0         62       24.8      226.0       24.8       25.9       17.0     1009.5       24.8       24.8        0.0        0.0        0.0       0.00      185.5       0.00       6.60        0.0
0:02              217        0.0         63       24.7      226.0       24.7       25.9       17.2     1009.5       24.8       24.7        0.0        0.0        0.0       0.00        0.3       0.00       0.03        0.0
0:04              217        0.0         63       24.7      226.0       24.7       25.9       17.2     1009.4       24.8       24.7        0.0        0.0        0.0       0.00        0.6       0.00       0.03        0.0
0:06              217        0.0         63       24.6      226.0       24.6       25.8       17.1     1009.4       24.8       24.6        0.0        0.0        0.0       0.00        1.0       0.00       0.03        0.0
0:08              217        0.0         63       24.6      226.0       24.6       25.8       17.1     1009.4       24.8       24.6        0.0        0.0        0.0       0.00        1.3       0.00       0.03        0.0
0:10              217        0.0         63       24.6      226.0       24.6       25.7       17.1     1009.5       24.8       24.6        0.0        0.0        0.0       0.00        1.6       0.00       0.03        0.0
0:12              217        0.0         63       24.6      226.0       24.6       25.7       17.1     1009.5       24.8       24.6        0.0        0.0        0.0       0.00        1.9       0.00       0.03        0.0
0:14              217        0.0         64       24.5      226.0       24.5       25.8       17.3     1009.4       24.8       24.5        0.0        0.0        0.0       0.00        2.3       0.00       0.03        0.0
0:15              217        0.0         64       24.4      226.0       24.4       25.7       17.2     1009.3       24.8       24.4        0.0        0.0        0.0       0.00        2.8       0.00       0.05        0.0
0:18              209        0.0         64       24.4      226.0       24.4       25.6       17.1     1009.4       24.8       24.4        0.0        0.0        0.0       0.00        3.3       0.00       0.05        0.0
0:20              216        0.0         65       24.3      226.0       24.3       25.6       17.3     1009.4       24.8       24.3        0.0        0.0        0.0       0.00        3.8       0.00       0.05        0.0
0:22              215        0.0         65       24.2      226.0       24.2       25.5       17.2     1009.4       24.8       24.2        0.0        0.0        0.0       0.00        4.3       0.00       0.05        0.0
0:24              214        0.0         65       24.1      226.0       24.1       25.4       17.1     1009.5       24.8       24.1        0.0        0.0        0.0       0.00        4.7       0.00       0.05        0.0
0:26              213        0.0         66       24.1      226.0       24.1       25.4       17.3     1009.5       24.8       24.1        0.0        0.0        0.0       0.00        5.1       0.00       0.05        0.0
0:28              209        0.0         66       24.0      226.0       24.0       25.4       17.3     1009.5       24.8       24.0        0.0        0.0        0.0       0.00        5.6       0.00       0.05        0.0
0:30              207        0.0         66       23.9      226.0       23.9       25.3       17.2     1009.6       24.8       23.9        0.0        0.0        0.0       0.00        6.2       0.00       0.05        0.0
0:32              208        0.0         66       23.8      226.0       23.8       25.2       17.1     1009.6       24.8       23.8        0.0        0.0        0.0       0.00        6.8       0.00       0.07        0.0
0:34              208        0.0         66       23.8      226.0       23.8       25.2       17.1     1009.6       24.8       23.8        0.0        0.0        0.0       0.00        7.1       0.00       0.07        0.0
0:36              207        0.0         66       23.7      226.0       23.7       25.1       17.0     1009.6       24.8       23.7        0.0        0.0        0.0       0.00        7.6       0.00       0.07        0.0
0:37              217        0.0         66       23.7      226.0       23.7       25.0       16.9     1009.6       24.8       23.7        0.0        0.0        0.0       0.00        8.2       0.00       0.07        0.0
0:40              216        0.0         67       23.6      226.0       23.6       25.1       17.1     1009.6       24.8       23.6        0.0        0.0        0.0       0.00        8.7       0.00       0.07        0.0
0:42              209        0.0         67       23.6      226.0       23.6       25.0       17.1     1009.5       24.8       23.6        0.0        0.0        0.0       0.00        9.3       0.00       0.07        0.0
0:43              216        0.0         67       23.5      226.0       23.5       24.9       17.0     1009.5       24.8       23.5        0.0        0.0        0.0       0.00        9.8       0.00       0.07        0.0
0:46              217        0.0         67       23.4      226.0       23.4       24.8       16.9     1009.5       24.8       23.4        0.0        0.0        0.0       0.00       10.2       0.00       0.09        0.0
0:48              221        0.0         68       23.3      226.0       23.3       24.8       17.1     1009.6       24.8       23.3        0.0        0.0        0.0       0.00       10.5       0.00       0.09        0.0
0:49              220        0.0         68       23.3      226.0       23.3       24.8       17.0     1009.6       24.8       23.3        0.0        0.0        0.0       0.00       11.0       0.00       0.09        0.0
0:52              220        0.0         68       23.2      226.0       23.2       24.7       17.0     1009.5       24.8       23.2        0.0        0.0        0.0       0.00       11.3       0.00       0.09        0.0
0:54              223        0.0         68       23.2      226.0       23.2       24.7       17.0     1009.6       24.8       23.2        0.0        0.0        0.0       0.00       11.7       0.00       0.09        0.0
0:56              224        0.0         68       23.1      226.0       23.1       24.6       16.9     1009.5       24.8       23.1        0.0        0.0        0.0       0.00       12.1       0.00       0.09        0.0
0:58              227        0.0         69       23.1      226.0       23.1       24.6       17.1     1009.4       24.8       23.1        0.0        0.0        0.0       0.00       12.5       0.00       0.09        0.0
1:00              229        0.0         69       23.0      226.0       23.0       24.6       17.0     1009.5       24.8       23.0        0.0        0.0        0.0       0.00       12.9       0.00       0.09        0.0
1:01              229        0.0         69       22.9      226.0       22.9       24.5       17.0     1009.4       24.8       22.9        0.0        0.0        0.0       0.00       13.3       0.00       0.10        0.0
1:04              231        0.0         69       22.9      226.0       22.9       24.5       16.9     1009.4       24.8       22.9        0.0        0.0        0.0       0.00       13.6       0.00       0.10        0.0
1:06              232        0.0         69       22.8      226.0       22.8       24.4       16.9     1009.4       24.8       22.8        0.0        0.0        0.0       0.00       14.0       0.00       0.10        0.0
1:08              234        0.0         69       22.8      226.0       22.8       24.4       16.9     1009.4       24.8       22.8        0.0        0.0        0.0       0.00       14.4       0.00       0.10        0.0
1:10              235        0.0         69       22.8      226.0       22.8       24.4       16.9     1009.3       24.8       22.8        0.0        0.0        0.0       0.00       14.9       0.00       0.10        0.0
1:12              236        0.0         69       22.8      226.0       22.8       24.4       16.9     1009.3       24.8       22.8        0.0        0.0        0.0       0.00       15.3       0.00       0.10        0.0
1:14              236        0.0         69       22.8      226.0       22.8       24.4       16.8     1009.3       24.8       22.8        0.0        0.0        0.0       0.00       15.7       0.00       0.10        0.0
1:15              236        0.0         69       22.8      226.0       22.8       24.4       16.8     1009.4       24.8       22.8        0.0        0.0        0.0       0.00       15.9       0.00       0.11        0.0
1:18              236        0.0         69       22.8      226.0       22.8       24.4       16.9     1009.4       24.8       22.8        0.0        0.0        0.0       0.00       16.2       0.00       0.11        0.0
1:20              237        0.0         69       22.8      226.0       22.8       24.4       16.9     1009.3       24.8       22.8        0.0        0.0        0.0       0.00       16.6       0.00       0.11        0.0
1:22              237        0.0         69       22.8      226.0       22.8       24.4       16.9     1009.3       24.8       22.8        0.0        0.0        0.0       0.00       16.9       0.00       0.11        0.0
1:24              237        0.0         69       22.8      226.0       22.8       24.4       16.9     1009.2       24.8       22.8        0.0        0.0        0.0       0.00       17.1       0.00       0.11        0.0
1:26              237        0.0         69       22.8      226.0       22.8       24.4       16.9     1009.3       24.8       22.8        0.0        0.0        0.0       0.00       17.5       0.00       0.11        0.0
1:28              238        0.0         69       22.8      226.0       22.8       24.4       16.9     1009.3       24.8       22.8        0.0        0.0        0.0       0.00       17.8       0.00       0.11        0.0
1:30              238        0.0         69       22.9      226.0       22.9       24.5       16.9     1009.2       24.8       22.8        0.0        0.0        0.0       0.00       18.2       0.00       0.11        0.0
1:32              238        0.0         69       22.9      226.0       22.9       24.5       16.9     1009.2       24.8       22.8        0.0        0.0        0.0       0.00       18.5       0.00       0.12        0.0
1:34              238        0.0         69       22.9      226.0       22.9       24.5       16.9     1009.1       24.8       22.8        0.0        0.0        0.0       0.00       18.7       0.00       0.12        0.0
1:36              238        0.0         69       22.9      226.0       22.9       24.5       16.9     1009.2       24.8       22.8        0.0        0.0        0.0       0.00       19.0       0.00       0.12        0.0
1:38              240        0.0         69       22.9      226.0       22.9       24.5       16.9     1009.2       24.8       22.8        0.0        0.0        0.0       0.00       19.4       0.00       0.12        0.0
1:40              240        0.0         68       22.8      226.0       22.8       24.3       16.6     1009.3       24.8       22.8        0.0        0.0        0.0       0.00       19.7       0.00       0.12        0.0
1:42              240        0.0         68       22.8      226.0       22.8       24.3       16.6     1009.3       24.8       22.8        0.0        0.0        0.0       0.00       20.0       0.00       0.12        0.0
1:44              240        0.0         68       22.8      226.0       22.8       24.3       16.6     1009.2       24.8       22.8        0.0        0.0        0.0       0.00       20.3       0.00       0.12        0.0
1:45              240        0.0         68       22.8      226.0       22.8       24.3       16.6     1009.2       24.8       22.8        0.0        0.0        0.0       0.00       20.7       0.00       0.13        0.0
1:48              240        0.0         68       22.9      226.0       22.9       24.4       16.7     1009.3       24.8       22.8        0.0        0.0        0.0       0.00       21.0       0.00       0.13        0.0
1:50              240        0.0         68       22.9      226.0       22.9       24.4       16.7     1009.1       24.8       22.8        0.0        0.0        0.0       0.00       21.2       0.00       0.13        0.0
1:52              240        0.0         68       22.9      226.0       22.9       24.4       16.7     1009.2       24.8       22.8        0.0        0.0        0.0       0.00       21.4       0.00       0.13        0.0
1:54              240        0.0         68       22.9      226.0       22.9       24.4       16.7     1009.2       24.8       22.8        0.0        0.0        0.0       0.00       21.7       0.00       0.13        0.0
1:55              240        0.0         68       22.9      226.0       22.9       24.4       16.7     1009.3       24.8       22.8        0.0        0.0        0.0       0.00       22.0       0.00       0.13        0.0
1:58              240        0.0         68       22.9      226.0       22.9       24.4       16.7     1009.2       24.8       22.8        0.0        0.0        0.0       0.00       22.4       0.00       0.13        0.0
2:00              240        0.0         67       22.9      226.0       22.9       24.3       16.4     1009.1       24.8       22.8        0.0        0.0        0.0       0.00       22.7       0.00       0.13        0.0
2:02              240        0.0         67       22.9      226.0       22.9       24.3       16.4     1009.3       24.8       22.8        0.0        0.0        0.0       0.00       23.1       0.00       0.14        0.0
2:04              240        0.0         67       22.9      226.0       22.9       24.4       16.5     1009.2       24.8       22.8        0.0        0.0        0.0       0.00       23.5       0.00       0.14        0.0
2:06              240        0.0         67       22.9      226.0       22.9       24.4       16.5     1009.0       24.8       22.8        0.0        0.0        0.0       0.00       24.0       0.00       0.14        0.0
2:08              240        0.0         67       23.0      226.0       23.0       24.4       16.5     1009.1       24.8       22.8        0.0        0.0        0.0       0.00       24.3       0.00       0.14        0.0
2:09              240        0.0         67       23.0      226.0       23.0       24.4       16.5     1009.1       24.8       22.8        0.0        0.0        0.0       0.00       24.7       0.00       0.14        0.0
2:12              240        0.0         67       23.1      226.0       23.1       24.5       16.6     1009.1       24.8       22.8        0.0        0.0        0.0       0.00       25.0       0.00       0.14        0.0
2:14              236        0.0         66       23.1      226.0       23.1       24.5       16.4     1009.1       24.8       22.8        0.0        0.0        0.0       0.00       25.5       0.00       0.14        0.0
2:15              236        0.0         66       23.1      226.0       23.1       24.5       16.4     1009.1       24.8       22.8        0.0        0.0        0.0       0.00       25.8       0.00       0.15        0.0
2:18              236        0.0         66       23.1      226.0       23.1       24.5       16.4     1009.1       24.8       22.8        0.0        0.0        0.0       0.00       26.1       0.00       0.15        0.0
2:20              236        0.0         66       23.1      226.0       23.1       24.5       16.4     1009.1       24.8       22.8        0.0        0.0        0.0       0.00       26.5       0.00       0.15        0.0
2:22              236        0.0         66       23.1      226.0       23.1       24.5       16.4     1009.1       24.8       22.8        0.0        0.0        0.0       0.00       26.9       0.00       0.15        0.0
2:24              236        0.0         66       23.1      226.0       23.1       24.5       16.4     1009.1       24.8       22.8        0.0        0.0        0.0       0.00       27.2       0.00       0.15        0.0
2:26              236        0.0         66       23.2      226.0       23.2       24.5       16.5     1009.1       24.8       22.8        0.0        0.0        0.0       0.00       27.5       0.00       0.15        0.0
2:28              236        0.0         66       23.1      226.0       23.1       24.5       16.4     1009.1       24.8       22.8        0.0        0.0        0.0       0.00       27.7       0.00       0.15        0.0
2:30              236        0.0         66       23.1      226.0       23.1       24.5       16.4     1009.2       24.8       22.8        0.0        0.0        0.0       0.00       27.9       0.00       0.15        0.0
2:32              236        0.0         66       23.1      226.0       23.1       24.5       16.4     1009.0       24.8       22.8        0.0        0.0        0.0       0.00       28.2       0.00       0.16        0.0
2:34              236        0.0         66       23.1      226.0       23.1       24.5       16.4     1009.1       24.8       22.8        0.0        0.0        0.0       0.00       28.5       0.00       0.16        0.0
2:35              236        0.0         66       23.2      226.0       23.2       24.5       16.5     1009.1       24.8       22.8        0.0        0.0        0.0       0.00       28.7       0.00       0.16        0.0
2:37              236        0.0         66       23.2      226.0       23.2       24.5       16.5     1009.0       24.8       22.8        0.0        0.0        0.0       0.00       28.9       0.00       0.16        0.0
2:40              236        0.0         66       23.2      226.0       23.2       24.6       16.5     1009.1       24.8       22.8        0.0        0.0        0.0       0.00       29.2       0.00       0.16        0.0
2:42              236        0.0         66       23.2      226.0       23.2       24.6       16.5     1009.0       24.8       22.8        0.0        0.0        0.0       0.00       29.4       0.00       0.16        0.0
2:44              236        0.0         66       23.3      226.0       23.3       24.7       16.6     1009.0       24.8       22.8        0.0        0.0        0.0       0.00       29.7       0.00       0.16        0.0
2:46              236        0.0         66       23.3      226.0       23.3       24.7       16.6     1009.1       24.8       22.8        0.0        0.0        0.0       0.00       29.9       0.00       0.17        0.0
2:47              236        0.0         66       23.3      226.0       23.3       24.7       16.6     1008.9       24.8       22.8        0.0        0.0        0.0       0.00       30.2       0.00       0.17        0.0
2:50              236        0.0         66       23.4      226.0       23.4       24.8       16.7     1009.1       24.8       22.8        0.0        0.0        0.0       0.00       30.5       0.00       0.17        0.0
2:52              236        0.0         66       23.4      226.0       23.4       24.8       16.7     1009.0       24.8       22.8        0.0        0.0        0.0       0.00       30.8       0.00       0.17        0.0
2:54              236        0.0         66       23.4      226.0       23.4       24.8       16.7     1009.0       24.8       22.8        0.0        0.0        0.0       0.00       31.0       0.00       0.17        0.0
2:56              236        0.0         66       23.4      226.0       23.4       24.8       16.7     1009.0       24.8       22.8        0.0        0.0        0.0       0.00       31.3       0.00       0.17        0.0
2:58              236        0.0         66       23.4      226.0       23.4       24.8       16.7     1009.0       24.8       22.8        0.0        0.0        0.0       0.00       31.5       0.00       0.17        0.0
3:00              236        0.0         66       23.4      226.0       23.4       24.8       16.7     1009.0       24.8       22.8        0.0        0.0        0.0       0.00       31.8       0.00       0.17        0.0
3:02              236        0.0         66       23.4      226.0       23.4       24.8       16.7     1009.1       24.8       22.8        0.0        0.0        0.0       0.00       32.0       0.00       0.19        0.0
3:04              236        0.0         66       23.4      226.0       23.4       24.8       16.7     1009.0       24.8       22.8        0.0        0.0        0.0       0.00       32.3       0.00       0.19        0.0
3:06              236        0.0         66       23.3      226.0       23.3       24.7       16.6     1009.0       24.8       22.8        0.0        0.0        0.0       0.00       32.6       0.00       0.19        0.0
3:08              236        0.0         66       23.3      226.0       23.3       24.7       16.6     1009.0       24.8       22.8        0.0        0.0        0.0       0.00       32.8       0.00       0.19        0.0
3:09              236        0.0         66       23.3      226.0       23.3       24.7       16.6     1009.0       24.8       22.8        0.0        0.0        0.0       0.00       33.1       0.00       0.19        0.0
3:12              236        0.0         66       23.3      226.0       23.3       24.7       16.6     1009.1       24.8       22.8        0.0        0.0        0.0       0.00       33.3       0.00       0.19        0.0
3:14              236        0.0         66       23.3      226.0       23.3       24.7       16.6     1009.0       24.8       22.8        0.0        0.0        0.0       0.00       33.4       0.00       0.19        0.0
3:16              236        0.0         66       23.2      226.0       23.2       24.6       16.5     1009.0       24.8       22.8        0.0        0.0        0.0       0.00       33.5       0.00       0.20        0.0
3:18              236        0.0         66       23.2      226.0       23.2       24.6       16.5     1009.0       24.8       22.8        0.0        0.0        0.0       0.00       33.7       0.00       0.20        0.0
3:20              236        0.0         66       23.2      226.0       23.2       24.6       16.5     1009.0       24.8       22.8        0.0        0.0        0.0       0.00       33.8       0.00       0.20        0.0
3:22              236        0.0         66       23.2      226.0       23.2       24.6       16.5     1009.0       24.8       22.8        0.0        0.0        0.0       0.00       33.8       0.00       0.20        0.0
3:24              236        0.0         66       23.2      226.0       23.2       24.6       16.5     1008.9       24.8       22.8        0.0        0.0        0.0       0.00       33.8       0.00       0.20        0.0
3:25              236        0.0         66       23.2      226.0       23.2       24.6       16.5     1009.0       24.8       22.8        0.0        0.0        0.0       0.00       33.8       0.00       0.20        0.0
3:28              236        0.0         66       23.2      226.0       23.2       24.6       16.5     1008.9       24.8       22.8        0.0        0.0        0.0       0.00       33.8       0.00       0.20        0.0
3:30              236        0.0         66       23.2      226.0       23.2       24.6       16.5     1008.9       24.8       22.8        0.0        0.0        0.0       0.00       33.9       0.00       0.20        0.0
3:32              236        0.0         66       23.2      226.0       23.2       24.6       16.5     1009.0       24.8       22.8        0.0        0.0        0.0       0.00       34.0       0.00       0.21        0.0
3:34              236        0.0         66       23.2      226.0       23.2       24.6       16.5     1008.9       24.8       22.8        0.0        0.0        0.0       0.00       34.0       0.00       0.21        0.0
3:36              236        0.0         66       23.2      226.0       23.2       24.5       16.5     1008.9       24.8       22.8        0.0        0.0        0.0       0.00       34.1       0.00       0.21        0.0
3:38              236        0.0         66       23.2      226.0       23.2       24.5       16.5     1008.9       24.8       22.8        0.0        0.0        0.0       0.00       34.1       0.00       0.21        0.0
3:40              236        0.0         66       23.2      226.0       23.2       24.5       16.5     1008.9       24.8       22.8        0.0        0.0        0.0       0.00       34.2       0.00       0.21        0.0
3:42              236        0.0         66       23.2      226.0       23.2       24.5       16.5     1008.9       24.8       22.8        0.0        0.0        0.0       0.00       34.2       0.00       0.21        0.0
3:44              236        0.0         66       23.2      226.0       23.2       24.6       16.5     1008.9       24.8       22.8        0.0        0.0        0.0       0.00       34.2       0.00       0.21        0.0
3:46              236        0.0         66       23.2      226.0       23.2       24.6       16.5     1008.9       24.8       22.8        0.0        0.0        0.0       0.00       34.2       0.00       0.23        0.0
3:47              236        0.0         66       23.2      226.0       23.2       24.6       16.5     1008.9       24.8       22.8        0.0        0.0        0.0       0.00       34.2       0.00       0.23        0.0
3:49              236        0.0         66       23.2      226.0       23.2       24.5       16.5     1008.9       24.8       22.8        0.0        0.0        0.0       0.00       34.2       0.00       0.23        0.0
3:52              236        0.0         66       23.2      226.0       23.2       24.5       16.5     1008.9       24.8       22.8        0.0        0.0        0.0       0.00       34.2       0.00       0.23        0.0
3:53              236        0.0         66       23.2      226.0       23.2       24.5       16.5     1008.9       24.8       22.8        0.0        0.0        0.0       0.00       34.2       0.00       0.23        0.0
3:56              236        0.0         66       23.2      226.0       23.2       24.5       16.5     1009.0       24.8       22.8        0.0        0.0        0.0       0.00       34.2       0.00       0.23        0.0
3:58              236        0.0         66       23.2      226.0       23.2       24.5       16.5     1008.9       24.8       22.8        0.0        0.0        0.0       0.00       34.2       0.00       0.23        0.0
4:00              236        0.0         66       23.2      226.0       23.2       24.5       16.5     1008.9       24.8       22.8        0.0        0.0        0.0       0.00       34.2       0.00       0.23        0.0
4:02              236        0.0         66       23.2      226.0       23.2       24.5       16.5     1008.9       24.8       22.8        0.0        0.0        0.0       0.00       34.2       0.00       0.24        0.0
4:03              236        0.0         66       23.1      226.0       23.1       24.5       16.4     1008.9       24.8       22.8        0.0        0.0        0.0       0.00       34.2       0.00       0.24        0.0
4:06              236        0.0         66       23.1      226.0       23.1       24.5       16.4     1009.0       24.8       22.8        0.0        0.0        0.0       0.00       34.2       0.00       0.24        0.0
4:07              236        0.0         66       23.1      226.0       23.1       24.4       16.4     1008.9       24.8       22.8        0.0        0.0        0.0       0.00       34.2       0.00       0.24        0.0
4:10              236        0.0         66       23.1      226.0       23.1       24.4       16.4     1008.9       24.8       22.8        0.0        0.0        0.0       0.00       34.2       0.00       0.24        0.0
4:12              236        0.0         66       23.0      226.0       23.0       24.4       16.3     1009.0       24.8       22.8        0.0        0.0        0.0       0.00       34.2       0.00       0.24        0.0
4:14              236        0.0         67       23.0      226.0       23.0       24.4       16.5     1008.9       24.8       22.8        0.0        0.0        0.0       0.00       34.2       0.00       0.24        0.0
4:15              236        0.0         67       23.0      226.0       23.0       24.4       16.5     1009.0       24.8       22.8        0.0        0.0        0.0       0.00       34.3       0.00       0.25        0.0
4:18              236        0.0         67       23.0      226.0       23.0       24.4       16.5     1009.0       24.8       22.8        0.0        0.0        0.0       0.00       34.4       0.00       0.25        0.0
4:20              236        0.0         67       23.0      226.0       23.0       24.4       16.5     1009.0       24.8       22.8        0.0        0.0        0.0       0.00       34.5       0.00       0.25        0.0
4:21              236        0.0         67       22.9      226.0       22.9       24.4       16.5     1008.9       24.8       22.8        0.0        0.0        0.0       0.00       34.5       0.00       0.25        0.0
4:24              236        0.0         68       23.0      226.0       23.0       24.5       16.8     1008.9       24.8       22.8        0.0        0.0        0.0       0.00       34.6       0.00       0.25        0.0
4:26              236        0.0         68       22.9      226.0       22.9       24.5       16.7     1009.1       24.8       22.8        0.0        0.0        0.0       0.00       34.8       0.00       0.25        0.0
4:28              236        0.0         68       23.0      226.0       23.0       24.5       16.8     1009.0       24.8       22.8        0.0        0.0        0.0       0.00       34.8       0.00       0.25        0.0
4:30              236        0.0         68       22.9      226.0       22.9       24.5       16.7     1009.0       24.8       22.8        0.0        0.0        0.0       0.00       34.8       0.00       0.25        0.0
4:32              236        0.0         68       23.0      226.0       23.0       24.5       16.8     1009.0       24.8       22.8        0.0        0.0        0.0       0.00       34.8       0.00       0.26        0.0
4:34              236        0.0         68       22.9      226.0       22.9       24.5       16.7     1009.0       24.8       22.8        0.0        0.0        0.0       0.00       34.8       0.00       0.26        0.0
4:36              236        0.0         68       22.9      226.0       22.9       24.5       16.7     1009.0       24.8       22.8        0.0        0.0        0.0       0.00       34.9       0.00       0.26        0.0
4:37              236        0.0         68       22.9      226.0       22.9       24.5       16.7     1009.1       24.8       22.8        0.0        0.0        0.0       0.00       34.9       0.00       0.26        0.0
4:40              236        0.0         68       22.9      226.0       22.9       24.5       16.7     1009.1       24.8       22.8        0.0        0.0        0.0       0.00       34.9       0.00       0.26        0.0
4:42              236        0.0         68       22.9      226.0       22.9       24.5       16.7     1009.2       24.8       22.8        0.0        0.0        0.0       0.00       34.9       0.00       0.26        0.0
4:44              236        0.0         68       22.9      226.0       22.9       24.4       16.7     1009.2       24.8       22.8        0.0        0.0        0.0       0.00       34.9       0.00       0.26        0.0
4:45              236        0.0         68       22.9      226.0       22.9       24.4       16.7     1009.2       24.8       22.8        0.0        0.0        0.0       0.00       34.9       0.00       0.27        0.0
4:48              236        0.0         68       22.9      226.0       22.9       24.4       16.7     1009.1       24.8       22.8        0.0        0.0        0.0       0.00       34.9       0.00       0.27        0.0
4:50              236        0.0         68       22.9      226.0       22.9       24.4       16.7     1009.1       24.8       22.8        0.0        0.0        0.0       0.00       34.9       0.00       0.27        0.0
4:51              236        0.0         68       22.8      226.0       22.8       24.3       16.6     1009.2       24.8       22.8        0.0        0.0        0.0       0.00       34.9       0.00       0.27        0.0
4:54              236        0.0         68       22.8      226.0       22.8       24.3       16.6     1009.2       24.8       22.8        0.0        0.0        0.0       0.00       34.9       0.00       0.27        0.0
4:55              236        0.0         69       22.8      226.0       22.8       24.4       16.9     1009.2       24.8       22.8        0.0        0.0        0.0       0.00       34.9       0.00       0.27        0.0
4:57              236        0.0         69       22.8      226.0       22.8       24.4       16.9     1009.2       24.8       22.8        0.0        0.0        0.0       0.00       34.9       0.00       0.27        0.0
5:00              236        0.0         69       22.8      226.0       22.8       24.4       16.8     1009.3       24.8       22.8        0.0        0.0        0.0       0.00       35.0       0.00       0.27        0.0
5:02              236        0.0         69       22.8      226.0       22.8       24.4       16.8     1009.3       24.8       22.8        0.0        0.0        0.0       0.00       35.0       0.00       0.27        0.0
5:04              236        0.0         69       22.8      226.0       22.8       24.4       16.8     1009.3       24.8       22.8        0.0        0.0        0.0       0.00       35.0       0.00       0.27        0.0
5:06              236        0.0         69       22.7      226.0       22.7       24.3       16.7     1009.3       24.8       22.7        0.0        0.0        0.0       0.00       35.0       0.00       0.27        0.0
5:08              236        0.0         69       22.7      226.0       22.7       24.3       16.7     1009.3       24.8       22.7        0.0        0.0        0.0       0.00       35.1       0.00       0.27        0.0
5:10              236        0.0         69       22.7      226.0       22.7       24.3       16.7     1009.3       24.8       22.7        0.0        0.0        0.0       0.00       35.2       0.00       0.27        0.0
5:12              236        0.0         69       22.7      226.0       22.7       24.3       16.7     1009.4       24.8       22.7        0.0        0.0        0.0       0.00       35.2       0.00       0.27        0.0
5:14              236        0.0         69       22.7      226.0       22.7       24.3       16.7     1009.4       24.8       22.7        0.0        0.0        0.0       0.00       35.3       0.00       0.27        0.0
5:16              236        0.0         69       22.7      226.0       22.7       24.3       16.7     1009.4       24.8       22.7        0.0        0.0        0.0       0.00       35.3       0.00       0.28        0.0
5:18              236        0.0         69       22.7      226.0       22.7       24.3       16.7     1009.4       24.8       22.7        0.0        0.0        0.0       0.00       35.3       0.00       0.28        0.0
5:20              236        0.0         70       22.7      226.0       22.7       24.3       16.9     1009.4       24.8       22.7        0.0        0.0        0.0       0.00       35.3       0.00       0.28        0.0
5:22              236        0.0         70       22.7      226.0       22.7       24.3       16.9     1009.4       24.8       22.7        0.0        0.0        0.0       0.00       35.3       0.00       0.28        0.0
5:24              236        0.0         70       22.7      226.0       22.7       24.3       16.9     1009.5       24.8       22.7        0.0        0.0        0.0       0.00       35.3       0.00       0.28        0.0
5:26              236        0.0         70       22.7      226.0       22.7       24.3       16.9     1009.5       24.8       22.7        0.0        0.0        0.0       0.00       35.4       0.00       0.28        0.0
5:28              236        0.0         70       22.6      226.0       22.6       24.3       16.9     1009.5       24.8       22.6        0.0        0.0        0.0       0.00       35.4       0.00       0.28        0.0
5:30              236        0.0         70       22.6      226.0       22.6       24.3       16.9     1009.6       24.8       22.6        0.0        0.0        0.0       0.00       35.4       0.00       0.28        0.0
5:32              236        0.0         70       22.6      226.0       22.6       24.3       16.9     1009.6       24.8       22.6        0.0        0.0        0.0       0.00       35.4       0.00       0.29        0.0
5:34              236        0.0         70       22.6      226.0       22.6       24.3       16.9     1009.5       24.8       22.6        0.0        0.0        0.0       0.00       35.5       0.00       0.29        0.0
5:36              236        0.0         70       22.6      226.0       22.6       24.3       16.9     1009.5       24.8       22.6        0.0        0.0        0.0       0.00       35.5       0.00       0.29        0.0
5:38              236        0.0         70       22.6      226.0       22.6       24.3       16.9     1009.6       24.8       22.6        0.0        0.0        0.0       0.00       35.5       0.00       0.29        0.0
5:40              236        0.0         70       22.6      226.0       22.6       24.3       16.9     1009.4       24.8       22.6        0.0        0.0        0.0       0.00       35.5       0.00       0.29        0.0
5:42              236        0.0         71       22.6      226.0       22.6       24.3       17.1     1009.5       24.8       22.6        0.0        0.0        0.0       0.00       35.5       0.00       0.29        0.0
5:44              236        0.0         71       22.6      226.0       22.6       24.3       17.0     1009.5       24.8       22.6        0.0        0.0        0.0       0.00       35.5       0.00       0.29        0.0
5:46              236        0.0         71       22.6      226.0       22.6       24.3       17.1     1009.5       24.8       22.6        0.0        0.0        0.0       0.00       35.5       0.00       0.30        0.0
5:48              236        0.0         71       22.6      226.0       22.6       24.3       17.1     1009.6       24.8       22.6        0.0        0.0        0.0       0.00       35.5       0.00       0.30        0.0
5:50              236        0.0         71       22.6      226.0       22.6       24.3       17.1     1009.6       24.8       22.6        0.0        0.0        0.0       0.00       35.5       0.00       0.30        0.0
5:52              236        0.0         71       22.6      226.0       22.6       24.3       17.1     1009.6       24.8       22.6        0.0        0.0        0.0       0.00       35.5       0.00       0.30        0.0
5:54              236        0.0         71       22.6      226.0       22.6       24.3       17.0     1009.6       24.8       22.6        0.0        0.0        0.0       0.00       35.5       0.00       0.30        0.0
5:56              236        0.0         71       22.6      226.0       22.6       24.3       17.0     1009.6       24.8       22.6        0.0        0.0        0.0       0.00       35.6       0.00       0.30        0.0
5:58              236        0.0         71       22.6      226.0       22.6       24.3       17.0     1009.6       24.8       22.6        0.0        0.0        0.0       0.00       35.6       0.00       0.30        0.0
6:00              236        0.0         71       22.6      226.0       22.6       24.3       17.0     1009.7       24.8       22.6        0.0        0.0        0.0       0.00       35.7       0.00       0.30        0.0
6:01              236        0.0         71       22.6      226.0       22.6       24.3       17.0     1009.6       24.8       22.6        0.0        0.0        0.0       0.00       35.8       0.00       0.30        0.0
6:04              236        0.0         71       22.6      226.0       22.6       24.3       17.1     1009.7       24.8       22.6        0.0        0.0        0.0       0.00       35.8       0.00       0.30        0.0
6:06              236        0.0         71       22.6      226.0       22.6       24.3       17.1     1009.7       24.8       22.6        0.0        0.0        0.0       0.00       36.0       0.00       0.30        0.0
6:08              236        0.0         70       22.6      226.0       22.6       24.3       16.9     1009.8       24.8       22.6        0.0        0.0        0.0       0.00       36.2       0.00       0.30        0.0
6:10              236        0.0         70       22.6      226.0       22.6       24.3       16.9     1009.8       24.8       22.6        0.0        0.0        0.0       0.00       36.3       0.00       0.30        0.0
6:12              236        0.0         70       22.7      226.0       22.7       24.3       16.9     1009.8       24.8       22.6        0.0        0.0        0.0       0.00       36.3       0.00       0.30        0.0
6:14              236        0.0         70       22.7      226.0       22.7       24.4       17.0     1009.8       24.8       22.6        0.0        0.0        0.0       0.00       36.5       0.00       0.30        0.0
6:16              236        0.0         70       22.7      226.0       22.7       24.4       17.0     1009.8       24.8       22.6        0.0        0.0        0.0       0.00       36.6       0.00       0.31        0.0
6:18              236        0.0         70       22.7      226.0       22.7       24.4       17.0     1009.7       24.8       22.6        0.0        0.0        0.0       0.00       36.9       0.00       0.31        0.0
6:20              236        0.0         69       22.7      226.0       22.7       24.3       16.7     1009.7       24.8       22.6        0.0        0.0        0.0       0.00       37.0       0.00       0.31        0.0
6:21              236        0.0         69       22.7      226.0       22.7       24.3       16.7     1009.8       24.8       22.6        0.0        0.0        0.0       0.00       37.2       0.00       0.31        0.0
6:24              236        0.0         69       22.8      226.0       22.8       24.4       16.8     1009.8       24.8       22.6        0.0        0.0        0.0       0.00       37.2       0.00       0.31        0.0
6:26              236        0.0         69       22.8      226.0       22.8       24.4       16.8     1009.8       24.8       22.6        0.0        0.0        0.0       0.00       37.3       0.00       0.31        0.0
6:28              236        0.0         69       22.8      226.0       22.8       24.4       16.9     1009.8       24.8       22.6        0.0        0.0        0.0       0.00       37.6       0.00       0.31        0.0
6:30              236        0.0         69       22.8      226.0       22.8       24.4       16.9     1009.8       24.8       22.6        0.0        0.0        0.0       0.00       37.8       0.00       0.31        0.0
6:32              236        0.0         69       22.8      226.0       22.8       24.4       16.9     1009.8       24.8       22.6        0.0        0.0        0.0       0.00       38.0       0.00       0.32        0.0
6:34              236        0.0         70       22.9      226.0       22.9       24.5       17.1     1009.8       24.8       22.6        0.0        0.0        0.0       0.00       38.2       0.00       0.32        0.0
6:36              236        0.0         70       22.9      226.0       22.9       24.5       17.1     1009.8       24.8       22.6        0.0        0.0        0.0       0.00       38.4       0.00       0.32        0.0
6:38              236        0.0         69       22.9      226.0       22.9       24.5       17.0     1009.8       24.8       22.6        0.0        0.0        0.0       0.00       38.5       0.00       0.32        0.0
6:39              236        0.0         69       22.9      226.0       22.9       24.5       17.0     1009.8       24.8       22.6        0.0        0.0        0.0       0.00       38.7       0.00       0.32        0.0
6:41              236        0.0         69       22.9      226.0       22.9       24.5       17.0     1009.8       24.8       22.6        0.0        0.0        0.0       0.00       38.8       0.00       0.32        0.0
6:44              236        0.0         69       23.0      226.0       23.0       24.6       17.0     1009.8       24.8       22.6        0.0        0.0        0.0       0.00       39.0       0.00       0.32        0.0
6:45              236        0.0         69       23.1      226.0       23.1       24.6       17.1     1009.8       24.8       22.6        0.0        0.0        0.0       0.00       39.1       0.00       0.33        0.0
6:48              236        0.0         69       23.1      226.0       23.1       24.7       17.1     1009.9       24.8       22.6        0.0        0.0        0.0       0.00       39.2       0.00       0.33        0.0
6:50              236        0.0         70       23.2      226.0       23.2       24.8       17.4     1009.9       24.8       22.6        0.0        0.0        0.0       0.00       39.5       0.00       0.33        0.0
6:52              236        0.0         70       23.2      226.0       23.2       24.9       17.5     1009.8       24.8       22.6        0.0        0.0        0.0       0.00       39.6       0.00       0.33        0.0
6:54              236        0.0         69       23.3      226.0       23.3       24.9       17.3     1009.9       24.8       22.6        0.0        0.0        0.0       0.00       39.7       0.00       0.33        0.0
6:56              236        0.0         68       23.3      226.0       23.3       24.8       17.1     1009.8       24.8       22.6        0.0        0.0        0.0       0.00       39.8       0.00       0.33        0.0
6:58              236        0.0         68       23.4      226.0       23.4       25.0       17.2     1009.9       24.8       22.6        0.0        0.0        0.0       0.00       39.9       0.00       0.33        0.0
7:00              236        0.0         68       23.5      226.0       23.5       25.0       17.3     1009.9       24.8       22.6        0.0        0.0        0.0       0.00       40.1       0.00       0.33        0.0
7:01              236        0.0         67       23.6      226.0       23.6       25.1       17.1     1009.9       24.8       22.6        0.0        0.0        0.0       0.00       40.2       0.00       0.34        0.0
7:04              236        0.0         66       23.8      226.0       23.8       25.2       17.1     1009.9       24.8       22.6        0.0        0.0        0.0       0.00       40.5       0.00       0.34        0.0
7:06              236        0.0         66       23.9      226.0       23.9       25.3       17.2     1009.9       24.8       22.6        0.0        0.0        0.0       0.00       40.7       0.00       0.34        0.0
7:07              236        0.0         65       24.1      226.0       24.1       25.4       17.1     1009.9       24.8       22.6        0.0        0.0        0.0       0.00       40.8       0.00       0.34        0.0
7:10              236        0.0         65       24.2      226.0       24.2       25.5       17.2     1009.9       24.8       22.6        0.0        0.0        0.0       0.00       41.1       0.00       0.34        0.0
7:12              236        0.0         64       24.3      226.0       24.3       25.6       17.1     1010.0       24.8       22.6        0.0        0.0        0.0       0.00       41.3       0.00       0.34        0.0
7:14              236        0.0         64       24.4      226.0       24.4       25.7       17.2     1009.9       24.8       22.6        0.0        0.0        0.0       0.00       41.4       0.00       0.34        0.0
7:16              236        0.0         64       24.6      226.0       24.6       25.8       17.3     1010.0       24.8       22.6        0.0        0.0        0.0       0.00       41.7       0.00       0.37        0.0
7:18              236        0.0         63       24.7      226.0       24.7       25.9       17.2     1009.9       24.8       22.6        0.0        0.0        0.0       0.00       41.8       0.00       0.37        0.0
7:20              236        0.0         63       24.8      226.0       24.8       26.0       17.3     1010.0       24.8       22.6        0.0        0.0        0.0       0.00       41.9       0.00       0.37        0.0
7:22              236        0.0         63       24.9      226.0       24.9       26.1       17.4     1009.9       24.9       22.6        0.0        0.0        0.0       0.00       42.2       0.00       0.37        0.0
7:24              236        0.0         63       25.1      226.0       25.1       26.2       17.5     1010.0       25.1       22.6        0.0        0.0        0.0       0.00       42.5       0.00       0.37        0.0
7:26              236        0.0         62       25.2      226.0       25.2       26.3       17.4     1010.0       25.2       22.6        0.0        0.0        0.0       0.00       42.7       0.00       0.37        0.0
7:28              236        0.0         62       25.3      226.0       25.3       26.5       17.5     1010.1       25.3       22.6        0.0        0.0        0.0       0.00       43.0       0.00       0.37        0.0
7:30              236        0.0         61       25.4      226.0       25.4       26.5       17.3     1010.2       25.4       22.6        0.0        0.0        0.0       0.00       43.3       0.00       0.37        0.0
7:32              236        0.0         61       25.4      226.0       25.4       26.5       17.4     1010.1       25.4       22.6        0.0        0.0        0.0       0.00       43.4       0.00       0.40        0.0
7:34              236        0.0         61       25.5      226.0       25.5       26.6       17.4     1010.1       25.5       22.6        0.0        0.0        0.0       0.00       43.7       0.00       0.40        0.0
7:36              236        0.0         61       25.6      226.0       25.6       26.6       17.5     1010.1       25.6       22.6        0.0        0.0        0.0       0.00       43.9       0.00       0.40        0.0
7:38              236        0.0         61       25.6      226.0       25.6       26.7       17.5     1010.1       25.6       22.6        0.0        0.0        0.0       0.00       44.2       0.00       0.40        0.0
7:40              236        0.0         60       25.7      226.0       25.7       26.7       17.4     1010.1       25.7       22.6        0.0        0.0        0.0       0.00       44.7       0.00       0.40        0.0
7:42              236        0.0         60       25.8      226.0       25.8       26.8       17.4     1010.1       25.8       22.6        0.0        0.0        0.0       0.00       45.1       0.00       0.40        0.0
7:44              236        0.0         60       25.8      226.0       25.8       26.8       17.5     1010.1       25.8       22.6        0.0        0.0        0.0       0.00       45.2       0.00       0.40        0.0
7:46              236        0.0         60       25.9      226.0       25.9       26.9       17.5     1010.1       25.9       22.6        0.0        0.0        0.0       0.00       45.3       0.00       0.45        0.0
7:48              236        0.0         60       26.0      226.0       26.0       27.0       17.6     1010.1       26.0       22.6        0.0        0.0        0.0       0.00       45.6       0.00       0.45        0.0
7:50              236        0.0         59       26.1      226.0       26.1       27.0       17.4     1010.1       26.1       22.6        0.0        0.0        0.0       0.00       45.9       0.00       0.45        0.0
7:52              236        0.0         59       26.2      226.0       26.2       27.1       17.5     1010.1       26.2       22.6        0.0        0.0        0.0       0.00       46.2       0.00       0.45        0.0
7:53              236        0.0         59       26.2      226.0       26.2       27.2       17.6     1010.1       26.2       22.6        0.0        0.0        0.0       0.00       46.4       0.00       0.45        0.0
7:56              236        0.0         59       26.2      226.0       26.2       27.2       17.6     1010.1       26.2       22.6        0.0        0.0        0.0       0.00       46.6       0.00       0.45        0.0
7:58              236        0.0         59       26.3      226.0       26.3       27.2       17.6     1010.1       26.3       22.6        0.0        0.0        0.0       0.00       46.9       0.00       0.45        0.0
8:00              236        0.0         59       26.3      226.0       26.3       27.3       17.7     1010.1       26.3       22.6        0.0        0.0        0.0       0.00       47.0       0.00       0.45        0.0
8:01              236        0.0         58       26.4      226.0       26.4       27.3       17.5     1010.1       26.4       22.6        0.0        0.0        0.0       0.00       47.2       0.00       0.49        0.0
8:04              236        0.0         58       26.5      226.0       26.5       27.4       17.6     1010.0       26.5       22.6        0.0        0.0        0.0       0.00       47.4       0.00       0.49        0.0
8:06              236        0.0         58       26.5      226.0       26.5       27.4       17.6     1010.2       26.5       22.6        0.0        0.0        0.0       0.00       47.6       0.00       0.49        0.0
8:08              236        0.0         58       26.6      226.0       26.6       27.4       17.6     1010.1       26.6       22.6        0.0        0.0        0.0       0.00       47.9       0.00       0.49        0.0
8:10              236        0.0         58       26.6      226.0       26.6       27.5       17.7     1010.2       26.6       22.6        0.0        0.0        0.0       0.00       48.1       0.00       0.49        0.0
8:12              236        0.0         58       26.7      226.0       26.7       27.6       17.7     1010.2       26.7       22.6        0.0        0.0        0.0       0.00       48.2       0.00       0.49        0.0
8:14              236        0.0         58       26.7      226.0       26.7       27.6       17.8     1010.2       26.7       22.6        0.0        0.0        0.0       0.00       48.4       0.00       0.49        0.0
8:16              236        0.0         57       26.8      226.0       26.8       27.6       17.6     1010.1       26.8       22.6        0.0        0.0        0.0       0.00       48.7       0.00       0.54        0.0
8:18              236        0.0         57       26.9      226.0       26.9       27.7       17.7     1010.1       26.9       22.6        0.0        0.0        0.0       0.00       49.0       0.00       0.54        0.0
8:19              236        0.0         57       27.0      226.0       27.0       27.9       17.8     1010.1       27.0       22.6        0.0        0.0        0.0       0.00       49.2       0.00       0.54        0.0
8:22              236        0.0         56       27.0      226.0       27.0       27.8       17.5     1010.2       27.1       22.6        0.0        0.0        0.0       0.00       49.5       0.00       0.54        0.0
8:24              236        0.0         56       27.1      226.0       27.1       27.9       17.6     1010.2       27.1       22.6        0.0        0.0        0.0       0.00       49.7       0.00       0.54        0.0
8:26              236        0.0         55       27.2      226.0       27.2       27.9       17.4     1010.1       27.2       22.6        0.0        0.0        0.0       0.00       50.0       0.00       0.54        0.0
8:27              236        0.0         54       27.2      226.0       27.2       27.8       17.1     1010.1       27.2       22.6        0.0        0.0        0.0       0.00       50.2       0.00       0.54        0.0
8:30              236        0.0         54       27.2      226.0       27.2       27.8       17.1     1010.1       27.2       22.6        0.0        0.0        0.0       0.00       50.6       0.00       0.54        0.0
8:32              236        0.0         55       27.2      226.0       27.2       27.9       17.4     1010.1       27.2       22.6        0.0        0.0        0.0       0.00       50.8       0.00       0.59        0.0
8:34              236        0.0         56       27.2      226.0       27.2       28.0       17.6     1010.1       27.2       22.6        0.0        0.0        0.0       0.00       50.9       0.00       0.59        0.0
8:36              236        0.0         56       27.2      226.0       27.2       28.1       17.7     1010.1       27.2       22.6        0.0        0.0        0.0       0.00       51.0       0.00       0.59        0.0
8:38              236        0.0         55       27.3      226.0       27.3       28.0       17.5     1010.1       27.3       22.6        0.0        0.0        0.0       0.00       51.2       0.00       0.59        0.0
8:40              236        0.0         55       27.4      226.0       27.4       28.2       17.6     1010.1       27.4       22.6        0.0        0.0        0.0       0.00       51.3       0.00       0.59        0.0
8:42              236        0.0         54       27.5      226.0       27.5       28.2       17.4     1010.1       27.5       22.6        0.0        0.0        0.0       0.00       51.6       0.00       0.59        0.0
8:44              236        0.0         54       27.7      226.0       27.7       28.4       17.5     1010.1       27.7       22.6        0.0        0.0        0.0       0.00       51.7       0.00       0.59        0.0
8:46              236        0.0         54       27.8      226.0       27.8       28.5       17.6     1010.1       27.8       22.6        0.0        0.0        0.0       0.00       51.8       0.00       0.65        0.0
8:47              236        0.0         54       27.9      226.0       27.9       28.7       17.7     1010.0       27.9       22.6        0.0        0.0        0.0       0.00       52.0       0.00       0.65        0.0
8:50              236        0.0         54       28.0      226.0       28.0       28.8       17.8     1010.1       28.0       22.6        0.0        0.0        0.0       0.00       52.1       0.00       0.65        0.0
8:52              236        0.0         53       28.1      226.0       28.1       28.9       17.6     1010.0       28.1       22.6        0.0        0.0        0.0       0.00       52.1       0.00       0.65        0.0
8:54              236        0.0         54       28.1      226.0       28.1       29.0       17.9     1010.1       28.1       22.6        0.0        0.0        0.0       0.00       52.1       0.00       0.65        0.0
8:56              236        0.0         53       28.2      226.0       28.2       29.0       17.7     1010.0       28.2       22.6        0.0        0.0        0.0       0.00       52.3       0.00       0.65        0.0
8:58              236        0.0         53       28.3      226.0       28.3       29.1       17.8     1010.0       28.3       22.6        0.0        0.0        0.0       0.00       52.4       0.00       0.65        0.0
9:00              236        0.0         52       28.5      226.0       28.5       29.2       17.7     1010.1       28.5       22.6        0.0        0.0        0.0       0.00       52.6       0.00       0.65        0.0
9:02              236        0.0         52       28.6      226.0       28.6       29.3       17.7     1010.1       28.6       22.6        0.0        0.0        0.0       0.00       52.8       0.00       0.72        0.0
9:04              236        0.0         51       28.6      226.0       28.6       29.3       17.5     1010.1       28.6       22.6        0.0        0.0        0.0       0.00       52.9       0.00       0.72        0.0
9:06              236        0.0         52       28.6      226.0       28.6       29.4       17.8     1010.0       28.6       22.6        0.0        0.0        0.0       0.00       53.0       0.00       0.72        0.0
9:07              236        0.0         52       28.6      226.0       28.6       29.4       17.8     1010.0       28.7       22.6        0.0        0.0        0.0       0.00       53.1       0.00       0.72        0.0
9:09              236        0.0         52       28.7      226.0       28.7       29.5       17.9     1010.0       28.7       22.6        0.0        0.0        0.0       0.00       53.4       0.00       0.72        0.0
9:12              236        0.0         52       28.7      226.0       28.7       29.5       17.9     1010.1       28.7       22.6        0.0        0.0        0.0       0.00       53.6       0.00       0.72        0.0
9:13              236        0.0         52       28.8      226.0       28.8       29.7       18.0     1010.1       28.8       22.6        0.0        0.0        0.0       0.00       53.6       0.00       0.72        0.0
9:16              236        0.0         51       28.9      226.0       28.9       29.6       17.7     1010.0       28.9       22.6        0.0        0.0        0.0       0.00       53.7       0.00       0.79        0.0
9:18              236        0.0         51       28.9      226.0       28.9       29.7       17.8     1010.2       28.9       22.6        0.0        0.0        0.0       0.00       53.9       0.00       0.79        0.0
9:20              236        0.0         51       29.0      226.0       29.0       29.8       17.8     1010.1       29.0       22.6        0.0        0.0        0.0       0.00       53.9       0.00       0.79        0.0
9:21              236        0.0         50       29.1      226.0       29.1       29.7       17.6     1010.2       29.1       22.6        0.0        0.0        0.0       0.00       54.0       0.00       0.79        0.0
9:24              236        0.0         50       29.1      226.0       29.1       29.8       17.6     1010.2       29.1       22.6        0.0        0.0        0.0       0.00       54.3       0.00       0.79        0.0
9:26              236        0.0         49       29.2      226.0       29.2       29.8       17.4     1010.2       29.2       22.6        0.0        0.0        0.0       0.00       54.3       0.00       0.79        0.0
9:28              236        0.0         49       29.3      226.0       29.3       30.0       17.5     1010.1       29.3       22.6        0.0        0.0        0.0       0.00       54.3       0.00       0.79        0.0
9:30              236        0.0         49       29.4      226.0       29.4       30.0       17.6     1010.2       29.4       22.6        0.0        0.0        0.0       0.00       54.4       0.00       0.79        0.0
9:32              236        0.0         49       29.5      226.0       29.5       30.2       17.7     1010.2       29.5       22.6        0.0        0.0        0.0       0.00       54.4       0.00       0.87        0.0
9:34              236        0.0         48       29.6      226.0       29.6       30.1       17.4     1010.2       29.6       22.6        0.0        0.0        0.0       0.00       54.5       0.00       0.87        0.0
9:36              236        0.0         48       29.6      226.0       29.6       30.2       17.4     1010.2       29.6       22.6        0.0        0.0        0.0       0.00       54.6       0.00       0.87        0.0
9:38              236        0.0         49       29.7      226.0       29.7       30.5       17.9     1010.1       29.7       22.6        0.0        0.0        0.0       0.00       54.7       0.00       0.87        0.0
9:40              236        0.0         48       29.7      226.0       29.7       30.4       17.5     1010.1       29.7       22.6        0.0        0.0        0.0       0.00       54.8       0.00       0.87        0.0
9:42              236        0.0         48       29.8      226.0       29.8       30.4       17.6     1010.2       29.8       22.6        0.0        0.0        0.0       0.00       54.8       0.00       0.87        0.0
9:44              236        0.0         48       29.8      226.0       29.8       30.5       17.7     1010.2       29.8       22.6        0.0        0.0        0.0       0.00       54.9       0.00       0.87        0.0
9:46              236        0.0         48       29.9      226.0       29.9       30.7       17.8     1010.2       29.9       22.6        0.0        0.0        0.0       0.00       55.0       0.00       0.95        0.0
9:48              236        0.0         46       30.1      226.0       30.1       30.5       17.2     1010.2       30.1       22.6        0.0        0.0        0.0       0.00       55.3       0.00       0.95        0.0
9:50              236        0.0         46       30.2      226.0       30.2       30.7       17.3     1010.2       30.2       22.6        0.0        0.0        0.0       0.00       55.5       0.00       0.95        0.0
9:51              236        0.0         46       30.2      226.0       30.2       30.8       17.3     1010.3       30.2       22.6        0.0        0.0        0.0       0.00       55.6       0.00       0.95        0.0
9:53              236        0.0         45       30.3      226.0       30.3       30.8       17.1     1010.2       30.3       22.6        0.0        0.0        0.0       0.00       55.7       0.00       0.95        0.0
9:56              236        0.0         45       30.4      226.0       30.4       30.9       17.2     1010.3       30.4       22.6        0.0        0.0        0.0       0.00       55.8       0.00       0.95        0.0
9:57              236        0.0         44       30.4      226.0       30.4       30.8       16.8     1010.3       30.4       22.6        0.0        0.0        0.0       0.00       55.8       0.00       0.95        0.0
10:00             236        0.0         45       30.4      226.0       30.4       30.9       17.2     1010.3       30.4       22.6        0.0        0.0        0.0       0.00       55.9       0.00       0.95        0.0
10:01             236        0.0         45       30.4      226.0       30.4       30.9       17.2     1010.2       30.4       22.6        0.0        0.0        0.0       0.00       55.9       0.00       1.04        0.0
10:04             236        0.0         45       30.5      226.0       30.5       31.0       17.2     1010.3       30.5       22.6        0.0        0.0        0.0       0.00       56.0       0.00       1.04        0.0
10:05             236        0.0         46       30.6      226.0       30.6       31.2       17.6     1010.3       30.6       22.6        0.0        0.0        0.0       0.00       56.0       0.00       1.04        0.0
10:08             236        0.0         45       30.7      226.0       30.7       31.2       17.4     1010.3       30.7       22.6        0.0        0.0        0.0       0.00       56.1       0.00       1.04        0.0
10:10             236        0.0         45       30.7      226.0       30.7       31.3       17.4     1010.3       30.7       22.6        0.0        0.0        0.0       0.00       56.1       0.00       1.04        0.0
10:12             236        0.0         45       30.8      226.0       30.8       31.4       17.5     1010.3       30.8       22.6        0.0        0.0        0.0       0.00       56.1       0.00       1.04        0.0
10:14             236        0.0         44       30.8      226.0       30.8       31.3       17.2     1010.2       30.8       22.6        0.0        0.0        0.0       0.00       56.1       0.00       1.04        0.0
10:15             236        0.0         43       30.9      226.0       30.9       31.2       16.9     1010.2       30.9       22.6        0.0        0.0        0.0       0.00       56.4       0.00       1.13        0.0
10:17             236        0.0         43       30.9      226.0       30.9       31.3       16.9     1010.2       30.9       22.6        0.0        0.0        0.0       0.00       56.7       0.00       1.13        0.0
10:20             236        0.0         42       31.0      226.0       31.0       31.2       16.6     1010.3       31.0       22.6        0.0        0.0        0.0       0.00       56.9       0.00       1.13        0.0
10:22             236        0.0         42       30.9      226.0       30.9       31.1       16.5     1010.2       31.0       22.6        0.0        0.0        0.0       0.00       57.0       0.00       1.13        0.0
10:24             236        0.0         43       30.9      226.0       30.9       31.2       16.9     1010.2       31.0       22.6        0.0        0.0        0.0       0.00       57.2       0.00       1.13        0.0
10:26             236        0.0         43       30.9      226.0       30.9       31.3       16.9     1010.2       31.0       22.6        0.0        0.0        0.0       0.00       57.4       0.00       1.13        0.0
10:28             236        0.0         43       31.0      226.0       31.0       31.4       17.0     1010.2       31.0       22.6        0.0        0.0        0.0       0.00       57.4       0.00       1.13        0.0
10:29             232        0.0         43       31.2      226.0       31.2       31.6       17.1     1010.2       31.2       22.6        0.0        0.0        0.0       0.00       57.7       0.00       1.13        0.0
10:32             229        0.0         42       31.3      226.0       31.3       31.6       16.8     1010.1       31.3       22.6        0.0        0.0        0.0       0.00       57.9       0.00       1.23        0.0
10:34             229        0.0         41       31.4      226.0       31.4       31.6       16.6     1010.2       31.4       22.6        0.0        0.0        0.0       0.00       58.1       0.00       1.23        0.0
10:35             227        0.0         41       31.5      226.0       31.5       31.7       16.7     1010.1       31.5       22.6        0.0        0.0        0.0       0.00       58.5       0.00       1.23        0.0
10:38             220        0.0         41       31.6      226.0       31.6       31.8       16.7     1010.2       31.6       22.6        0.0        0.0        0.0       0.00       58.8       0.00       1.23        0.0
10:40             220        0.0         41       31.5      226.0       31.5       31.7       16.7     1010.1       31.6       22.6        0.0        0.0        0.0       0.00       59.0       0.00       1.23        0.0
10:41             220        0.0         41       31.4      226.0       31.4       31.7       16.6     1010.2       31.6       22.6        0.0        0.0        0.0       0.00       59.1       0.00       1.23        0.0
10:43             221        0.0         41       31.3      226.0       31.3       31.5       16.5     1010.2       31.6       22.6        0.0        0.0        0.0       0.00       59.3       0.00       1.23        0.0
10:46             221        0.0         42       31.3      226.0       31.3       31.6       16.8     1010.2       31.6       22.6        0.0        0.0        0.0       0.00       59.5       0.00       1.32        0.0
10:48             221        0.0         41       31.2      226.0       31.2       31.4       16.4     1010.2       31.6       22.6        0.0        0.0        0.0       0.00       59.6       0.00       1.32        0.0
10:50             221        0.0         42       31.3      226.0       31.3       31.6       16.8     1010.2       31.6       22.6        0.0        0.0        0.0       0.00       59.8       0.00       1.32        0.0
10:52             217        0.0         42       31.3      226.0       31.3       31.7       16.9     1010.1       31.6       22.6        0.0        0.0        0.0       0.00       60.1       0.00       1.32        0.0
10:54             208        0.0         42       31.4      226.0       31.4       31.8       17.0     1010.1       31.6       22.6        0.0        0.0        0.0       0.00       60.5       0.00       1.32        0.0
10:55             208        0.0         41       31.5      226.0       31.5       31.7       16.7     1010.1       31.6       22.6        0.0        0.0        0.0       0.00       60.6       0.00       1.32        0.0
10:58             208        0.0         41       31.6      226.0       31.6       31.9       16.8     1010.2       31.6       22.6        0.0        0.0        0.0       0.00       60.8       0.00       1.32        0.0
11:00             208        0.0         41       31.7      226.0       31.7       32.1       16.9     1010.2       31.7       22.6        0.0        0.0        0.0       0.00       60.9       0.00       1.32        0.0
11:01             208        0.0         41       31.9      226.0       31.9       32.3       17.0     1010.2       31.9       22.6        0.0        0.0        0.0       0.00       61.0       0.00       1.43        0.0
11:03             208        0.0         40       32.0      226.0       32.0       32.3       16.7     1010.1       32.0       22.6        0.0        0.0        0.0       0.00       61.1       0.00       1.43        0.0
11:06             208        0.0         40       32.1      226.0       32.1       32.4       16.8     1010.1       32.1       22.6        0.0        0.0        0.0       0.00       61.2       0.00       1.43        0.0
11:07             208        0.0         40       32.3      226.0       32.3       32.7       17.0     1010.1       32.3       22.6        0.0        0.0        0.0       0.00       61.6       0.00       1.43        0.0
11:10             208        0.0         40       32.3      226.0       32.3       32.8       17.0     1010.1       32.3       22.6        0.0        0.0        0.0       0.00       61.6       0.00       1.43        0.0
11:12             208        0.0         39       32.4      226.0       32.4       32.7       16.7     1010.1       32.4       22.6        0.0        0.0        0.0       0.00       61.8       0.00       1.43        0.0
11:14             208        0.0         39       32.4      226.0       32.4       32.7       16.7     1010.1       32.4       22.6        0.0        0.0        0.0       0.00       61.9       0.00       1.43        0.0
11:16             208        0.0         39       32.4      226.0       32.4       32.7       16.7     1010.1       32.4       22.6        0.0        0.0        0.0       0.00       62.1       0.00       1.53        0.0
11:18             208        0.0         39       32.6      226.0       32.6       32.9       16.8     1010.0       32.6       22.6        0.0        0.0        0.0       0.00       62.2       0.00       1.53        0.0
11:20             208        0.0         39       32.7      226.0       32.7       33.1       16.9     1010.1       32.7       22.6        0.0        0.0        0.0       0.00       62.3       0.00       1.53        0.0
11:22             208        0.0         39       32.8      226.0       32.8       33.3       17.1     1010.1       32.8       22.6        0.0        0.0        0.0       0.00       62.4       0.00       1.53        0.0
11:24             207        0.0         39       33.0      226.0       33.0       33.6       17.2     1010.0       33.0       22.6        0.0        0.0        0.0       0.00       62.5       0.00       1.53        0.0
11:26             200        0.0         39       33.1      226.0       33.1       33.7       17.3     1010.1       33.1       22.6        0.0        0.0        0.0       0.00       63.0       0.00       1.53        0.0
11:28             194        0.0         38       33.2      226.0       33.2       33.7       17.0     1010.0       33.2       22.6        0.0        0.0        0.0       0.00       63.3       0.00       1.53        0.0
11:30             193        0.0         38       33.3      226.0       33.3       33.9       17.1     1010.1       33.3       22.6        0.0        0.0        0.0       0.00       63.4       0.00       1.53        0.0
11:32             194        0.0         38       33.4      226.0       33.4       34.0       17.1     1010.0       33.4       22.6        0.0        0.0        0.0       0.00       63.6       0.00       1.65        0.0
11:34             194        0.0         38       33.3      226.0       33.3       33.9       17.1     1010.0       33.4       22.6        0.0        0.0        0.0       0.00       63.7       0.00       1.65        0.0
11:36             194        0.0         38       33.2      226.0       33.2       33.7       17.0     1010.1       33.4       22.6        0.0        0.0        0.0       0.00       63.8       0.00       1.65        0.0
11:38             194        0.0         38       33.2      226.0       33.2       33.7       17.0     1010.0       33.4       22.6        0.0        0.0        0.0       0.00       64.0       0.00       1.65        0.0
11:39             194        0.0         39       33.2      226.0       33.2       33.8       17.4     1010.0       33.4       22.6        0.0        0.0        0.0       0.00       64.3       0.00       1.65        0.0
11:42             194        0.0         38       33.2      226.0       33.2       33.7       17.0     1010.0       33.4       22.6        0.0        0.0        0.0       0.00       64.7       0.00       1.65        0.0
11:44             194        0.0         38       33.3      226.0       33.3       33.9       17.1     1010.1       33.4       22.6        0.0        0.0        0.0       0.00       64.9       0.00       1.65        0.0
11:46             194        0.0         38       33.5      226.0       33.5       34.1       17.2     1010.0       33.5       22.6        0.0        0.0        0.0       0.00       65.2       0.00       1.77        0.0
11:48             190        0.0         38       33.6      226.0       33.6       34.3       17.3     1009.9       33.6       22.6        0.0        0.0        0.0       0.00       65.5       0.00       1.77        0.0
11:50             190        0.0         38       33.7      226.0       33.7       34.5       17.4     1010.0       33.7       22.6        0.0        0.0        0.0       0.00       65.7       0.00       1.77        0.0
11:51             190        0.0         38       33.8      226.0       33.8       34.7       17.5     1009.9       33.8       22.6        0.0        0.0        0.0       0.00       65.8       0.00       1.77        0.0
11:54             190        0.0         38       33.9      226.0       33.9       34.8       17.6     1010.0       33.9       22.6        0.0        0.0        0.0       0.00       65.9       0.00       1.77        0.0
11:56             190        0.0         38       34.1      226.0       34.1       35.0       17.7     1009.9       34.1       22.6        0.0        0.0        0.0       0.00       66.0       0.00       1.77        0.0
11:57             190        0.0         37       34.1      226.0       34.1       34.9       17.4     1009.9       34.1       22.6        0.0        0.0        0.0       0.00       66.2       0.00       1.77        0.0
12:00             190        0.0         37       34.2      226.0       34.2       35.0       17.4     1009.8       34.2       22.6        0.0        0.0        0.0       0.00       66.4       0.00       1.77        0.0
12:02             190        0.0         37       34.3      226.0       34.3       35.1       17.5     1009.8       34.3       22.6        0.0        0.0        0.0       0.00       66.6       0.00       1.90        0.0
12:04             190        0.0         37       34.3      226.0       34.3       35.2       17.6     1009.7       34.3       22.6        0.0        0.0        0.0       0.00       66.9       0.00       1.90        0.0
12:06             190        0.0         37       34.3      226.0       34.3       35.2       17.6     1009.7       34.3       22.6        0.0        0.0        0.0       0.00       67.2       0.00       1.90        0.0
12:08             192        0.0         37       34.2      226.0       34.2       35.1       17.5     1009.8       34.3       22.6        0.0        0.0        0.0       0.00       67.7       0.00       1.90        0.0
12:09             192        0.0         37       34.2      226.0       34.2       35.0       17.4     1009.8       34.3       22.6        0.0        0.0        0.0       0.00       67.9       0.00       1.90        0.0
12:12             192        0.0         37       34.2      226.0       34.2       35.1       17.5     1009.7       34.3       22.6        0.0        0.0        0.0       0.00       68.1       0.00       1.90        0.0
12:14             184        0.0         36       34.3      226.0       34.3       35.0       17.1     1009.7       34.3       22.6        0.0        0.0        0.0       0.00       68.5       0.00       1.90        0.0
12:16             184        0.0         36       34.4      226.0       34.4       35.2       17.2     1009.7       34.4       22.6        0.0        0.0        0.0       0.00       68.7       0.00       2.03        0.0
12:18             180        0.0         36       34.6      226.0       34.6       35.4       17.3     1009.6       34.6       22.6        0.0        0.0        0.0       0.00       69.2       0.00       2.03        0.0
12:20             180        0.0         36       34.6      226.0       34.6       35.4       17.4     1009.7       34.6       22.6        0.0        0.0        0.0       0.00       69.9       0.00       2.03        0.0
12:22             180        0.0         36       34.7      226.0       34.7       35.5       17.4     1009.7       34.7       22.6        0.0        0.0        0.0       0.00       70.2       0.00       2.03        0.0
12:23             182        0.0         35       34.8      226.0       34.8       35.5       17.1     1009.7       34.8       22.6        0.0        0.0        0.0       0.00       70.6       0.00       2.03        0.0
12:26             182        0.0         35       34.9      226.0       34.9       35.6       17.2     1009.7       34.9       22.6        0.0        0.0        0.0       0.00       70.7       0.00       2.03        0.0
12:28             179        0.0         35       35.0      226.0       35.0       35.8       17.3     1009.6       35.0       22.6        0.0        0.0        0.0       0.00       71.2       0.00       2.03        0.0
12:30             179        0.0         35       35.1      226.0       35.1       35.9       17.3     1009.6       35.1       22.6        0.0        0.0        0.0       0.00       71.4       0.00       2.03        0.0
12:32             179        0.0         35       35.2      226.0       35.2       36.1       17.4     1009.5       35.2       22.6        0.0        0.0        0.0       0.00       71.5       0.00       2.16        0.0
12:34             180        0.0         35       35.3      226.0       35.3       36.3       17.5     1009.6       35.3       22.6        0.0        0.0        0.0       0.00       72.0       0.00       2.16        0.0
12:35             180        0.0         34       35.4      226.0       35.4       36.2       17.1     1009.5       35.4       22.6        0.0        0.0        0.0       0.00       72.3       0.00       2.16        0.0
12:38             210        0.0         34       35.4      226.0       35.4       36.2       17.1     1009.5       35.4       22.6        0.0        0.0        0.0       0.00       73.2       0.00       2.16        0.0
12:40             200        0.0         33       35.4      226.0       35.4       36.0       16.7     1009.5       35.4       22.6        0.0        0.0        0.0       0.00       73.7       0.00       2.16        0.0
12:41             194        0.0         33       35.5      226.0       35.5       36.1       16.8     1009.6       35.5       22.6        0.0        0.0        0.0       0.00       74.2       0.00       2.16        0.0
12:43             194        0.0         32       35.6      226.0       35.6       36.0       16.3     1009.5       35.6       22.6        0.0        0.0        0.0       0.00       74.6       0.00       2.16        0.0
12:45             188        0.0         32       35.6      226.0       35.6       36.1       16.4     1009.5       35.6       22.6        0.0        0.0        0.0       0.00       74.9       0.00       2.30        0.0
12:48             181        0.0         32       35.7      226.0       35.7       36.2       16.5     1009.5       35.7       22.6        0.0        0.0        0.0       0.00       75.2       0.00       2.30        0.0
12:50             182        0.0         32       35.8      226.0       35.8       36.3       16.5     1009.5       35.8       22.6        0.0        0.0        0.0       0.00       75.4       0.00       2.30        0.0
12:52             182        0.0         32       35.8      226.0       35.8       36.4       16.6     1009.4       35.8       22.6        0.0        0.0        0.0       0.00       75.6       0.00       2.30        0.0
12:54             187        0.0         33       35.9      226.0       35.9       36.8       17.1     1009.5       35.9       22.6        0.0        0.0        0.0       0.00       76.1       0.00       2.30        0.0
12:56             191        0.0         33       35.9      226.0       35.9       36.8       17.1     1009.4       35.9       22.6        0.0        0.0        0.0       0.00       76.5       0.00       2.30        0.0
12:58             192        0.0         32       35.8      226.0       35.8       36.3       16.5     1009.5       35.9       22.6        0.0        0.0        0.0       0.00       76.8       0.00       2.30        0.0
13:00             192        0.0         33       35.7      226.0       35.7       36.5       17.0     1009.5       35.9       22.6        0.0        0.0        0.0       0.00       76.8       0.00       2.30        0.0
13:02             192        0.0         32       35.7      226.0       35.7       36.2       16.5     1009.4       35.9       22.6        0.0        0.0        0.0       0.00       76.8       0.00       2.45        0.0
13:04             192        0.0         33       35.7      226.0       35.7       36.4       16.9     1009.5       35.9       22.6        0.0        0.0        0.0       0.00       76.9       0.00       2.45        0.0
13:06             192        0.0         33       35.7      226.0       35.7       36.4       16.9     1009.4       35.9       22.6        0.0        0.0        0.0       0.00       76.9       0.00       2.45        0.0
13:08             192        0.0         33       35.7      226.0       35.7       36.5       17.0     1009.3       35.9       22.6        0.0        0.0        0.0       0.00       77.1       0.00       2.45        0.0
13:10             192        0.0         33       35.8      226.0       35.8       36.7       17.1     1009.3       35.9       22.6        0.0        0.0        0.0       0.00       77.2       0.00       2.45        0.0
13:12             182        0.0         33       36.0      226.0       36.0       37.0       17.2     1009.3       36.0       22.6        0.0        0.0        0.0       0.00       77.6       0.00       2.45        0.0
13:13             180        0.0         32       36.2      226.0       36.2       37.0       16.9     1009.3       36.2       22.6        0.0        0.0        0.0       0.00       77.9       0.00       2.45        0.0
13:16             194        0.0         32       36.4      226.0       36.4       37.3       17.1     1009.3       36.4       22.6        0.0        0.0        0.0       0.00       78.5       0.00       2.60        0.0
13:18             193        0.0         31       36.5      226.0       36.5       37.2       16.7     1009.4       36.5       22.6        0.0        0.0        0.0       0.00       78.9       0.00       2.60        0.0
13:20             186        0.0         31       36.6      226.0       36.6       37.4       16.8     1009.3       36.6       22.6        0.0        0.0        0.0       0.00       79.2       0.00       2.60        0.0
13:22             147        0.0         31       36.6      226.0       36.6       37.4       16.8     1009.2       36.6       22.6        0.0        0.0        0.0       0.00       79.7       0.00       2.60        0.0
13:24             186        0.0         30       36.7      226.0       36.7       37.3       16.3     1009.3       36.7       22.6        0.0        0.0        0.0       0.00       80.5       0.00       2.60        0.0
13:25             165        0.0         30       36.8      226.0       36.8       37.4       16.4     1009.2       36.8       22.6        0.0        0.0        0.0       0.00       81.2       0.00       2.60        0.0
13:28             192        0.0         30       36.8      226.0       36.8       37.4       16.4     1009.3       36.8       22.6        0.0        0.0        0.0       0.00       81.8       0.00       2.60        0.0
13:30             190        0.0         30       36.8      226.0       36.8       37.5       16.4     1009.2       36.8       22.6        0.0        0.0        0.0       0.00       82.6       0.00       2.60        0.0
13:31             186        0.0         30       36.9      226.0       36.9       37.6       16.5     1009.2       36.9       22.6        0.0        0.0        0.0       0.00       83.3       0.00       2.75        0.0
13:34             200        0.0         29       36.9      226.0       36.9       37.3       15.9     1009.1       36.9       22.6        0.0        0.0        0.0       0.00       84.0       0.00       2.75        0.0
13:36             200        0.0         29       36.9      226.0       36.9       37.3       15.9     1009.1       36.9       22.6        0.0        0.0        0.0       0.00       84.6       0.00       2.75        0.0
13:38             200        0.0         29       36.9      226.0       36.9       37.3       15.9     1009.2       36.9       22.6        0.0        0.0        0.0       0.00       84.9       0.00       2.75        0.0
13:39             225        0.0         29       36.9      226.0       36.9       37.3       15.9     1009.2       36.9       22.6        0.0        0.0        0.0       0.00       85.5       0.00       2.75        0.0
13:42             174        0.0         29       36.9      226.0       36.9       37.3       15.9     1009.2       36.9       22.6        0.0        0.0        0.0       0.00       85.8       0.00       2.75        0.0
13:44             211        0.0         29       36.9      226.0       36.9       37.3       15.9     1009.1       36.9       22.6        0.0        0.0        0.0       0.00       86.7       0.00       2.75        0.0
13:46             190        0.0         28       36.8      226.0       36.8       36.9       15.3     1009.1       36.9       22.6        0.0        0.0        0.0       0.00       87.7       0.00       2.91        0.0
13:48             193        0.0         28       36.7      226.0       36.7       36.8       15.3     1009.1       36.9       22.6        0.0        0.0        0.0       0.00       88.1       0.00       2.91        0.0
13:50             148        0.0         28       36.7      226.0       36.7       36.8       15.3     1009.1       36.9       22.6        0.0        0.0        0.0       0.00       88.5       0.00       2.91        0.0
13:52             185        0.0         28       36.8      226.0       36.8       36.8       15.3     1009.1       36.9       22.6        0.0        0.0        0.0       0.00       89.0       0.00       2.91        0.0
13:54             173        0.0         27       36.8      226.0       36.8       36.7       14.8     1009.2       36.9       22.6        0.0        0.0        0.0       0.00       89.9       0.00       2.91        0.0
13:56             189        0.0         27       36.8      226.0       36.8       36.7       14.8     1009.1       36.9       22.6        0.0        0.0        0.0       0.00       90.3       0.00       2.91        0.0
13:57             215        0.0         27       36.8      226.0       36.8       36.7       14.8     1009.0       36.9       22.6        0.0        0.0        0.0       0.00       91.0       0.00       2.91        0.0
14:59             150        0.0         27       36.8      226.0       36.8       36.7       14.8     1009.0       36.9       22.6        0.0        0.0        0.0       0.00       91.4       0.00       2.91        0.0
14:02             150        0.0         26       36.9      226.0       36.9       36.5       14.2     1009.0       36.9       22.6        0.0        0.0        0.0       0.00       91.6       0.00       3.06        0.0
14:04             171        0.0         26       36.9      226.0       36.9       36.6       14.3     1008.9       36.9       22.6        0.0        0.0        0.0       0.00       91.9       0.00       3.06        0.0
14:05             176        0.0         26       37.1      226.0       37.1       36.8       14.4     1009.0       37.1       22.6        0.0        0.0        0.0       0.00       92.4       0.00       3.06        0.0
14:08             175        0.0         27       37.2      226.0       37.2       37.3       15.1     1008.9       37.2       22.6        0.0        0.0        0.0       0.00       93.2       0.00       3.06        0.0
14:10             165        0.0         26       37.2      226.0       37.2       37.0       14.5     1009.0       37.2       22.6        0.0        0.0        0.0       0.00       93.7       0.00       3.06        0.0
14:12             180        0.0         26       37.2      226.0       37.2       37.0       14.5     1009.0       37.2       22.6        0.0        0.0        0.0       0.00       94.3       0.00       3.06        0.0
14:14             171        0.0         26       37.2      226.0       37.2       37.0       14.5     1008.9       37.2       22.6        0.0        0.0        0.0       0.00       94.9       0.00       3.06        0.0
14:16             133        0.0         26       37.2      226.0       37.2       36.9       14.5     1008.9       37.2       22.6        0.0        0.0        0.0       0.00       95.5       0.00       3.22        0.0
14:18             133        0.0         26       37.2      226.0       37.2       37.0       14.5     1008.9       37.2       22.6        0.0        0.0        0.0       0.00       95.7       0.00       3.22        0.0
14:19             133        0.0         26       37.2      226.0       37.2       37.0       14.5     1008.9       37.2       22.6        0.0        0.0        0.0       0.00       95.7       0.00       3.22        0.0
14:22             154        0.0         27       37.3      226.0       37.3       37.4       15.2     1008.9       37.3       22.6        0.0        0.0        0.0       0.00       96.1       0.00       3.22        0.0
14:24             150        0.0         26       37.4      226.0       37.4       37.3       14.7     1008.9       37.4       22.6        0.0        0.0        0.0       0.00       96.5       0.00       3.22        0.0
14:26             142        0.0         26       37.5      226.0       37.5       37.4       14.8     1008.9       37.5       22.6        0.0        0.0        0.0       0.00       96.9       0.00       3.22        0.0
14:28             155        0.0         27       37.6      226.0       37.6       37.8       15.4     1008.9       37.6       22.6        0.0        0.0        0.0       0.00       97.4       0.00       3.22        0.0
14:30             155        0.0         26       37.6      226.0       37.6       37.6       14.9     1008.9       37.6       22.6        0.0        0.0        0.0       0.00       97.7       0.00       3.22        0.0
14:32             155        0.0         26       37.7      226.0       37.7       37.8       14.9     1008.7       37.7       22.6        0.0        0.0        0.0       0.00       97.8       0.00       3.38        0.0
14:33             155        0.0         26       37.8      226.0       37.8       37.8       15.0     1008.7       37.8       22.6        0.0        0.0        0.0       0.00       98.0       0.00       3.38        0.0
14:36             157        0.0         25       37.8      226.0       37.8       37.7       14.4     1008.7       37.8       22.6        0.0        0.0        0.0       0.00       98.4       0.00       3.38        0.0
14:38             178        0.0         25       37.9      226.0       37.9       37.7       14.5     1008.8       37.9       22.6        0.0        0.0        0.0       0.00       99.1       0.00       3.38        0.0
14:40             182        0.0         25       37.9      226.0       37.9       37.7       14.5     1008.7       37.9       22.6        0.0        0.0        0.0       0.00       99.6       0.00       3.38        0.0
14:42             182        0.0         25       37.9      226.0       37.9       37.8       14.5     1008.7       37.9       22.6        0.0        0.0        0.0       0.00      100.0       0.00       3.38        0.0
14:44             184        0.0         25       37.9      226.0       37.9       37.8       14.5     1008.6       37.9       22.6        0.0        0.0        0.0       0.00      100.2       0.00       3.38        0.0
14:46             184        0.0         25       38.0      226.0       38.0       37.9       14.6     1008.6       38.0       22.6        0.0        0.0        0.0       0.00      100.4       0.00       3.55        0.0
14:47             184        0.0         24       38.1      226.0       38.1       37.7       14.0     1008.6       38.1       22.6        0.0        0.0        0.0       0.00      100.6       0.00       3.55        0.0
14:50             184        0.0         25       38.1      226.0       38.1       38.0       14.6     1008.6       38.1       22.6        0.0        0.0        0.0       0.00      100.7       0.00       3.55        0.0
14:52             184        0.0         24       38.1      226.0       38.1       37.7       14.0     1008.5       38.1       22.6        0.0        0.0        0.0       0.00      100.8       0.00       3.55        0.0
14:54             184        0.0         25       38.0      226.0       38.0       37.9       14.6     1008.6       38.1       22.6        0.0        0.0        0.0       0.00      100.9       0.00       3.55        0.0
14:56             184        0.0         25       37.9      226.0       37.9       37.8       14.5     1008.5       38.1       22.6        0.0        0.0        0.0       0.00      101.0       0.00       3.55        0.0
14:58             184        0.0         24       37.9      226.0       37.9       37.5       13.9     1008.5       38.1       22.6        0.0        0.0        0.0       0.00      101.2       0.00       3.55        0.0
15:00             184        0.0         24       37.9      226.0       37.9       37.5       13.9     1008.4       38.1       22.6        0.0        0.0        0.0       0.00      101.2       0.00       3.55        0.0
15:02             184        0.0         24       38.1      226.0       38.1       37.8       14.0     1008.4       38.1       22.6        0.0        0.0        0.0       0.00      101.4       0.00       3.71        0.0
15:03             184        0.0         24       38.3      226.0       38.3       38.0       14.2     1008.2       38.3       22.6        0.0        0.0        0.0       0.00      101.5       0.00       3.71        0.0
15:06             184        0.0         24       38.5      226.0       38.5       38.4       14.4     1008.3       38.5       22.6        0.0        0.0        0.0       0.00      101.5       0.00       3.71        0.0
15:08             184        0.0         23       38.7      226.0       38.7       38.3       13.8     1008.3       38.7       22.6        0.0        0.0        0.0       0.00      101.6       0.00       3.71        0.0
15:10             184        0.0         23       38.7      226.0       38.7       38.4       13.9     1008.3       38.7       22.6        0.0        0.0        0.0       0.00      101.7       0.00       3.71        0.0
15:12             184        0.0         24       38.7      226.0       38.7       38.6       14.5     1008.2       38.7       22.6        0.0        0.0        0.0       0.00      101.8       0.00       3.71        0.0
15:14             184        0.0         23       38.7      226.0       38.7       38.4       13.9     1008.3       38.7       22.6        0.0        0.0        0.0       0.00      102.1       0.00       3.71        0.0
15:16             184        0.0         24       38.8      226.0       38.8       38.8       14.6     1008.3       38.8       22.6        0.0        0.0        0.0       0.00      102.2       0.00       3.89        0.0
15:17             184        0.0         24       38.8      226.0       38.8       38.9       14.6     1008.2       38.8       22.6        0.0        0.0        0.0       0.00      102.3       0.00       3.89        0.0
15:20             184        0.0         23       38.8      226.0       38.8       38.5       13.9     1008.3       38.8       22.6        0.0        0.0        0.0       0.00      102.5       0.00       3.89        0.0
15:22             184        0.0         23       38.6      226.0       38.6       38.3       13.8     1008.2       38.8       22.6        0.0        0.0        0.0       0.00      102.6       0.00       3.89        0.0
15:23             184        0.0         24       38.4      226.0       38.4       38.2       14.3     1008.1       38.8       22.6        0.0        0.0        0.0       0.00      102.7       0.00       3.89        0.0
15:26             184        0.0         24       38.3      226.0       38.3       38.1       14.2     1008.1       38.8       22.6        0.0        0.0        0.0       0.00      102.8       0.00       3.89        0.0
15:28             184        0.0         23       38.3      226.0       38.3       37.8       13.6     1008.1       38.8       22.6        0.0        0.0        0.0       0.00      102.9       0.00       3.89        0.0
15:30             184        0.0         23       38.4      226.0       38.4       38.0       13.7     1008.1       38.8       22.6        0.0        0.0        0.0       0.00      103.0       0.00       3.89        0.0
15:32             184        0.0         23       38.5      226.0       38.5       38.1       13.7     1008.1       38.8       22.6        0.0        0.0        0.0       0.00      103.1       0.00       4.06        0.0
15:34             184        0.0         24       38.6      226.0       38.6       38.5       14.4     1008.1       38.8       22.6        0.0        0.0        0.0       0.00      103.2       0.00       4.06        0.0
15:36             184        0.0         24       38.5      226.0       38.5       38.4       14.4     1008.1       38.8       22.6        0.0        0.0        0.0       0.00      103.3       0.00       4.06        0.0
15:37             184        0.0         24       38.5      226.0       38.5       38.4       14.4     1008.0       38.8       22.6        0.0        0.0        0.0       0.00      103.5       0.00       4.06        0.0
15:40             184        0.0         25       38.3      226.0       38.3       38.4       14.9     1008.0       38.8       22.6        0.0        0.0        0.0       0.00      103.6       0.00       4.06        0.0
15:41             184        0.0         25       38.2      226.0       38.2       38.2       14.8     1008.1       38.8       22.6        0.0        0.0        0.0       0.00      103.8       0.00       4.06        0.0
15:44             184        0.0         25       38.2      226.0       38.2       38.2       14.8     1008.0       38.8       22.6        0.0        0.0        0.0       0.00      103.9       0.00       4.06        0.0
15:46             184        0.0         25       38.2      226.0       38.2       38.2       14.7     1008.0       38.8       22.6        0.0        0.0        0.0       0.00      104.1       0.00       4.23        0.0
15:48             184        0.0         26       38.3      226.0       38.3       38.6       15.4     1008.0       38.8       22.6        0.0        0.0        0.0       0.00      104.2       0.00       4.23        0.0
15:50             153        0.0         25       38.4      226.0       38.4       38.5       14.9     1008.0       38.8       22.6        0.0        0.0        0.0       0.00      104.5       0.00       4.23        0.0
15:52             147        0.0         25       38.5      226.0       38.5       38.7       15.0     1008.0       38.8       22.6        0.0        0.0        0.0       0.00      104.7       0.00       4.23        0.0
15:54             147        0.0         25       38.7      226.0       38.7       39.0       15.2     1007.9       38.8       22.6        0.0        0.0        0.0       0.00      104.9       0.00       4.23        0.0
15:56             146        0.0         25       38.9      226.0       38.9       39.3       15.3     1008.0       38.9       22.6        0.0        0.0        0.0       0.00      105.0       0.00       4.23        0.0
15:58             146        0.0         25       39.1      226.0       39.1       39.5       15.5     1007.9       39.1       22.6        0.0        0.0        0.0       0.00      105.2       0.00       4.23        0.0
16:00             147        0.0         24       39.2      226.0       39.2       39.5       15.0     1007.9       39.2       22.6        0.0        0.0        0.0       0.00      105.4       0.00       4.23        0.0
16:02             148        0.0         24       39.4      226.0       39.4       39.7       15.1     1008.0       39.4       22.6        0.0        0.0        0.0       0.00      105.7       0.00       4.41        0.0
16:04             148        0.0         24       39.4      226.0       39.4       39.8       15.1     1007.9       39.4       22.6        0.0        0.0        0.0       0.00      105.9       0.00       4.41        0.0
16:05             182        0.0         24       39.5      226.0       39.5       39.9       15.2     1008.0       39.5       22.6        0.0        0.0        0.0       0.00      106.2       0.00       4.41        0.0
16:08             188        0.0         24       39.5      226.0       39.5       39.9       15.2     1007.9       39.5       22.6        0.0        0.0        0.0       0.00      106.6       0.00       4.41        0.0
16:10             188        0.0         24       39.5      226.0       39.5       39.9       15.2     1007.9       39.5       22.6        0.0        0.0        0.0       0.00      106.7       0.00       4.41        0.0
16:12             187        0.0         24       39.6      226.0       39.6       40.0       15.2     1007.9       39.6       22.6        0.0        0.0        0.0       0.00      106.9       0.00       4.41        0.0
16:13             187        0.0         24       39.7      226.0       39.7       40.2       15.3     1007.9       39.7       22.6        0.0        0.0        0.0       0.00      107.0       0.00       4.41        0.0
16:16             187        0.0         24       39.7      226.0       39.7       40.3       15.4     1007.9       39.7       22.6        0.0        0.0        0.0       0.00      107.2       0.00       4.59        0.0
16:18             187        0.0         24       39.8      226.0       39.8       40.4       15.5     1007.9       39.8       22.6        0.0        0.0        0.0       0.00      107.3       0.00       4.59        0.0
16:20             187        0.0         23       39.9      226.0       39.9       40.2       14.9     1007.8       39.9       22.6        0.0        0.0        0.0       0.00      107.5       0.00       4.59        0.0
16:21             187        0.0         23       39.9      226.0       39.9       40.3       14.9     1007.8       39.9       22.6        0.0        0.0        0.0       0.00      107.7       0.00       4.59        0.0
16:24             187        0.0         23       40.0      226.0       40.0       40.4       15.0     1007.8       40.0       22.6        0.0        0.0        0.0       0.00      107.9       0.00       4.59        0.0
16:26             187        0.0         23       40.0      226.0       40.0       40.4       15.0     1007.8       40.0       22.6        0.0        0.0        0.0       0.00      108.2       0.00       4.59        0.0
16:28             187        0.0         23       39.9      226.0       39.9       40.3       14.9     1007.9       40.0       22.6        0.0        0.0        0.0       0.00      108.3       0.00       4.59        0.0
16:29             187        0.0         23       39.9      226.0       39.9       40.2       14.9     1007.8       40.0       22.6        0.0        0.0        0.0       0.00      108.5       0.00       4.59        0.0
16:32             187        0.0         23       39.9      226.0       39.9       40.2       14.9     1007.8       40.0       22.6        0.0        0.0        0.0       0.00      108.6       0.00       4.78        0.0
16:33             187        0.0         23       39.9      226.0       39.9       40.2       14.9     1007.8       40.0       22.6        0.0        0.0        0.0       0.00      108.8       0.00       4.78        0.0
16:36             176        0.0         23       39.9      226.0       39.9       40.2       14.9     1007.8       40.0       22.6        0.0        0.0        0.0       0.00      109.1       0.00       4.78        0.0
16:38             178        0.0         23       39.9      226.0       39.9       40.3       14.9     1007.8       40.0       22.6        0.0        0.0        0.0       0.00      109.5       0.00       4.78        0.0
16:40             207        0.0         23       39.8      226.0       39.8       40.1       14.8     1007.8       40.0       22.6        0.0        0.0        0.0       0.00      110.5       0.00       4.78        0.0
16:42             177        0.0         23       39.7      226.0       39.7       39.8       14.7     1007.8       40.0       22.6        0.0        0.0        0.0       0.00      111.3       0.00       4.78        0.0
16:44             183        0.0         23       39.4      226.0       39.4       39.5       14.5     1007.7       40.0       22.6        0.0        0.0        0.0       0.00      112.0       0.00       4.78        0.0
16:45             178        0.0         23       39.3      226.0       39.3       39.3       14.4     1007.7       40.0       22.6        0.0        0.0        0.0       0.00      112.2       0.00       4.96        0.0
16:48             178        0.0         23       39.3      226.0       39.3       39.2       14.4     1007.7       40.0       22.6        0.0        0.0        0.0       0.00      112.3       0.00       4.96        0.0
16:49             169        0.0         24       39.3      226.0       39.3       39.6       15.0     1007.7       40.0       22.6        0.0        0.0        0.0       0.00      112.5       0.00       4.96        0.0
16:52             170        0.0         24       39.3      226.0       39.3       39.6       15.0     1007.7       40.0       22.6        0.0        0.0        0.0       0.00      112.8       0.00       4.96        0.0
16:54             169        0.0         23       39.3      226.0       39.3       39.3       14.4     1007.7       40.0       22.6        0.0        0.0        0.0       0.00      113.0       0.00       4.96        0.0
16:56             169        0.0         23       39.4      226.0       39.4       39.4       14.4     1007.7       40.0       22.6        0.0        0.0        0.0       0.00      113.3       0.00       4.96        0.0
16:57             169        0.0         23       39.5      226.0       39.5       39.6       14.5     1007.6       40.0       22.6        0.0        0.0        0.0       0.00      113.6       0.00       4.96        0.0
17:00             179        0.0         23       39.5      226.0       39.5       39.6       14.5     1007.6       40.0       22.6        0.0        0.0        0.0       0.00      114.8       0.00       4.96        0.0
17:02             187        0.0         24       39.4      226.0       39.4       39.7       15.1     1007.6       40.0       22.6        0.0        0.0        0.0       0.00      116.0       0.00       5.14        0.0
17:04             199        0.0         24       39.2      226.0       39.2       39.4       14.9     1007.7       40.0       22.6        0.0        0.0        0.0       0.00      116.9       0.00       5.14        0.0
17:06             213        0.0         24       38.9      226.0       38.9       39.0       14.7     1007.6       40.0       22.6        0.0        0.0        0.0       0.00      117.6       0.00       5.14        0.0
17:08             182        0.0         26       38.7      226.0       38.7       39.3       15.8     1007.7       40.0       22.6        0.0        0.0        0.0       0.00      118.6       0.00       5.14        0.0
17:10             205        0.0         26       38.6      226.0       38.6       39.1       15.7     1007.5       40.0       22.6        0.0        0.0        0.0       0.00      118.9       0.00       5.14        0.0
17:12             193        0.0         27       38.4      226.0       38.4       39.2       16.1     1007.7       40.0       22.6        0.0        0.0        0.0       0.00      119.4       0.00       5.14        0.0
17:14             192        0.0         28       38.4      226.0       38.4       39.4       16.7     1007.6       40.0       22.6        0.0        0.0        0.0       0.00      120.2       0.00       5.14        0.0
17:16             193        0.0         28       38.3      226.0       38.3       39.3       16.6     1007.6       40.0       22.6        0.0        0.0        0.0       0.00      121.1       0.00       5.31        0.0
17:18             167        0.0         28       38.2      226.0       38.2       39.2       16.5     1007.6       40.0       22.6        0.0        0.0        0.0       0.00      121.6       0.00       5.31        0.0
17:20             192        0.0         28       38.1      226.0       38.1       39.0       16.4     1007.6       40.0       22.6        0.0        0.0        0.0       0.00      122.2       0.00       5.31        0.0
17:22             171        0.0         28       38.1      226.0       38.1       39.0       16.4     1007.6       40.0       22.6        0.0        0.0        0.0       0.00      122.6       0.00       5.31        0.0
17:24             190        0.0         28       38.1      226.0       38.1       38.9       16.4     1007.6       40.0       22.6        0.0        0.0        0.0       0.00      123.0       0.00       5.31        0.0
17:26             178        0.0         28       38.0      226.0       38.0       38.8       16.3     1007.6       40.0       22.6        0.0        0.0        0.0       0.00      123.5       0.00       5.31        0.0
17:28             193        0.0         29       38.0      226.0       38.0       39.1       16.9     1007.6       40.0       22.6        0.0        0.0        0.0       0.00      124.0       0.00       5.31        0.0
17:30             163        0.0         29       37.9      226.0       37.9       39.0       16.8     1007.5       40.0       22.6        0.0        0.0        0.0       0.00      124.6       0.00       5.31        0.0
17:32             184        0.0         29       37.9      226.0       37.9       39.0       16.8     1007.5       40.0       22.6        0.0        0.0        0.0       0.00      125.6       0.00       5.48        0.0
17:34             163        0.0         29       37.9      226.0       37.9       38.9       16.8     1007.5       40.0       22.6        0.0        0.0        0.0       0.00      126.1       0.00       5.48        0.0
17:36             194        0.0         28       37.9      226.0       37.9       38.6       16.2     1007.5       40.0       22.6        0.0        0.0        0.0       0.00      126.7       0.00       5.48        0.0
17:38             188        0.0         27       37.9      226.0       37.9       38.3       15.7     1007.5       40.0       22.6        0.0        0.0        0.0       0.00      127.7       0.00       5.48        0.0
17:40             224        0.0         27       37.8      226.0       37.8       38.2       15.6     1007.6       40.0       22.6        0.0        0.0        0.0       0.00      128.9       0.00       5.48        0.0
17:42             233        0.0         27       37.7      226.0       37.7       38.0       15.5     1007.6       40.0       22.6        0.0        0.0        0.0       0.00      129.6       0.00       5.48        0.0
17:43             240        0.0         27       37.6      226.0       37.6       37.8       15.4     1007.7       40.0       22.6        0.0        0.0        0.0       0.00      130.1       0.00       5.48        0.0
17:46             242        0.0         27       37.3      226.0       37.3       37.4       15.2     1007.7       40.0       22.6        0.0        0.0        0.0       0.00      130.8       0.00       5.64        0.0
17:47             215        0.0         28       37.1      226.0       37.1       37.4       15.6     1007.6       40.0       22.6        0.0        0.0        0.0       0.00      131.3       0.00       5.64        0.0
17:50             218        0.0         28       37.0      226.0       37.0       37.2       15.5     1007.7       40.0       22.6        0.0        0.0        0.0       0.00      132.0       0.00       5.64        0.0
17:52             244        0.0         28       36.8      226.0       36.8       36.9       15.3     1007.7       40.0       22.6        0.0        0.0        0.0       0.00      132.8       0.00       5.64        0.0
17:54             212        0.0         28       36.7      226.0       36.7       36.8       15.3     1007.7       40.0       22.6        0.0        0.0        0.0       0.00      133.4       0.00       5.64        0.0
17:55             245        0.0         28       36.7      226.0       36.7       36.7       15.2     1007.8       40.0       22.6        0.0        0.0        0.0       0.00      134.1       0.00       5.64        0.0
17:58             252        0.0         29       36.6      226.0       36.6       36.9       15.7     1007.7       40.0       22.6        0.0        0.0        0.0       0.00      134.4       0.00       5.64        0.0
18:00             239        0.0         29       36.5      226.0       36.5       36.7       15.6     1007.8       40.0       22.6        0.0        0.0        0.0       0.00      135.0       0.00       5.64        0.0
18:01             240        0.0         29       36.4      226.0       36.4       36.6       15.6     1007.9       40.0       22.6        0.0        0.0        0.0       0.00      135.6       0.00       5.79        0.0
18:04             250        0.0         29       36.3      226.0       36.3       36.3       15.4     1007.8       40.0       22.6        0.0        0.0        0.0       0.00      136.5       0.00       5.79        0.0
18:06             223        0.0         29       36.2      226.0       36.2       36.3       15.4     1007.8       40.0       22.6        0.0        0.0        0.0       0.00      137.1       0.00       5.79        0.0
18:08             227        0.0         29       36.1      226.0       36.1       36.1       15.3     1007.8       40.0       22.6        0.0        0.0        0.0       0.00      137.8       0.00       5.79        0.0
18:09             229        0.0         30       36.1      226.0       36.1       36.2       15.8     1007.9       40.0       22.6        0.0        0.0        0.0       0.00      138.3       0.00       5.79        0.0
18:12             252        0.0         30       36.0      226.0       36.0       36.2       15.7     1007.9       40.0       22.6        0.0        0.0        0.0       0.00      138.8       0.00       5.79        0.0
18:13             250        0.0         30       35.9      226.0       35.9       36.1       15.7     1007.8       40.0       22.6        0.0        0.0        0.0       0.00      139.3       0.00       5.79        0.0
18:15             238        0.0         30       35.9      226.0       35.9       36.0       15.6     1007.8       40.0       22.6        0.0        0.0        0.0       0.00      139.7       0.00       5.93        0.0
18:18             260        0.0         30       35.9      226.0       35.9       36.0       15.6     1007.9       40.0       22.6        0.0        0.0        0.0       0.00      140.1       0.00       5.93        0.0
18:20             262        0.0         30       35.8      226.0       35.8       35.9       15.6     1007.9       40.0       22.6        0.0        0.0        0.0       0.00      140.5       0.00       5.93        0.0
18:22             220        0.0         31       35.7      226.0       35.7       36.0       16.0     1007.9       40.0       22.6        0.0        0.0        0.0       0.00      141.0       0.00       5.93        0.0
18:24             202        0.0         31       35.7      226.0       35.7       35.9       15.9     1007.9       40.0       22.6        0.0        0.0        0.0       0.00      141.5       0.00       5.93        0.0
18:26             215        0.0         31       35.6      226.0       35.6       35.7       15.8     1007.9       40.0       22.6        0.0        0.0        0.0       0.00      142.2       0.00       5.93        0.0
18:28             223        0.0         31       35.5      226.0       35.5       35.6       15.8     1007.9       40.0       22.6        0.0        0.0        0.0       0.00      143.0       0.00       5.93        0.0
18:30             238        0.0         31       35.3      226.0       35.3       35.4       15.6     1007.9       40.0       22.6        0.0        0.0        0.0       0.00      143.8       0.00       5.93        0.0
18:32             244        0.0         31       35.2      226.0       35.2       35.2       15.6     1008.0       40.0       22.6        0.0        0.0        0.0       0.00      144.7       0.00       6.07        0.0
18:33             222        0.0         32       35.1      226.0       35.1       35.2       15.9     1008.0       40.0       22.6        0.0        0.0        0.0       0.00      145.4       0.00       6.07        0.0
18:36             229        0.0         32       35.0      226.0       35.0       35.1       15.9     1008.0       40.0       22.6        0.0        0.0        0.0       0.00      146.1       0.00       6.07        0.0
18:38             226        0.0         32       34.9      226.0       34.9       34.9       15.8     1008.1       40.0       22.6        0.0        0.0        0.0       0.00      146.4       0.00       6.07        0.0
18:39             244        0.0         32       34.8      226.0       34.8       34.9       15.7     1008.0       40.0       22.6        0.0        0.0        0.0       0.00      147.2       0.00       6.07        0.0
18:42             217        0.0         32       34.8      226.0       34.8       34.8       15.7     1008.1       40.0       22.6        0.0        0.0        0.0       0.00      147.7       0.00       6.07        0.0
18:44             254        0.0         32       34.7      226.0       34.7       34.7       15.6     1008.1       40.0       22.6        0.0        0.0        0.0       0.00      148.4       0.00       6.07        0.0
18:45             220        0.0         33       34.7      226.0       34.7       34.8       16.1     1008.2       40.0       22.6        0.0        0.0        0.0       0.00      149.0       0.00       6.21        0.0
18:48             240        0.0         33       34.6      226.0       34.6       34.7       16.0     1008.2       40.0       22.6        0.0        0.0        0.0       0.00      149.5       0.00       6.21        0.0
18:50             226        0.0         33       34.6      226.0       34.6       34.7       16.0     1008.1       40.0       22.6        0.0        0.0        0.0       0.00      150.2       0.00       6.21        0.0
18:52             231        0.0         33       34.4      226.0       34.4       34.4       15.8     1008.2       40.0       22.6        0.0        0.0        0.0       0.00      151.5       0.00       6.21        0.0
18:53             233        0.0         34       34.3      226.0       34.3       34.5       16.2     1008.3       40.0       22.6        0.0        0.0        0.0       0.00      152.1       0.00       6.21        0.0
18:56             229        0.0         34       34.2      226.0       34.2       34.3       16.1     1008.3       40.0       22.6        0.0        0.0        0.0       0.00      152.6       0.00       6.21        0.0
18:58             213        0.0         34       34.1      226.0       34.1       34.1       16.0     1008.3       40.0       22.6        0.0        0.0        0.0       0.00      153.5       0.00       6.21        0.0
19:00             216        0.0         34       33.9      226.0       33.9       33.9       15.8     1008.4       40.0       22.6        0.0        0.0        0.0       0.00      154.8       0.00       6.21        0.0
19:02             242        0.0         35       33.8      226.0       33.8       33.9       16.2     1008.4       40.0       22.6        0.0        0.0        0.0       0.00      156.3       0.00       6.33        0.0
19:04             225        0.0         35       33.6      226.0       33.6       33.7       16.1     1008.4       40.0       22.6        0.0        0.0        0.0       0.00      157.5       0.00       6.33        0.0
19:06             209        0.0         35       33.4      226.0       33.4       33.4       15.9     1008.4       40.0       22.6        0.0        0.0        0.0       0.00      159.0       0.00       6.33        0.0
19:08             229        0.0         35       33.3      226.0       33.3       33.3       15.8     1008.4       40.0       22.6        0.0        0.0        0.0       0.00      160.4       0.00       6.33        0.0
19:09             239        0.0         35       33.2      226.0       33.2       33.0       15.7     1008.5       40.0       22.6        0.0        0.0        0.0       0.00      161.6       0.00       6.33        0.0
19:12             216        0.0         35       33.1      226.0       33.1       32.9       15.6     1008.4       40.0       22.6        0.0        0.0        0.0       0.00      162.6       0.00       6.33        0.0
19:13             223        0.0         36       32.9      226.0       32.9       32.9       15.9     1008.4       40.0       22.6        0.0        0.0        0.0       0.00      163.5       0.00       6.33        0.0
19:16             216        0.0         36       32.8      226.0       32.8       32.7       15.8     1008.4       40.0       22.6        0.0        0.0        0.0       0.00      164.4       0.00       6.44        0.0
19:17             238        0.0         36       32.8      226.0       32.8       32.7       15.8     1008.5       40.0       22.6        0.0        0.0        0.0       0.00      165.5       0.00       6.44        0.0
19:20             229        0.0         36       32.7      226.0       32.7       32.5       15.7     1008.5       40.0       22.6        0.0        0.0        0.0       0.00      166.3       0.00       6.44        0.0
19:22             215        0.0         36       32.6      226.0       32.6       32.4       15.6     1008.5       40.0       22.6        0.0        0.0        0.0       0.00      167.3       0.00       6.44        0.0
19:24             218        0.0         36       32.5      226.0       32.5       32.3       15.5     1008.5       40.0       22.6        0.0        0.0        0.0       0.00      168.0       0.00       6.44        0.0
19:26             238        0.0         37       32.4      226.0       32.4       32.3       15.8     1008.4       40.0       22.6        0.0        0.0        0.0       0.00      168.9       0.00       6.44        0.0
19:27             220        0.0         37       32.3      226.0       32.3       32.2       15.8     1008.5       40.0       22.6        0.0        0.0        0.0       0.00      169.8       0.00       6.44        0.0
19:30             225        0.0         37       32.3      226.0       32.3       32.1       15.7     1008.5       40.0       22.6        0.0        0.0        0.0       0.00      170.5       0.00       6.44        0.0
19:32             239        0.0         37       32.2      226.0       32.2       32.1       15.7     1008.4       40.0       22.6        0.0        0.0        0.0       0.00      170.9       0.00       6.55        0.0
19:34             220        0.0         37       32.1      226.0       32.1       31.9       15.6     1008.5       40.0       22.6        0.0        0.0        0.0       0.00      171.5       0.00       6.55        0.0
19:36             246        0.0         37       32.1      226.0       32.1       31.8       15.6     1008.4       40.0       22.6        0.0        0.0        0.0       0.00      172.1       0.00       6.55        0.0
19:38             229        0.0         37       32.0      226.0       32.0       31.8       15.5     1008.5       40.0       22.6        0.0        0.0        0.0       0.00      172.6       0.00       6.55        0.0
19:40             226        0.0         38       31.9      226.0       31.9       31.9       15.9     1008.5       40.0       22.6        0.0        0.0        0.0       0.00      173.1       0.00       6.55        0.0
19:41             240        0.0         37       31.9      226.0       31.9       31.6       15.4     1008.5       40.0       22.6        0.0        0.0        0.0       0.00      173.8       0.00       6.55        0.0
19:44             230        0.0         38       31.8      226.0       31.8       31.7       15.8     1008.6       40.0       22.6        0.0        0.0        0.0       0.00      174.2       0.00       6.55        0.0
19:46             217        0.0         38       31.8      226.0       31.8       31.6       15.7     1008.5       40.0       22.6        0.0        0.0        0.0       0.00      174.7       0.00       6.65        0.0
19:48             218        0.0         38       31.7      226.0       31.7       31.6       15.7     1008.5       40.0       22.6        0.0        0.0        0.0       0.00      175.0       0.00       6.65        0.0
19:50             228        0.0         38       31.6      226.0       31.6       31.4       15.6     1008.5       40.0       22.6        0.0        0.0        0.0       0.00      175.5       0.00       6.65        0.0
19:51             232        0.0         38       31.6      226.0       31.6       31.4       15.6     1008.5       40.0       22.6        0.0        0.0        0.0       0.00      176.0       0.00       6.65        0.0
19:54             236        0.0         38       31.5      226.0       31.5       31.3       15.5     1008.6       40.0       22.6        0.0        0.0        0.0       0.00      176.4       0.00       6.65        0.0
19:56             227        0.0         38       31.5      226.0       31.5       31.3       15.5     1008.6       40.0       22.6        0.0        0.0        0.0       0.00      176.9       0.00       6.65        0.0
19:58             231        0.0         38       31.4      226.0       31.4       31.1       15.4     1008.6       40.0       22.6        0.0        0.0        0.0       0.00      177.3       0.00       6.65        0.0
20:00             242        0.0         38       31.3      226.0       31.3       31.1       15.3     1008.7       40.0       22.6        0.0        0.0        0.0       0.00      177.7       0.00       6.65        0.0
20:02             231        0.0         38       31.3      226.0       31.3       31.0       15.3     1008.7       40.0       22.6        0.0        0.0        0.0       0.00      178.1       0.00       6.75        0.0
20:04             240        0.0         38       31.3      226.0       31.3       31.0       15.3     1008.6       40.0       22.6        0.0        0.0        0.0       0.00      178.6       0.00       6.75        0.0
20:06             239        0.0         38       31.2      226.0       31.2       30.9       15.2     1008.8       40.0       22.6        0.0        0.0        0.0       0.00      178.9       0.00       6.75        0.0
20:07             241        0.0         38       31.2      226.0       31.2       30.9       15.2     1008.7       40.0       22.6        0.0        0.0        0.0       0.00      179.4       0.00       6.75        0.0
20:10             241        0.0         39       31.2      226.0       31.2       31.0       15.6     1008.7       40.0       22.6        0.0        0.0        0.0       0.00      179.7       0.00       6.75        0.0
20:12             238        0.0         39       31.1      226.0       31.1       30.9       15.5     1008.8       40.0       22.6        0.0        0.0        0.0       0.00      179.9       0.00       6.75        0.0
20:13             239        0.0         39       31.1      226.0       31.1       30.9       15.5     1008.8       40.0       22.6        0.0        0.0        0.0       0.00      180.2       0.00       6.75        0.0
20:16             245        0.0         39       31.1      226.0       31.1       30.8       15.5     1008.9       40.0       22.6        0.0        0.0        0.0       0.00      180.5       0.00       6.84        0.0
20:18             232        0.0         39       31.0      226.0       31.0       30.8       15.4     1008.8       40.0       22.6        0.0        0.0        0.0       0.00      180.9       0.00       6.84        0.0
20:19             232        0.0         39       30.9      226.0       30.9       30.7       15.4     1008.9       40.0       22.6        0.0        0.0        0.0       0.00      181.3       0.00       6.84        0.0
20:22             227        0.0         40       30.9      226.0       30.9       30.8       15.7     1009.0       40.0       22.6        0.0        0.0        0.0       0.00      181.6       0.00       6.84        0.0
20:24             234        0.0         40       30.8      226.0       30.8       30.7       15.7     1009.1       40.0       22.6        0.0        0.0        0.0       0.00      182.0       0.00       6.84        0.0
20:26             232        0.0         40       30.8      226.0       30.8       30.6       15.6     1009.1       40.0       22.6        0.0        0.0        0.0       0.00      182.4       0.00       6.84        0.0
20:28             229        0.0         40       30.8      226.0       30.8       30.6       15.6     1009.1       40.0       22.6        0.0        0.0        0.0       0.00      182.7       0.00       6.84        0.0
20:30             221        0.0         40       30.7      226.0       30.7       30.5       15.5     1009.2       40.0       22.6        0.0        0.0        0.0       0.00      183.2       0.00       6.84        0.0
20:32             223        0.0         40       30.6      226.0       30.6       30.4       15.5     1009.2       40.0       22.6        0.0        0.0        0.0       0.00      183.8       0.00       6.93        0.0
20:34             224        0.0         41       30.6      226.0       30.6       30.5       15.8     1009.2       40.0       22.6        0.0        0.0        0.0       0.00      184.2       0.00       6.93        0.0
20:36             218        0.0         41       30.4      226.0       30.4       30.3       15.7     1009.3       40.0       22.6        0.0        0.0        0.0       0.00      184.5       0.00       6.93        0.0
20:38             220        0.0         41       30.3      226.0       30.3       30.2       15.6     1009.2       40.0       22.6        0.0        0.0        0.0       0.00      184.8       0.00       6.93        0.0
20:39             217        0.0         41       30.3      226.0       30.3       30.1       15.6     1009.2       40.0       22.6        0.0        0.0        0.0       0.00      185.2       0.00       6.93        0.0
20:42             205        0.0         42       30.2      226.0       30.2       30.1       15.8     1009.2       40.0       22.6        0.0        0.0        0.0       0.00      185.7       0.00       6.93        0.0
20:44             215        0.0         42       30.1      226.0       30.1       30.0       15.7     1009.2       40.0       22.6        0.0        0.0        0.0       0.00      186.1       0.00       6.93        0.0
20:46             215        0.0         42       30.0      226.0       30.0       29.9       15.7     1009.3       40.0       22.6        0.0        0.0        0.0       0.00      186.8       0.00       7.02        0.0
20:48             214        0.0         43       29.9      226.0       29.9       29.9       16.0     1009.3       40.0       22.6        0.0        0.0        0.0       0.00      187.7       0.00       7.02        0.0
20:50             211        0.0         43       29.8      226.0       29.8       29.8       15.9     1009.3       40.0       22.6        0.0        0.0        0.0       0.00      188.2       0.00       7.02        0.0
20:52             206        0.0         43       29.7      226.0       29.7       29.6       15.8     1009.3       40.0       22.6        0.0        0.0        0.0       0.00      188.6       0.00       7.02        0.0
20:54             216        0.0         43       29.6      226.0       29.6       29.6       15.7     1009.3       40.0       22.6        0.0        0.0        0.0       0.00      189.2       0.00       7.02        0.0
20:56             208        0.0         43       29.5      226.0       29.5       29.5       15.6     1009.4       40.0       22.6        0.0        0.0        0.0       0.00      190.0       0.00       7.02        0.0
20:57             213        0.0         44       29.4      226.0       29.4       29.4       15.9     1009.4       40.0       22.6        0.0        0.0        0.0       0.00      190.4       0.00       7.02        0.0
21:00             215        0.0         44       29.3      226.0       29.3       29.4       15.8     1009.4       40.0       22.6        0.0        0.0        0.0       0.00      191.1       0.00       7.02        0.0
21:02             223        0.0         44       29.2      226.0       29.2       29.2       15.7     1009.6       40.0       22.6        0.0        0.0        0.0       0.00      191.6       0.00       7.09        0.0
21:04             241        0.0         44       29.1      226.0       29.1       29.1       15.6     1009.5       40.0       22.6        0.0        0.0        0.0       0.00      192.3       0.00       7.09        0.0
21:06             222        0.0         45       28.9      226.0       28.9       29.0       15.8     1009.5       40.0       22.6        0.0        0.0        0.0       0.00      192.8       0.00       7.09        0.0
21:08             213        0.0         45       28.8      226.0       28.8       28.9       15.7     1009.5       40.0       22.6        0.0        0.0        0.0       0.00      193.2       0.00       7.09        0.0
21:09             219        0.0         45       28.7      226.0       28.7       28.8       15.6     1009.6       40.0       22.6        0.0        0.0        0.0       0.00      193.6       0.00       7.09        0.0
21:12             212        0.0         45       28.6      226.0       28.6       28.7       15.5     1009.6       40.0       22.6        0.0        0.0        0.0       0.00      194.0       0.00       7.09        0.0
21:13             212        0.0         46       28.6      226.0       28.6       28.7       15.8     1009.8       40.0       22.6        0.0        0.0        0.0       0.00      194.3       0.00       7.09        0.0
21:15             211        0.0         46       28.4      226.0       28.4       28.6       15.7     1009.7       40.0       22.6        0.0        0.0        0.0       0.00      194.6       0.00       7.16        0.0
21:18             208        0.0         46       28.4      226.0       28.4       28.5       15.7     1009.9       40.0       22.6        0.0        0.0        0.0       0.00      194.9       0.00       7.16        0.0
21:20             209        0.0         46       28.3      226.0       28.3       28.5       15.6     1009.9       40.0       22.6        0.0        0.0        0.0       0.00      195.3       0.00       7.16        0.0
21:22             209        0.0         46       28.3      226.0       28.3       28.4       15.6     1010.0       40.0       22.6        0.0        0.0        0.0       0.00      195.7       0.00       7.16        0.0
21:24             209        0.0         47       28.2      226.0       28.2       28.4       15.9     1010.0       40.0       22.6        0.0        0.0        0.0       0.00      196.0       0.00       7.16        0.0
21:25             209        0.0         47       28.1      226.0       28.1       28.3       15.7     1010.0       40.0       22.6        0.0        0.0        0.0       0.00      196.4       0.00       7.16        0.0
21:28             209        0.0         47       28.1      226.0       28.1       28.2       15.7     1010.1       40.0       22.6        0.0        0.0        0.0       0.00      196.7       0.00       7.16        0.0
21:30             222        0.0         47       28.0      226.0       28.0       28.2       15.6     1010.0       40.0       22.6        0.0        0.0        0.0       0.00      197.0       0.00       7.16        0.0
21:32             222        0.0         47       27.9      226.0       27.9       28.1       15.5     1010.1       40.0       22.6        0.0        0.0        0.0       0.00      197.3       0.00       7.22        0.0
21:34             222        0.0         48       27.8      226.0       27.8       28.1       15.8     1010.2       40.0       22.6        0.0        0.0        0.0       0.00      197.6       0.00       7.22        0.0
21:36             221        0.0         48       27.7      226.0       27.7       28.0       15.7     1010.2       40.0       22.6        0.0        0.0        0.0       0.00      197.9       0.00       7.22        0.0
21:38             213        0.0         48       27.7      226.0       27.7       28.0       15.7     1010.3       40.0       22.6        0.0        0.0        0.0       0.00      198.4       0.00       7.22        0.0
21:40             212        0.0         48       27.6      226.0       27.6       27.9       15.6     1010.3       40.0       22.6        0.0        0.0        0.0       0.00      198.8       0.00       7.22        0.0
21:42             213        0.0         49       27.6      226.0       27.6       27.9       15.9     1010.3       40.0       22.6        0.0        0.0        0.0       0.00      199.1       0.00       7.22        0.0
21:43             213        0.0         49       27.5      226.0       27.5       27.8       15.8     1010.2       40.0       22.6        0.0        0.0        0.0       0.00      199.4       0.00       7.22        0.0
21:46             213        0.0         49       27.4      226.0       27.4       27.7       15.7     1010.3       40.0       22.6        0.0        0.0        0.0       0.00      199.7       0.00       7.28        0.0
21:48             213        0.0         49       27.3      226.0       27.3       27.7       15.7     1010.3       40.0       22.6        0.0        0.0        0.0       0.00      200.0       0.00       7.28        0.0
21:50             213        0.0         49       27.3      226.0       27.3       27.6       15.6     1010.2       40.0       22.6        0.0        0.0        0.0       0.00      200.3       0.00       7.28        0.0
21:52             213        0.0         50       27.2      226.0       27.2       27.6       15.9     1010.3       40.0       22.6        0.0        0.0        0.0       0.00      200.6       0.00       7.28        0.0
21:54             215        0.0         50       27.1      226.0       27.1       27.5       15.8     1010.3       40.0       22.6        0.0        0.0        0.0       0.00      200.9       0.00       7.28        0.0
21:55             215        0.0         50       27.0      226.0       27.0       27.4       15.7     1010.3       40.0       22.6        0.0        0.0        0.0       0.00      201.2       0.00       7.28        0.0
21:58             215        0.0         50       26.9      226.0       26.9       27.3       15.6     1010.4       40.0       22.6        0.0        0.0        0.0       0.00      201.7       0.00       7.28        0.0
22:00             212        0.0         51       26.8      226.0       26.8       27.3       15.9     1010.3       40.0       22.6        0.0        0.0        0.0       0.00      202.2       0.00       7.28        0.0
22:02             211        0.0         51       26.8      226.0       26.8       27.3       15.8     1010.4       40.0       22.6        0.0        0.0        0.0       0.00      202.6       0.00       7.33        0.0
22:04             217        0.0         51       26.7      226.0       26.7       27.2       15.8     1010.4       40.0       22.6        0.0        0.0        0.0       0.00      202.9       0.00       7.33        0.0
22:06             220        0.0         51       26.6      226.0       26.6       27.1       15.7     1010.4       40.0       22.6        0.0        0.0        0.0       0.00      203.4       0.00       7.33        0.0
22:07             228        0.0         51       26.6      226.0       26.6       27.1       15.6     1010.4       40.0       22.6        0.0        0.0        0.0       0.00      203.8       0.00       7.33        0.0
22:10             228        0.0         52       26.4      226.0       26.4       27.0       15.8     1010.4       40.0       22.6        0.0        0.0        0.0       0.00      204.2       0.00       7.33        0.0
22:12             225        0.0         52       26.3      226.0       26.3       26.9       15.7     1010.4       40.0       22.6        0.0        0.0        0.0       0.00      204.8       0.00       7.33        0.0
22:14             221        0.0         52       26.3      226.0       26.3       26.8       15.6     1010.4       40.0       22.6        0.0        0.0        0.0       0.00      205.4       0.00       7.33        0.0
22:16             234        0.0         52       26.2      226.0       26.2       26.7       15.5     1010.4       40.0       22.6        0.0        0.0        0.0       0.00      206.0       0.00       7.37        0.0
22:18             238        0.0         52       26.1      226.0       26.1       26.7       15.5     1010.4       40.0       22.6        0.0        0.0        0.0       0.00      206.7       0.00       7.37        0.0
22:20             227        0.0         52       26.0      226.0       26.0       26.6       15.4     1010.4       40.0       22.6        0.0        0.0        0.0       0.00      207.2       0.00       7.37        0.0
22:22             236        0.0         52       25.9      226.0       25.9       26.5       15.3     1010.3       40.0       22.6        0.0        0.0        0.0       0.00      207.7       0.00       7.37        0.0
22:24             248        0.0         52       25.9      226.0       25.9       26.4       15.3     1010.3       40.0       22.6        0.0        0.0        0.0       0.00      208.3       0.00       7.37        0.0
22:26             247        0.0         52       25.9      226.0       25.9       26.4       15.3     1010.3       40.0       22.6        0.0        0.0        0.0       0.00      208.7       0.00       7.37        0.0
22:28             244        0.0         52       25.9      226.0       25.9       26.4       15.3     1010.4       40.0       22.6        0.0        0.0        0.0       0.00      209.2       0.00       7.37        0.0
22:30             244        0.0         52       25.9      226.0       25.9       26.4       15.3     1010.4       40.0       22.6        0.0        0.0        0.0       0.00      209.8       0.00       7.37        0.0
22:32             250        0.0         52       25.9      226.0       25.9       26.4       15.3     1010.4       40.0       22.6        0.0        0.0        0.0       0.00      210.2       0.00       7.41        0.0
22:34             249        0.0         52       25.9      226.0       25.9       26.4       15.3     1010.4       40.0       22.6        0.0        0.0        0.0       0.00      210.8       0.00       7.41        0.0
22:36             248        0.0         52       25.9      226.0       25.9       26.5       15.3     1010.4       40.0       22.6        0.0        0.0        0.0       0.00      211.4       0.00       7.41        0.0
22:38             242        0.0         52       25.9      226.0       25.9       26.5       15.3     1010.5       40.0       22.6        0.0        0.0        0.0       0.00      211.9       0.00       7.41        0.0
22:40             243        0.0         51       25.9      226.0       25.9       26.4       15.0     1010.6       40.0       22.6        0.0        0.0        0.0       0.00      212.2       0.00       7.41        0.0
22:42             242        0.0         51       25.9      226.0       25.9       26.4       15.0     1010.6       40.0       22.6        0.0        0.0        0.0       0.00      212.7       0.00       7.41        0.0
22:44             242        0.0         51       25.9      226.0       25.9       26.4       15.0     1010.5       40.0       22.6        0.0        0.0        0.0       0.00      212.9       0.00       7.41        0.0
22:46             242        0.0         51       26.0      226.0       26.0       26.5       15.1     1010.6       40.0       22.6        0.0        0.0        0.0       0.00      213.2       0.00       7.46        0.0
22:48             242        0.0         51       26.0      226.0       26.0       26.5       15.1     1010.6       40.0       22.6        0.0        0.0        0.0       0.00      213.5       0.00       7.46        0.0
22:50             242        0.0         51       25.9      226.0       25.9       26.4       15.0     1010.6       40.0       22.6        0.0        0.0        0.0       0.00      213.8       0.00       7.46        0.0
22:52             243        0.0         51       25.9      226.0       25.9       26.4       15.0     1010.6       40.0       22.6        0.0        0.0        0.0       0.00      214.4       0.00       7.46        0.0
22:54             249        0.0         51       25.9      226.0       25.9       26.4       15.0     1010.5       40.0       22.6        0.0        0.0        0.0       0.00      214.9       0.00       7.46        0.0
22:56             250        0.0         51       25.9      226.0       25.9       26.4       15.0     1010.6       40.0       22.6        0.0        0.0        0.0       0.00      215.4       0.00       7.46        0.0
22:58             259        0.0         51       25.9      226.0       25.9       26.4       15.0     1010.5       40.0       22.6        0.0        0.0        0.0       0.00      215.9       0.00       7.46        0.0
23:00             249        0.0         51       25.9      226.0       25.9       26.4       15.0     1010.6       40.0       22.6        0.0        0.0        0.0       0.00      216.5       0.00       7.46        0.0
23:02             241        0.0         51       26.0      226.0       26.0       26.5       15.1     1010.5       40.0       22.6        0.0        0.0        0.0       0.00      217.0       0.00       7.50        0.0
23:04             246        0.0         50       26.0      226.0       26.0       26.4       14.8     1010.5       40.0       22.6        0.0        0.0        0.0       0.00      217.7       0.00       7.50        0.0
23:06             259        0.0         50       26.0      226.0       26.0       26.4       14.8     1010.5       40.0       22.6        0.0        0.0        0.0       0.00      218.6       0.00       7.50        0.0
23:07             251        0.0         50       26.0      226.0       26.0       26.4       14.8     1010.6       40.0       22.6        0.0        0.0        0.0       0.00      219.4       0.00       7.50        0.0
23:10             249        0.0         50       25.9      226.0       25.9       26.4       14.7     1010.6       40.0       22.6        0.0        0.0        0.0       0.00      220.1       0.00       7.50        0.0
23:12             257        0.0         51       25.9      226.0       25.9       26.4       15.0     1010.6       40.0       22.6        0.0        0.0        0.0       0.00      221.0       0.00       7.50        0.0
23:14             251        0.0         51       25.9      226.0       25.9       26.4       15.0     1010.5       40.0       22.6        0.0        0.0        0.0       0.00      221.7       0.00       7.50        0.0
23:16             253        0.0         51       25.9      226.0       25.9       26.4       15.0     1010.7       40.0       22.6        0.0        0.0        0.0       0.00      222.3       0.00       7.54        0.0
23:18             240        0.0         51       25.9      226.0       25.9       26.4       15.0     1010.7       40.0       22.6        0.0        0.0        0.0       0.00      222.9       0.00       7.54        0.0
23:20             259        0.0         52       25.8      226.0       25.8       26.4       15.2     1010.7       40.0       22.6        0.0        0.0        0.0       0.00      223.4       0.00       7.54        0.0
23:22             247        0.0         52       25.8      226.0       25.8       26.3       15.2     1010.6       40.0       22.6        0.0        0.0        0.0       0.00      224.2       0.00       7.54        0.0
23:24             256        0.0         52       25.7      226.0       25.7       26.3       15.1     1010.8       40.0       22.6        0.0        0.0        0.0       0.00      224.8       0.00       7.54        0.0
23:26             259        0.0         53       25.7      226.0       25.7       26.3       15.4     1010.7       40.0       22.6        0.0        0.0        0.0       0.00      225.3       0.00       7.54        0.0
23:28             263        0.0         53       25.7      226.0       25.7       26.3       15.4     1010.7       40.0       22.6        0.0        0.0        0.0       0.00      225.9       0.00       7.54        0.0
23:30             263        0.0         53       25.6      226.0       25.6       26.2       15.3     1010.7       40.0       22.6        0.0        0.0        0.0       0.00      226.5       0.00       7.54        0.0
23:32             254        0.0         54       25.6      226.0       25.6       26.3       15.6     1010.7       40.0       22.6        0.0        0.0        0.0       0.00      227.0       0.00       7.58        0.0
23:34             259        0.0         53       25.6      226.0       25.6       26.2       15.3     1010.7       40.0       22.6        0.0        0.0        0.0       0.00      227.5       0.00       7.58        0.0
23:36             250        0.0         53       25.6      226.0       25.6       26.2       15.3     1010.7       40.0       22.6        0.0        0.0        0.0       0.00      228.0       0.00       7.58        0.0
23:38             259        0.0         53       25.6      226.0       25.6       26.2       15.3     1010.7       40.0       22.6        0.0        0.0        0.0       0.00      228.5       0.00       7.58        0.0
23:40             262        0.0         53       25.6      226.0       25.6       26.2       15.3     1010.8       40.0       22.6        0.0        0.0        0.0       0.00      228.9       0.00       7.58        0.0
23:42             250        0.0         53       25.6      226.0       25.6       26.2       15.3     1010.7       40.0       22.6        0.0        0.0        0.0       0.00      229.5       0.00       7.58        0.0
23:44             264        0.0         53       25.6      226.0       25.6       26.2       15.3     1010.8       40.0       22.6        0.0        0.0        0.0       0.00      230.0       0.00       7.58        0.0
23:46             252        0.0         53       25.6      226.0       25.6       26.2       15.3     1010.8       40.0       22.6        0.0        0.0        0.0       0.00      230.5       0.00       7.61        0.0
23:48             270        0.0         53       25.6      226.0       25.6       26.2       15.3     1010.8       40.0       22.6        0.0        0.0        0.0       0.00      231.0       0.00       7.61        0.0
23:50             272        0.0         53       25.7      226.0       25.7       26.3       15.4     1010.8       40.0       22.6        0.0        0.0        0.0       0.00      231.4       0.00       7.61        0.0
23:52             269        0.0         53       25.7      226.0       25.7       26.3       15.4     1010.8       40.0       22.6        0.0        0.0        0.0       0.00      232.0       0.00       7.61        0.0
23:54             254        0.0         53       25.7      226.0       25.7       26.3       15.4     1010.8       40.0       22.6        0.0        0.0        0.0       0.00      232.5       0.00       7.61        0.0
23:56             263        0.0         53       25.7      226.0       25.7       26.3       15.4     1010.8       40.0       22.6        0.0        0.0        0.0       0.00      233.1       0.00       7.61        0.0
23:58             252        0.0         53       25.7      226.0       25.7       26.3       15.4     1010.9       40.0       22.6        0.0        0.0        0.0       0.00      233.5       0.00       7.61        0.0